[[{"header":{"parameterUnit":"m.s-1","parameterCategory":1,"la1":30.6,"la2":29.2853,"lo1":-89.7004,"lo2":-87.6739,"dy":0.0162,"dx":0.0183,"nx":112,"ny":82,"refTime":"2023-11-02T00:00:00:Z","depth":0,"parameterNumber":2,"parameterNumberName":"U-component_of_WINDS"},"data":[0.0,0.0,0.0,0.0,0.0,0.0,0.0,0.0,0.0,0.0,0.0,0.0,0.0,0.0,0.0,0.0,0.0,0.0,0.0,0.0,0.0,0.0,0.0,0.0,0.0,0.0,0.0,0.0,0.0,0.0,0.0,0.0,0.0,0.0,0.0,0.0,0.0,0.0,0.0,0.0,0.0,0.0,0.0,0.0,0.0,0.0,0.0,0.0,0.0,0.0,0.0,0.0,0.0,0.0,0.0,0.0,0.0,0.0,0.0,0.0,0.0,0.0,0.0,0.0,0.0,0.0,0.0,0.0,0.0,0.0,0.0,0.0,0.0,0.0,0.0,0.0,0.0,0.0,0.0,0.0,0.0,0.0,0.0,0.0,0.0,0.0,0.0,0.0,0.0,0.0,1.8987,2.0037,2.2462,2.432,2.5121,2.5004,2.3342,1.9726,0.0,0.0,0.0,0.0,0.0,0.0,0.0,0.0,0.0,0.0,0.0,0.0,0.0,0.0,0.0,0.0,0.0,0.0,0.0,0.0,0.0,0.0,0.0,0.0,0.0,0.0,0.0,0.0,0.0,0.0,0.0,0.0,0.0,0.0,0.0,0.0,0.0,0.0,0.0,0.0,0.0,0.0,0.0,0.0,0.0,0.0,0.0,0.0,0.0,0.0,0.0,0.0,0.0,0.0,0.0,0.0,0.0,0.0,0.0,0.0,0.0,0.0,0.0,0.0,0.0,0.0,0.0,0.0,0.0,0.0,0.0,0.0,0.0,0.0,0.0,0.0,0.0,0.0,0.0,0.0,0.0,0.0,0.0,0.0,0.0,0.0,0.0,0.0,0.0,0.0,0.0,0.0,0.0,0.0,0.0,0.0,0.0,0.0,0.0,0.0,0.0,0.0,0.0,0.0,1.8458,2.2156,2.3974,2.5078,2.5562,2.4629,2.2971,2.0547,0.0,0.0,0.0,0.0,0.0,0.0,0.0,0.0,0.0,0.0,0.0,0.0,0.0,0.0,0.0,0.0,0.0,0.0,0.0,0.0,0.0,0.0,0.0,0.0,0.0,0.0,0.0,0.0,0.0,0.0,0.0,0.0,0.0,0.0,0.0,0.0,0.0,0.0,0.0,0.0,0.0,0.0,0.0,0.0,0.0,0.0,0.0,0.0,0.0,0.0,0.0,0.0,0.0,0.0,0.0,0.0,0.0,0.0,0.0,0.0,0.0,0.0,0.0,0.0,0.0,0.0,0.0,0.0,0.0,0.0,0.0,0.0,0.0,0.0,0.0,0.0,0.0,0.0,0.0,0.0,0.0,0.0,0.0,0.0,0.0,0.0,0.0,0.0,0.0,0.0,0.0,0.0,0.0,0.0,0.0,0.0,0.0,0.0,0.0,0.0,0.0,0.0,0.0,1.8412,1.9571,2.3396,2.457,2.5082,2.4996,2.4449,2.3008,2.039,1.9414,0.0,0.0,0.0,0.0,0.0,0.0,0.0,0.0,0.0,0.0,0.0,0.0,0.0,0.0,0.0,0.0,0.0,0.0,0.0,0.0,0.0,0.0,0.0,0.0,0.0,0.0,0.0,0.0,0.0,0.0,0.0,0.0,0.0,0.0,0.0,0.0,0.0,0.0,0.0,0.0,0.0,0.0,0.0,0.0,0.0,0.0,0.0,0.0,0.0,0.0,0.0,0.0,0.0,0.0,0.0,0.0,0.0,0.0,0.0,0.0,0.0,0.0,0.0,0.0,0.0,0.0,0.0,0.0,0.0,0.0,0.0,0.0,0.0,0.0,0.0,0.0,0.0,0.0,0.0,0.0,0.0,0.0,0.0,0.0,0.0,0.0,0.0,0.0,0.0,0.0,0.0,0.0,0.0,0.0,0.0,0.0,0.0,0.0,0.0,0.0,0.0,0.0,2.0469,2.1172,2.4079,2.4707,2.4824,2.459,2.4102,2.2674,2.0059,1.8792,0.0,0.0,0.0,0.0,0.0,0.0,0.0,0.0,0.0,0.0,0.0,0.0,0.0,0.0,0.0,0.0,0.0,0.0,0.0,0.0,0.0,0.0,0.0,0.0,0.0,0.0,0.0,0.0,0.0,0.0,0.0,0.0,0.0,0.0,0.0,0.0,0.0,0.0,0.0,0.0,0.0,0.0,0.0,0.0,0.0,0.0,0.0,0.0,0.0,0.0,0.0,0.0,0.0,0.0,0.0,0.0,0.0,0.0,0.0,0.0,0.0,0.0,0.0,0.0,0.0,0.0,0.0,0.0,0.0,0.0,0.0,0.0,0.0,0.0,0.0,0.0,0.0,0.0,0.0,0.0,0.0,0.0,0.0,0.0,0.0,0.0,0.0,0.0,0.0,0.0,0.0,0.0,0.0,0.0,0.0,0.0,0.0,0.0,0.0,0.0,0.0,0.0,2.0625,2.281,2.4235,2.443,2.4609,2.5024,2.3225,2.1445,1.9981,1.7974,0.0,0.0,0.0,0.0,0.0,0.0,0.0,0.0,0.0,0.0,0.0,0.0,0.0,0.0,0.0,0.0,0.0,0.0,0.0,0.0,0.0,0.0,0.0,0.0,0.0,0.0,0.0,0.0,0.0,0.0,0.0,0.0,0.0,0.0,0.0,0.0,0.0,0.0,0.0,0.0,0.0,0.0,0.0,0.0,0.0,0.0,0.0,0.0,0.0,0.0,0.0,0.0,0.0,0.0,0.0,0.0,0.0,0.0,0.0,0.0,0.0,0.0,0.0,0.0,0.0,0.0,0.0,0.0,0.0,0.0,0.0,0.0,0.0,0.0,0.0,0.0,0.0,0.0,0.0,0.0,0.0,0.0,0.0,0.0,0.0,0.0,0.0,0.0,0.0,0.0,0.0,0.0,0.0,0.0,0.0,0.0,0.0,0.0,0.0,0.0,0.0,0.0,2.0918,2.2812,2.4652,2.4848,2.4691,2.432,2.3281,2.1777,1.9668,0.0,0.0,0.0,0.0,0.0,0.0,0.0,0.0,0.0,0.0,0.0,0.0,0.0,0.0,0.0,0.0,0.0,0.0,0.0,0.0,0.0,0.0,0.0,0.0,0.0,0.0,0.0,0.0,0.0,0.0,0.0,0.0,0.0,0.0,0.0,0.0,0.0,0.0,0.0,0.0,0.0,0.0,0.0,0.0,0.0,0.0,0.0,0.0,0.0,0.0,0.0,0.0,0.0,0.0,0.0,0.0,0.0,0.0,0.0,0.0,0.0,0.0,0.0,0.0,0.0,0.0,0.0,0.0,0.0,0.0,0.0,0.0,0.0,0.0,0.0,0.0,0.0,0.0,0.0,0.0,0.0,0.0,0.0,0.0,0.0,0.0,0.0,0.0,0.0,0.0,0.0,0.0,0.0,0.0,0.0,0.0,0.0,0.0,0.0,0.0,0.0,0.0,1.9434,2.1348,2.3127,2.4711,2.4769,2.4457,2.3848,2.2732,2.1288,1.9432,0.0,0.0,0.0,0.0,0.0,0.0,0.0,0.0,0.0,0.0,0.0,0.0,0.0,0.0,0.0,0.0,0.0,0.0,0.0,0.0,0.0,0.0,0.0,0.0,0.0,0.0,0.0,0.0,0.0,0.0,0.0,0.0,0.0,0.0,0.0,0.0,0.0,0.0,0.0,0.0,0.0,0.0,0.0,0.0,0.0,0.0,0.0,0.0,0.0,0.0,0.0,0.0,0.0,0.0,0.0,0.0,0.0,0.0,0.0,0.0,0.0,0.0,0.0,0.0,0.0,0.0,0.0,0.0,0.0,0.0,0.0,0.0,0.0,0.0,0.0,0.0,0.0,0.0,0.0,0.0,0.0,0.0,0.0,0.0,0.0,0.0,0.0,0.0,0.0,0.0,0.0,0.0,0.0,0.0,0.0,0.0,0.0,0.0,0.0,0.0,0.0,0.0,1.9256,2.1934,2.3965,2.4352,2.4043,2.3789,2.3789,2.1426,1.9746,0.0,0.0,0.0,0.0,0.0,0.0,0.0,0.0,0.0,0.0,0.0,0.0,0.0,0.0,0.0,0.0,0.0,0.0,0.0,0.0,0.0,0.0,0.0,0.0,0.0,0.0,0.0,0.0,0.0,0.0,0.0,0.0,0.0,0.0,0.0,0.0,0.0,0.0,0.0,0.0,0.0,0.0,0.0,0.0,0.0,0.0,0.0,0.0,0.0,0.0,0.0,0.0,0.0,0.0,0.0,0.0,0.0,0.0,0.0,0.0,0.0,0.0,0.0,0.0,0.0,0.0,0.0,0.0,0.0,0.0,0.0,0.0,0.0,0.0,0.0,0.0,0.0,0.0,0.0,0.0,0.0,0.0,0.0,0.0,0.0,0.0,0.0,0.0,0.0,0.0,0.0,0.0,0.0,0.0,0.0,0.0,0.0,0.0,0.0,0.0,0.0,0.0,0.0,1.9629,2.2363,2.4277,2.4391,2.4293,2.4121,2.3809,2.1952,2.0508,1.9785,0.0,0.0,0.0,0.0,0.0,0.0,0.0,0.0,0.0,0.0,0.0,0.0,0.0,0.0,0.0,0.0,0.0,0.0,0.0,0.0,0.0,0.0,0.0,0.0,0.0,0.0,0.0,0.0,0.0,0.0,0.0,0.0,0.0,0.0,0.0,0.0,0.0,0.0,0.0,0.0,0.0,0.0,0.0,0.0,0.0,0.0,0.0,0.0,0.0,0.0,0.0,0.0,0.0,0.0,0.0,0.0,0.0,0.0,0.0,0.0,0.0,0.0,0.0,0.0,0.0,0.0,0.0,0.0,0.0,0.0,0.0,0.0,0.0,0.0,0.0,0.0,0.0,0.0,0.0,0.0,0.0,0.0,0.0,0.0,0.0,0.0,0.0,0.0,0.0,0.0,0.0,0.0,0.0,0.0,0.0,0.0,0.0,0.0,0.0,0.0,0.0,0.0,2.0059,2.2519,2.4238,2.4371,2.4277,2.3984,2.3574,2.1953,2.0664,1.9942,0.0,0.0,0.0,0.0,0.0,0.0,0.0,0.0,0.0,0.0,0.0,0.0,0.0,0.0,0.0,0.0,0.0,0.0,0.0,0.0,0.0,0.0,0.0,0.0,0.0,0.0,0.0,0.0,0.0,0.0,0.0,0.0,0.0,0.0,0.0,0.0,0.0,0.0,0.0,0.0,0.0,0.0,0.0,0.0,0.0,0.0,0.0,0.0,0.0,0.0,0.0,0.0,0.0,0.0,0.0,0.0,0.0,0.0,0.0,0.0,0.0,0.0,0.0,0.0,0.0,0.0,0.0,0.0,0.0,0.0,0.0,0.0,0.0,0.0,0.0,0.0,0.0,0.0,0.0,0.0,0.0,0.0,0.0,0.0,0.0,0.0,0.0,0.0,0.0,0.0,0.0,0.0,0.0,0.0,0.0,0.0,0.0,0.0,0.0,0.0,0.0,0.0,2.041,2.2423,2.3867,2.4235,2.3984,2.3613,2.314,2.1641,2.0508,2.0,0.0,0.0,0.0,0.0,0.0,0.0,0.0,0.0,0.0,0.0,0.0,0.0,0.0,0.0,0.0,0.0,0.0,0.0,0.0,0.0,0.0,0.0,0.0,0.0,0.0,0.0,0.0,0.0,0.0,0.0,0.0,0.0,0.0,0.0,0.0,0.0,0.0,0.0,0.0,0.0,0.0,0.0,0.0,0.0,0.0,0.0,0.0,0.0,0.0,0.0,0.0,0.0,0.0,0.0,0.0,0.0,0.0,0.0,0.0,0.0,1.8769,0.0,0.0,0.0,0.0,0.0,0.0,0.0,0.0,0.0,0.0,0.0,0.0,0.0,0.0,0.0,0.0,0.0,0.0,0.0,0.0,0.0,0.0,0.0,0.0,0.0,0.0,0.0,0.0,0.0,0.0,0.0,0.0,0.0,0.0,0.0,0.0,0.0,0.0,0.0,0.0,0.0,1.9941,2.1974,2.3342,2.3376,2.3633,2.3613,2.314,2.2187,2.129,2.0488,1.9471,0.0,0.0,0.0,0.0,0.0,0.0,0.0,0.0,0.0,0.0,0.0,0.0,0.0,0.0,0.0,0.0,0.0,0.0,0.0,0.0,0.0,0.0,0.0,0.0,0.0,0.0,0.0,0.0,0.0,0.0,0.0,0.0,0.0,0.0,0.0,0.0,0.0,0.0,0.0,0.0,0.0,0.0,0.0,0.0,0.0,0.0,0.0,0.0,0.0,0.0,0.0,0.0,0.0,0.0,0.0,0.0,0.0,0.0,0.0,0.0,2.0037,0.0,0.0,0.0,0.0,0.0,0.0,0.0,0.0,0.0,0.0,0.0,0.0,0.0,0.0,0.0,0.0,0.0,0.0,0.0,0.0,0.0,0.0,0.0,0.0,0.0,0.0,0.0,0.0,0.0,0.0,0.0,0.0,0.0,0.0,0.0,0.0,0.0,0.0,0.0,0.0,2.0137,2.1934,2.3223,2.3437,2.3435,2.3357,2.312,2.2363,2.1602,2.0937,1.9883,0.0,0.0,0.0,0.0,0.0,0.0,0.0,0.0,0.0,0.0,0.0,0.0,0.0,0.0,0.0,0.0,0.0,0.0,0.0,0.0,0.0,0.0,0.0,0.0,0.0,0.0,0.0,0.0,0.0,0.0,0.0,0.0,0.0,0.0,0.0,0.0,0.0,0.0,0.0,0.0,0.0,0.0,0.0,0.0,0.0,0.0,0.0,0.0,0.0,0.0,0.0,0.0,0.0,2.7656,2.8188,2.8973,2.8973,2.9277,2.9581,2.5904,2.3635,2.2462,2.1722,0.0,0.0,0.0,0.0,0.0,0.0,0.0,0.0,0.0,0.0,0.0,0.0,0.0,0.0,0.0,0.0,0.0,0.0,0.0,0.0,0.0,0.0,0.0,0.0,2.1531,2.1054,1.8885,0.0,0.0,0.0,0.0,0.0,0.0,0.0,0.0,0.0,0.0,0.0,2.0546,2.2012,2.3181,2.3633,2.3337,2.3101,2.3101,2.2479,2.1894,2.1366,2.0332,1.9473,0.0,0.0,0.0,0.0,0.0,0.0,0.0,0.0,0.0,0.0,0.0,0.0,0.0,0.0,0.0,0.0,0.0,0.0,0.0,0.0,0.0,0.0,0.0,0.0,0.0,0.0,0.0,0.0,0.0,0.0,0.0,0.0,2.1794,2.1317,0.0,0.0,0.0,0.0,0.0,0.0,0.0,0.0,0.0,0.0,0.0,0.0,0.0,2.6658,2.811,2.9729,3.0608,3.0778,3.2215,3.2763,3.2436,3.2436,3.2736,3.3204,3.2635,0.0,2.6432,2.4883,0.0,0.0,0.0,0.0,0.0,0.0,0.0,0.0,0.0,0.0,0.0,0.0,0.0,0.0,0.0,0.0,0.0,0.0,0.0,0.0,0.0,0.0,2.309,2.2943,2.3193,2.3262,0.0,2.0957,1.9513,1.9043,1.8437,0.0,0.0,0.0,0.0,0.0,0.0,0.0,2.0507,2.1758,2.2732,2.3162,2.314,2.3101,2.3101,2.2984,2.2615,2.1855,2.1661,2.0996,1.9786,1.9297,0.0,0.0,0.0,0.0,0.0,0.0,0.0,0.0,0.0,0.0,0.0,0.0,0.0,0.0,0.0,0.0,0.0,0.0,0.0,0.0,0.0,0.0,0.0,0.0,0.0,0.0,0.0,0.0,0.0,2.2196,2.2924,2.2046,2.3211,2.3386,0.0,0.0,0.0,0.0,0.0,0.0,0.0,0.0,0.0,2.8819,2.9723,3.0854,3.2144,3.3535,3.4502,3.5137,3.5852,3.6418,3.6829,3.6829,3.7098,3.7573,3.6971,3.543,3.3044,2.9505,2.7025,2.536,0.0,0.0,0.0,0.0,2.5025,2.5603,2.6942,2.6555,2.5449,2.5453,0.0,0.0,0.0,0.0,0.0,0.0,0.0,0.0,0.0,0.0,2.4613,2.4926,2.5317,2.5488,2.5102,2.3851,2.2324,0.0,2.0059,1.9571,1.8848,0.0,0.0,0.0,0.0,2.0429,2.1544,2.2578,2.3398,2.3786,2.363,2.3474,2.3474,2.3259,2.2869,2.2285,2.2032,2.1523,2.0664,1.9981,1.9453,0.0,0.0,0.0,0.0,0.0,0.0,0.0,0.0,0.0,0.0,0.0,0.0,0.0,0.0,0.0,0.0,0.0,0.0,0.0,0.0,0.0,0.0,0.0,0.0,0.0,0.0,0.0,0.0,2.3627,2.4481,2.2924,2.4842,2.5243,0.0,0.0,0.0,0.0,0.0,0.0,2.8668,2.9428,3.0809,3.3018,3.4059,3.524,3.662,3.7472,3.8355,3.928,3.9272,3.9667,4.0337,4.0337,4.0465,4.0645,3.9854,3.8938,3.7681,3.341,3.0532,2.8668,2.7537,2.6899,2.6771,2.752,2.7779,2.8081,2.9853,2.924,2.7624,2.7452,2.5879,2.3741,2.2045,0.0,0.0,0.0,0.0,2.2459,2.3649,2.4922,2.6138,2.7018,2.7441,2.7519,2.6992,2.6294,2.5004,0.0,2.1698,2.1152,2.0,0.0,0.0,0.0,2.0527,2.1466,2.2518,2.3418,2.4062,2.4352,2.4043,2.3789,2.3789,2.3357,2.2964,2.2674,2.2383,2.1973,2.1405,2.0644,2.0118,1.9903,0.0,0.0,0.0,0.0,0.0,0.0,0.0,0.0,0.0,0.0,0.0,0.0,0.0,0.0,0.0,0.0,0.0,0.0,0.0,0.0,0.0,0.0,0.0,0.0,0.0,0.0,0.0,0.0,0.0,2.423,2.7702,0.0,0.0,0.0,0.0,2.858,3.0105,3.1557,3.2738,3.3796,3.538,3.7613,3.8277,3.9652,4.1797,4.188,4.219,4.275,4.2752,4.2515,4.2066,4.2066,4.1783,4.1256,4.121,4.0006,3.7904,3.5475,3.3822,3.2688,3.1537,3.1411,3.1622,2.9777,3.0087,3.1103,2.879,2.827,2.8733,2.9336,2.7995,2.6012,2.5354,2.3834,0.0,0.0,2.3909,2.5102,2.5996,2.7168,2.8367,2.9227,2.9461,2.9246,2.8406,2.7878,2.6803,0.0,2.3008,2.2147,2.1269,0.0,2.1073,2.1093,2.1835,2.2557,2.3003,2.3825,2.4371,2.4391,2.4043,2.3789,2.3789,2.3357,2.3081,2.3062,2.3042,2.2693,2.1915,2.1386,2.0762,1.9923,1.9473,0.0,0.0,0.0,0.0,0.0,0.0,0.0,0.0,0.0,0.0,0.0,0.0,0.0,0.0,0.0,0.0,0.0,0.0,0.0,0.0,0.0,0.0,0.0,0.0,0.0,0.0,0.0,0.0,2.9899,3.2512,0.0,3.0909,3.1361,3.2194,3.3075,3.4703,3.6458,3.8266,3.9446,4.0902,4.276,4.2674,4.3141,4.4314,4.3951,4.3846,4.4026,4.4026,4.3917,4.3697,4.2608,4.1843,4.1295,3.9809,3.862,3.7563,3.6387,3.4855,3.3103,3.2079,3.1574,3.1388,3.1123,3.1389,3.1862,3.1612,3.0762,2.949,2.8057,2.6834,2.5879,2.5648,2.5326,2.5098,2.5527,2.6392,2.7285,2.7871,2.8555,2.9227,2.952,2.9598,2.952,2.9207,2.8769,2.8125,2.6914,2.5336,2.3909,2.3027,2.2615,2.244,2.248,2.2756,2.3303,2.4258,2.4672,2.4941,2.521,2.4606,2.4199,2.4199,2.3532,2.2984,2.2732,2.2713,2.248,2.1935,2.1445,2.1054,2.0742,2.004,1.9687,0.0,0.0,0.0,0.0,0.0,0.0,0.0,0.0,0.0,0.0,0.0,0.0,0.0,0.0,0.0,0.0,0.0,0.0,0.0,0.0,0.0,0.0,0.0,0.0,0.0,3.0929,3.3517,3.3894,3.6708,3.7738,3.5504,3.6307,3.7262,3.7965,3.9747,4.1428,4.2908,4.389,4.4903,4.5998,4.5062,4.4769,4.5185,4.4154,4.359,4.3457,4.345,4.3334,4.3115,4.1985,4.1213,4.0686,3.9146,3.8038,3.7265,3.6773,3.5366,3.3555,3.3454,3.3184,3.2884,3.2826,3.2715,3.2575,3.2668,3.1623,2.997,2.8088,2.7168,2.6791,2.6791,2.6986,2.7324,2.7754,2.8398,2.9004,2.9277,2.9687,3.0048,3.0048,3.0048,3.0009,2.9852,2.9434,2.9004,2.8574,2.7154,2.5688,2.4828,2.4434,2.4157,2.4062,2.4023,2.4336,2.5176,2.5293,2.541,2.5679,2.4918,2.4391,2.4391,2.3474,2.2791,2.2539,2.2383,2.2109,2.168,2.1366,2.1152,2.0996,2.0566,2.041,2.0586,0.0,0.0,0.0,0.0,0.0,0.0,0.0,0.0,0.0,0.0,0.0,0.0,0.0,0.0,0.0,0.0,0.0,0.0,0.0,0.0,0.0,0.0,0.0,3.0105,3.4271,3.7009,3.6055,4.0225,4.1882,3.8642,4.1254,4.319,4.319,4.5137,4.6336,4.6336,4.6776,4.7018,4.7026,4.5303,4.4444,4.4578,4.2706,4.16,4.121,4.1219,4.0877,4.0334,4.027,3.9958,3.9441,3.9393,3.8465,3.6992,3.6599,3.5501,3.4243,3.5835,3.648,3.6307,3.4832,3.401,3.3347,3.1522,3.0586,3.0156,2.9774,2.9316,2.8957,2.8957,2.8957,2.9062,2.952,2.9931,3.0215,3.0215,3.0547,3.0898,3.0898,3.0898,3.0762,3.0312,2.9883,2.9481,2.9023,2.8262,2.7448,2.6607,2.6426,2.6289,2.5815,2.5713,0.0,2.5737,2.5718,2.5693,2.5693,2.4937,2.441,2.4391,2.3262,2.2518,2.2498,2.2129,2.1699,2.1229,2.121,2.1035,2.0664,2.1015,2.1445,2.1915,0.0,0.0,0.0,0.0,0.0,0.0,0.0,0.0,0.0,0.0,0.0,0.0,0.0,0.0,0.0,0.0,0.0,0.0,0.0,0.0,0.0,3.2813,3.4899,3.515,3.8441,4.1456,4.3162,4.5246,4.6351,4.5904,4.6657,4.721,4.721,4.7196,4.7145,4.7145,4.6013,4.5341,4.5373,4.4226,4.3623,4.3669,4.2398,4.1738,4.1634,4.132,4.1114,4.0931,3.9639,3.8794,3.8282,3.7028,3.61,3.5336,3.494,3.4509,3.4088,3.3899,3.3842,3.372,3.2684,3.2037,3.16,3.1064,3.082,3.0684,3.0595,3.0449,3.0351,3.0351,3.0351,3.0371,3.0517,3.0605,3.0703,3.0703,3.0801,3.0898,3.0898,3.0898,3.0859,3.0723,3.0126,2.9559,2.9442,2.8738,2.7976,2.7428,2.735,2.7194,2.6713,2.6381,0.0,2.6211,2.5913,2.5693,2.5693,2.5234,2.4766,2.443,2.3809,2.3164,2.2537,2.2402,2.2148,2.1719,2.1699,2.1661,2.1544,2.1641,2.1758,0.0,0.0,0.0,0.0,0.0,0.0,0.0,0.0,0.0,0.0,0.0,0.0,0.0,0.0,0.0,0.0,0.0,0.0,0.0,0.0,0.0,0.0,3.6984,3.9848,4.1783,4.3341,4.5095,4.7405,4.8862,4.9715,4.9848,4.9537,4.9222,4.8943,4.789,4.7202,4.6959,4.5919,4.5252,4.4989,4.354,4.2662,4.2479,4.0941,4.0076,3.9902,3.95,3.9335,3.9269,3.8058,3.7365,3.7055,3.6062,3.5508,3.5215,3.4805,3.4544,0.0,0.0,0.0,0.0,0.0,3.1758,3.1621,3.1074,3.0996,3.1133,3.0937,3.0898,3.0898,3.0898,3.0898,3.0898,3.0898,3.0898,3.0898,3.0898,3.0898,3.0898,3.0898,3.0898,3.0898,3.0898,3.0361,2.9813,2.9637,2.9023,0.0,2.8034,2.7956,2.78,2.7344,2.709,2.6881,2.668,2.6269,2.5991,2.5991,2.5473,2.4906,2.443,2.3845,0.0,0.0,0.0,2.2148,2.1915,2.1915,0.0,0.0,0.0,2.2227,2.2402,0.0,0.0,0.0,2.1934,2.1758,0.0,0.0,0.0,0.0,0.0,0.0,0.0,0.0,0.0,0.0,0.0,0.0,0.0,0.0,0.0,0.0,4.1329,4.4848,4.8567,4.8071,4.7958,4.9658,5.1055,5.1671,5.1196,5.0232,4.9428,4.8885,4.7508,4.6484,4.5967,4.5719,0.0,0.0,0.0,4.154,4.1061,3.9006,3.7773,3.7352,3.6961,3.6773,3.6753,3.6348,3.6133,3.6094,3.6094,3.604,3.5996,3.5566,3.5098,3.4551,3.373,3.3386,3.332,3.257,3.2452,3.248,3.1348,0.0,0.0,3.1016,3.0898,3.0898,3.0898,3.0898,3.0898,3.0898,3.0898,3.0898,3.0898,3.0898,3.0898,3.0898,3.0898,3.0898,3.0898,3.0527,3.0078,2.9735,2.9297,2.8867,2.8437,2.832,2.8164,2.7819,2.7721,2.7545,2.7129,2.6719,2.6445,2.6387,0.0,0.0,2.4531,2.3728,2.3084,2.2676,2.2266,2.2052,2.2052,2.2052,2.2207,2.2557,2.2557,2.2752,2.3101,2.3101,2.3101,2.3081,2.2383,2.2052,0.0,0.0,0.0,0.0,0.0,0.0,0.0,0.0,0.0,0.0,0.0,0.0,0.0,0.0,0.0,4.0803,4.4518,4.7857,5.0476,4.9594,4.9441,5.1406,5.0901,5.0359,5.0263,4.8642,4.7554,4.7404,4.5694,4.4597,4.4512,4.2679,4.1552,4.1454,4.0709,4.0068,3.9625,3.8854,3.8223,3.778,0.0,0.0,3.7168,3.709,3.6875,3.6543,3.6543,3.6348,3.5996,3.5566,3.4922,3.4141,3.3613,3.3386,3.3328,3.2851,3.2285,3.1719,3.1484,3.123,3.0996,3.0918,3.0898,3.0898,3.0898,3.0898,0.0,3.0898,3.0898,3.0898,3.0898,3.0898,3.0898,3.0898,3.0898,3.0898,3.0898,3.0527,3.0176,3.0098,2.9755,2.9324,2.8867,2.8516,2.8262,2.821,2.7917,2.7663,2.7585,2.7168,2.6758,2.6426,2.6255,2.5825,2.5043,2.4473,2.3984,2.3574,2.3123,2.2869,2.2869,2.2869,2.2886,2.2964,2.2984,2.3023,2.3101,2.3101,2.3101,2.3081,2.2925,2.2869,0.0,0.0,0.0,0.0,0.0,0.0,0.0,0.0,0.0,0.0,0.0,3.3248,3.518,0.0,4.1907,4.4999,4.6983,4.8687,5.0416,4.9144,4.8814,5.0819,4.9547,4.8506,4.8506,4.6698,4.5574,4.5574,4.3739,4.2637,4.2637,4.1516,4.084,4.084,4.043,4.0,3.9551,3.9121,3.8672,3.8242,3.7812,3.7617,3.7598,3.7402,3.7187,3.6973,3.6792,3.6577,3.6289,3.5664,3.5254,3.498,3.4316,3.3757,3.3347,3.2949,3.2656,3.2372,3.1992,3.1836,3.1816,3.1631,3.1553,3.1553,3.1553,3.1553,3.1514,3.1269,3.1211,3.1152,3.0937,3.0898,3.0898,3.0898,3.0898,3.0898,3.0898,3.0703,3.0469,3.0234,3.0019,2.9746,2.9316,2.8382,2.7849,2.8252,2.8151,2.8015,2.8015,2.7598,2.6988,2.5992,2.6192,2.5841,2.442,2.4362,2.4293,2.4121,2.3884,2.3669,2.3454,2.3435,2.3337,2.3101,2.3101,2.3101,2.3101,2.3101,2.3101,2.3101,2.3337,2.3318,0.0,0.0,0.0,0.0,0.0,0.0,0.0,2.9578,3.114,3.3348,3.5581,3.799,4.0775,4.3536,4.6105,4.8217,4.8579,4.8812,4.9345,4.7686,4.7029,4.865,4.7431,4.6441,4.6441,4.4677,4.3549,4.3549,4.208,4.1211,4.1211,4.1211,4.1211,4.1211,4.084,4.041,3.9902,3.9531,3.9082,3.8611,3.8223,3.8047,3.8047,3.7695,3.75,3.7383,3.6929,3.6714,3.6636,3.5742,3.5586,3.5786,3.5019,3.4219,3.3516,3.3164,3.3203,3.332,3.2559,3.2492,3.2617,3.2316,3.2198,3.2198,3.2198,3.2198,3.212,3.1738,3.1582,3.1445,3.1094,3.0957,3.0898,3.0898,3.0898,3.0898,3.0898,3.0645,3.0305,2.9911,2.9604,2.9269,2.8852,2.7648,2.7017,2.7867,2.7706,2.7479,2.743,2.7127,2.643,2.5103,2.5456,2.505,2.3245,2.3564,2.3894,2.3998,2.4002,2.3982,2.3926,2.3906,2.375,2.3354,2.3335,2.3335,2.3335,2.3335,2.3335,2.3354,2.375,2.3672,2.5586,2.541,2.6063,2.7978,2.8562,2.9986,0.0,3.6155,3.6885,3.912,4.1354,4.3137,4.3962,4.6426,4.8203,4.771,4.8841,4.9214,4.7577,4.5686,4.449,4.4715,4.4565,4.4414,4.4414,4.2675,4.1502,4.1502,4.1327,4.1211,4.1211,4.1211,4.1211,4.1211,4.1172,4.0723,3.9902,3.9844,3.9394,3.8611,3.8571,3.8496,3.8532,3.8493,3.8223,3.7777,3.7012,3.6714,3.6636,3.5742,3.543,3.541,3.4902,3.4414,3.4036,3.3977,3.3711,3.3359,3.2891,3.255,3.2257,3.2218,3.2198,3.2198,3.2198,3.2198,3.2179,3.214,3.1816,3.1474,3.1435,3.1172,3.0898,3.0898,3.0898,3.0898,3.0898,2.9737,2.8646,2.861,2.7442,2.6315,2.5855,2.564,2.58,2.6741,2.5646,2.4637,2.4345,2.4261,2.4027,2.349,2.3526,2.3058,2.1843,2.1778,2.2055,2.257,2.2628,2.3126,2.429,2.4332,2.4293,2.4254,2.4254,2.4254,2.4254,2.4254,2.4254,2.4254,2.4293,2.4121,2.8549,2.875,2.9428,3.1336,3.3269,3.5479,3.8442,4.0124,4.158,4.3489,4.5397,4.7054,4.8284,4.8764,4.8971,4.8961,4.7601,4.6256,4.5425,4.3397,4.1741,4.0992,4.1376,4.1842,4.2366,4.1695,4.1211,4.1211,4.1211,4.1211,4.1211,4.1211,4.1211,4.1211,4.1211,4.0879,4.0273,4.0254,3.9824,3.8945,3.9219,3.9082,3.8611,3.8828,3.8574,3.7874,3.7559,3.7129,3.6675,3.6323,3.5996,3.5742,3.5547,3.5215,3.4818,3.429,3.3789,3.3367,3.3223,3.3047,3.2891,3.2891,3.2891,3.2891,3.2891,3.2891,3.2851,3.2628,3.2226,3.1836,3.1582,3.0492,2.9442,2.9442,2.8742,2.8068,2.8068,2.7512,2.7013,2.7013,2.647,2.5935,2.574,2.4923,2.437,2.4593,2.4445,2.426,2.4112,2.3926,2.3662,2.3245,2.2391,2.1931,2.2065,2.2078,2.218,2.246,2.2452,2.2603,2.2927,2.2796,2.2567,2.2313,2.2149,2.2067,2.2067,2.2067,2.2067,2.2091,2.2303,2.2321,3.0036,3.1085,3.2516,3.4349,3.7462,4.0401,4.1781,4.3689,4.5499,4.6631,4.8362,4.9798,5.0049,4.9675,4.9133,4.8472,4.5961,4.3866,4.3194,4.1421,3.9726,3.8535,3.875,3.9297,4.0039,4.0644,4.1035,4.1211,4.1211,4.1211,4.1211,4.1211,4.1211,4.1211,4.1211,4.0957,4.0489,4.0489,4.0137,3.9394,3.9726,3.957,3.8945,3.9121,3.8809,3.8105,3.7969,3.7519,3.6871,3.6753,3.6406,3.5982,3.5982,3.5762,3.5312,3.4668,3.4082,3.3594,3.3594,3.3516,3.3386,3.3386,3.3386,3.3386,3.3386,3.3386,3.3308,3.291,3.2173,3.1424,3.0973,2.9303,2.7751,2.7751,2.6862,2.6015,2.6015,2.565,2.5344,2.5344,2.4947,2.464,2.464,2.3683,2.2817,2.2584,2.2991,2.3284,2.3191,2.2892,2.2595,2.2289,2.1217,2.0773,2.1461,2.1511,2.1627,2.1921,2.1947,2.198,2.2065,2.1881,2.162,2.1282,2.1072,2.0933,2.0884,2.0884,2.0819,2.0785,2.1057,2.1197,2.8938,3.1361,3.4349,3.6557,4.0024,4.3467,4.5623,4.7431,4.8583,4.8314,5.0249,5.1009,4.7731,4.8699,4.8735,4.4902,4.4172,4.327,4.093,3.9823,3.8926,3.8047,3.7246,3.6968,3.7383,3.9316,4.0723,4.1191,4.1211,4.1211,4.1211,4.1211,4.1211,4.1211,4.1211,4.0957,4.0489,4.0489,4.0312,3.9883,3.9883,3.9883,3.9844,3.9394,3.8965,3.8535,3.8105,3.7676,3.7246,3.6871,3.6406,3.5982,3.5982,3.5762,3.5391,3.5371,3.4837,3.4095,3.4095,3.3769,3.3386,3.3386,3.3386,3.3386,3.3386,3.3386,3.3308,3.291,3.1344,2.9663,2.9282,2.7639,2.6076,2.6076,2.6045,2.6015,2.6015,2.4778,2.3667,2.3667,2.2372,2.1267,2.1267,2.1204,2.1172,2.1159,2.0967,2.0688,2.0375,2.008,1.9921,1.9891,1.9636,1.9312,1.9016,1.9018,1.9444,2.0493,2.056,2.114,2.2439,2.2476,2.2476,2.246,2.2444,2.2307,2.2067,2.2067,2.1896,2.166,2.1677,2.1677,3.2269,3.5456,3.8994,4.1984,4.5045,4.7857,4.9715,4.9865,4.9483,4.9065,4.7701,4.6162,4.4721,4.3745,4.2829,4.2096,4.16,4.1129,4.0584,4.0019,3.8809,3.6523,3.6738,3.6582,3.5307,3.7109,3.8926,4.0234,4.0332,4.0566,4.1191,4.1211,4.1211,4.1211,4.1211,4.1094,4.0957,4.0957,4.0742,4.0312,4.0019,3.9902,3.9883,3.9414,3.8965,3.8611,3.8418,3.7949,3.7285,3.7148,3.666,3.5982,3.5982,3.5762,3.543,3.5703,3.5078,3.4153,3.4427,3.4023,3.3445,3.375,3.3652,3.3197,3.2027,3.1657,3.1414,3.0112,2.9025,2.8184,2.7858,2.637,2.4903,2.4703,2.3974,2.3295,2.3125,2.2652,2.2215,2.1975,2.1475,2.1109,2.1109,2.1109,2.1109,2.1109,2.0869,2.0575,2.0237,2.0117,2.0064,2.0064,1.997,1.9826,1.9533,1.9506,1.9575,1.9749,1.9763,1.9977,2.0415,2.0214,2.0099,2.0099,1.9926,1.9796,1.9695,1.9695,1.9664,1.9576,1.936,1.9233,3.5857,3.9295,4.2707,4.5874,4.8061,4.9699,5.0792,4.9704,4.8051,4.6598,4.4447,4.2229,4.0073,3.8755,3.8099,3.8435,3.8102,3.8184,3.9219,3.8594,3.7441,3.582,3.5937,3.5664,3.4414,3.5703,3.7402,3.9277,3.9726,4.0195,4.0898,4.1094,4.1211,4.1211,4.1211,4.1211,4.1211,4.1211,4.1035,4.0742,4.0332,4.0039,3.9883,3.9414,3.8965,3.8611,3.8611,3.8184,3.75,3.7363,3.6894,3.623,3.6074,3.5859,3.5644,3.5884,3.5391,3.4603,3.4668,3.4141,3.333,3.304,3.272,3.2155,3.0384,2.9865,2.9602,2.8309,2.7312,2.6566,2.6232,2.4853,2.3497,2.3329,2.2646,2.1937,2.1783,2.1743,2.1689,2.1456,2.1416,2.139,2.1283,2.1176,2.1109,2.1109,2.0949,2.0762,2.0544,2.0424,2.0388,2.0388,2.0264,2.013,1.9973,1.996,1.988,1.9693,1.9679,1.9626,1.9562,1.9332,1.9185,1.9078,1.8905,1.8758,1.8651,1.8651,1.8597,1.849,1.8263,1.8116,3.9572,4.2783,4.5543,4.8165,4.8987,4.9106,4.8954,4.713,4.4568,4.1407,4.0694,3.9108,3.4062,3.4052,3.4658,3.412,3.4173,3.5033,3.7168,3.6035,3.5273,3.6035,3.5039,3.4466,3.4726,3.5234,3.6367,3.8435,3.9336,4.0039,4.0489,4.0957,4.1211,4.1211,4.1211,4.1211,4.1211,4.1211,4.1211,4.1172,4.0723,4.0293,3.9844,3.9394,3.8965,3.8611,3.8611,3.832,3.7816,3.7461,3.7031,3.6636,3.6172,3.5982,3.5982,3.5982,3.5762,3.5332,3.4764,3.4031,3.3065,3.1428,3.0811,3.0372,2.8625,2.8114,2.7982,2.7426,2.6202,2.4925,2.4452,2.3201,2.2044,2.2017,2.2017,2.2031,2.2004,2.2004,2.2004,2.1991,2.1991,2.193,2.1636,2.1355,2.1122,2.1109,2.1109,2.1109,2.1109,2.0869,2.0726,2.0726,2.0441,2.0237,2.0224,2.0224,2.0224,2.0197,2.0197,2.0077,1.9813,1.98,1.9666,1.9401,1.9401,1.9225,1.8916,1.8916,1.8783,1.8558,1.8517,1.8357,4.3237,4.6527,4.8935,4.8985,4.9395,4.9216,4.7081,4.4263,4.1456,3.9007,3.556,3.2218,2.9608,3.0155,3.1478,3.2905,3.5,3.7226,3.9394,3.9316,3.8596,3.7523,3.7441,3.6973,3.5801,3.666,3.75,3.8047,3.8594,3.9531,4.0937,4.1113,4.1211,4.1211,4.1211,4.1211,4.1211,4.1211,4.1016,4.0684,4.0586,4.0117,3.9375,3.9258,3.8965,3.8611,3.8611,3.8144,3.7461,3.7344,3.6855,3.6172,3.6055,3.5982,3.5982,3.5982,3.5762,3.5165,3.34,3.2537,3.2276,3.2116,3.0883,2.9109,2.7142,2.669,2.6519,2.483,2.4275,2.3983,2.3433,2.3147,2.2873,2.2418,2.2472,2.2612,2.2352,2.2311,2.2245,2.2031,2.1991,2.193,2.1636,2.1529,2.1395,2.1149,2.1109,2.1109,2.1109,2.1042,2.1002,2.1002,2.0935,2.0802,2.0588,2.0561,2.0468,2.0224,2.0197,2.0077,1.9813,1.98,1.9666,1.9401,1.9401,1.9361,1.9281,1.9281,1.9241,1.916,1.8918,1.8743,4.6878,4.954,5.1152,4.9846,4.8674,4.6946,4.3501,3.9938,3.6532,3.3605,3.0316,2.7441,2.5723,2.647,2.8008,3.0224,3.291,3.5723,3.8437,3.8828,3.875,3.8516,3.8535,3.8239,3.7226,3.7949,3.8574,3.8769,3.9023,3.9668,4.082,4.1113,4.1211,4.1211,4.1211,4.1211,4.1211,4.1211,4.0957,4.0489,4.0332,3.9883,3.9199,3.9004,3.8789,3.8611,0.0,3.8203,3.7559,3.7363,3.6914,3.6289,3.6094,3.5982,3.5982,3.5982,3.5331,3.4248,3.3002,3.1425,2.9908,2.9561,2.8728,2.7488,2.544,2.5015,2.5031,2.3836,2.3647,2.3696,2.3193,2.3193,2.3172,2.2726,2.2773,2.2853,2.2645,2.2619,2.2565,2.2439,2.2271,2.2124,2.1997,2.1756,2.1529,2.1355,2.1189,2.1109,2.1109,2.1109,2.1109,2.1109,2.1109,2.1042,2.0882,2.0869,2.0788,2.0597,2.0584,2.045,2.0201,2.0054,1.9853,1.9589,1.9468,1.9401,1.9401,1.9401,1.9401,1.9388,1.9199,1.9052,5.0034,5.1716,5.2362,5.0067,4.7189,4.3753,3.9292,3.5159,3.1211,2.7441,2.5644,2.4242,2.2559,2.3437,2.5195,2.7565,3.0,3.2891,3.6616,3.7086,3.7653,3.9258,3.9141,3.8943,3.8884,3.9219,3.9609,3.9961,4.0039,4.0215,4.0586,4.0976,4.1211,4.1211,4.1211,4.1211,4.1211,4.1152,4.0859,4.043,4.0,3.957,3.9101,3.8787,3.8611,3.8611,3.8611,3.8301,3.7777,3.7441,3.7012,3.6577,3.6172,3.5982,3.5982,3.5982,3.4796,3.3152,3.2855,3.0435,2.7311,2.6145,2.5919,2.5807,2.3971,2.3647,2.391,2.387,2.3897,2.3821,2.3492,2.3385,2.3313,2.3027,2.292,2.2893,2.2893,2.2893,2.2893,2.2893,2.2659,2.2472,2.2432,2.2004,2.1689,2.1649,2.1395,2.1162,2.1162,2.1136,2.1109,2.1109,2.1109,2.1109,2.1109,2.1109,2.1109,2.1109,2.1109,2.0975,2.0712,2.0428,2.016,1.9867,1.9613,1.9508,1.9508,1.9468,1.9455,1.9455,1.9415,1.9225,5.1322,5.2352,5.1926,4.7998,4.5502,4.2426,3.6331,3.2135,2.8664,2.5503,2.3848,2.2539,2.1172,2.2832,2.5469,2.8738,3.0849,3.3782,3.8652,3.9004,3.9277,4.0702,4.08,4.0586,4.0215,4.0586,4.0723,4.043,4.0742,4.0976,4.1055,4.1172,4.1211,4.1211,4.1211,4.1211,4.1211,4.082,4.043,4.0,3.9551,3.9101,3.8691,3.865,3.8611,3.8611,3.8611,0.0,3.7402,3.7324,3.6836,3.6133,3.6021,3.5982,3.5982,3.5982,3.4796,3.2942,3.1097,2.9161,2.746,2.7236,2.6135,2.4811,2.4214,2.4262,2.4436,2.4195,2.4302,2.4386,2.4128,2.3875,2.3621,2.3313,2.3046,2.2893,2.2893,2.2893,2.2893,2.2893,2.2853,2.2746,2.2458,2.2338,2.2191,2.1951,2.1689,2.1502,2.1502,2.1256,2.1109,2.1109,2.1109,2.1109,2.1109,2.1109,2.1109,2.1109,2.1109,2.0975,2.0712,2.0628,2.0454,2.013,2.0077,2.005,2.005,1.984,1.972,1.972,1.9508,1.9374,5.2327,5.2154,5.0897,4.6978,4.3327,3.9056,3.3114,2.8887,2.5391,2.2363,2.125,2.0644,2.0038,2.2032,2.4554,2.6881,2.9062,3.2051,3.6562,3.7402,3.8359,4.0566,4.1035,4.1094,4.0879,4.1093,4.1132,4.0879,4.1055,4.1211,4.1211,4.1211,4.1211,4.1211,4.1211,4.1211,4.1211,4.0742,4.0312,3.9883,3.9414,3.8984,3.8611,3.8611,3.8611,3.8591,3.834,3.8008,3.7598,3.7383,3.6934,3.6348,3.6348,3.623,3.5879,3.4918,3.3344,3.1387,2.9351,2.7464,2.6005,2.6005,2.5359,2.4546,2.4289,2.4409,2.4572,2.4426,2.4492,2.4532,2.4275,2.4102,2.3915,2.3634,2.3327,2.306,2.2934,2.2893,2.2893,2.2893,2.2893,2.2853,2.2672,2.2525,2.2378,2.2231,2.1964,2.1756,2.1609,2.1462,2.1283,2.1122,2.1109,2.1109,2.1109,2.1109,2.1109,2.1109,2.1109,2.1042,2.0909,2.0762,2.0615,2.0468,2.0277,2.0197,2.0197,1.9947,1.98,1.98,1.9653,1.9535,5.287,5.1698,4.9652,4.6302,4.1297,3.5867,3.0429,2.6197,2.2599,1.9727,1.9141,1.918,1.9296,2.1133,2.3188,2.4828,2.6855,2.9659,3.3848,3.5273,3.6938,3.9865,4.0801,4.1211,4.1211,4.1211,4.1211,4.1211,4.1211,4.1211,4.1211,4.1211,4.1211,4.1211,4.1211,4.1211,4.1211,4.0644,4.0215,3.9883,3.9336,3.8887,3.8611,3.8611,3.8611,3.8591,3.8223,3.7972,3.7819,3.7077,3.6512,3.6051,3.5613,3.5174,3.459,3.3135,3.1351,2.9508,2.7996,2.621,2.4599,2.4599,2.4599,2.4559,2.4369,2.4412,2.4599,2.4599,2.4599,2.4546,2.4356,2.4249,2.4128,2.387,2.3541,2.3225,2.302,2.2947,2.2893,2.2893,2.2893,2.2893,2.2893,2.2672,2.2512,2.2512,2.2271,2.1991,2.1796,2.1662,2.1515,2.1309,2.1189,2.1109,2.1109,2.1109,2.1109,2.1109,2.1109,2.1109,2.1109,2.0895,2.0806,2.0806,2.0535,2.0384,2.0384,2.0134,1.9987,1.9987,1.992,1.9773,5.2744,5.1195,4.866,4.5439,4.0208,3.4484,2.9105,2.4867,2.1426,1.9142,1.8656,1.8773,1.9219,2.0136,2.1779,2.4633,2.5605,2.7767,3.2801,3.4648,3.6406,3.9023,4.041,4.1211,4.1211,4.1211,4.1211,4.1211,4.1211,4.1211,4.1211,4.1211,4.1211,4.1211,4.1211,4.1211,4.1211,4.0351,3.9941,3.9883,3.9043,3.865,3.8611,3.8611,3.8611,3.8611,3.8535,3.8281,0.0,3.5904,3.4685,3.3889,3.2057,3.1141,3.0805,3.0628,2.9365,2.7744,2.7578,2.621,2.4599,2.4599,2.4599,2.4599,2.4572,2.4572,2.4599,2.4599,2.4599,2.4586,2.4572,2.4359,2.4128,2.387,2.3541,2.3278,2.3252,2.306,2.2893,2.2893,2.2893,2.2893,2.2893,2.288,2.2853,2.2853,2.2565,2.2331,2.2338,2.1917,2.1676,2.1884,2.143,2.1109,2.1109,2.1109,2.1109,2.1109,2.1109,2.1109,2.1109,2.1082,2.1069,2.1069,2.1042,2.1029,2.1029,2.0735,2.0632,2.0619,2.0321,2.0144,4.9844,4.886,4.6671,4.2857,3.7329,3.1773,2.7826,2.3672,2.0312,1.889,1.8403,1.8459,1.9178,1.9589,2.0547,2.2814,2.3064,2.4528,2.8918,3.0206,3.2333,3.6758,3.8203,3.9453,4.1054,4.1211,4.1211,4.1211,4.1211,4.1055,4.0801,4.0781,4.0781,4.0781,4.0781,4.0664,4.041,4.0059,3.9766,3.9473,3.8867,3.8611,3.8611,3.8611,3.8611,3.8591,3.8063,3.8008,0.0,3.5538,3.4487,3.427,3.2213,3.1174,3.07,2.9566,2.8664,2.7851,2.6529,2.556,2.4877,2.4653,2.4599,2.4599,2.4599,2.4599,2.4599,2.4599,2.4599,2.4599,2.4599,2.4519,2.4359,2.4102,2.3808,2.3541,2.3332,2.3086,2.2893,2.2893,2.2893,2.2893,2.2893,2.2893,2.2893,2.2893,2.28,2.2619,2.2445,2.2218,2.2044,2.2024,2.1456,2.1189,2.1395,2.1216,2.1109,2.1109,2.1109,2.1109,2.1109,2.1109,2.1109,2.1109,2.1109,2.1109,2.1109,2.0815,2.0712,2.0699,2.0548,2.0401,4.6453,4.6011,4.4362,4.0446,3.4953,2.9696,2.6523,2.2754,1.961,1.8635,1.8286,1.8401,1.916,1.9413,1.9961,2.1445,2.162,2.2771,2.6147,2.7415,2.9659,3.4128,3.5664,3.7305,3.9823,4.0761,4.1211,4.1211,4.1211,4.0976,4.0547,4.041,4.0332,4.0332,4.0332,4.0177,3.9905,3.9747,3.9551,3.9221,3.8789,3.8611,3.8611,3.8611,3.8496,3.8323,3.7242,3.7047,0.0,3.3992,3.2858,3.2932,3.0782,2.9747,2.9344,2.8026,2.7551,2.7296,2.5756,2.5157,2.505,2.4836,2.4666,2.4599,2.4599,2.4599,2.4599,2.4599,2.4599,2.4599,2.4599,2.4599,2.4546,2.4346,2.4115,2.3821,2.3527,2.322,2.3,2.292,2.2974,2.3,2.2907,2.2974,2.3,2.2907,2.2893,2.2827,2.2579,2.2472,2.2378,2.2291,2.1724,2.1456,2.1703,2.1448,2.1243,2.1243,2.1162,2.1109,2.1109,2.1109,2.1109,2.1109,2.1109,2.1109,2.1109,2.0909,2.0833,2.0833,2.0833,2.0695,4.2982,4.2815,4.186,3.8562,3.3653,2.8699,2.5215,2.2069,1.9532,1.8264,1.8322,1.8752,1.9199,1.9629,2.0176,2.1054,2.1932,2.324,2.5425,2.7552,2.9542,3.1318,3.3066,3.4994,3.7129,3.9668,4.1211,4.1211,4.1211,4.0976,4.0547,4.0137,3.9902,3.9902,3.9902,3.9886,3.9891,3.9419,3.9184,3.9226,3.8791,3.8611,3.8611,3.8611,3.834,3.7806,3.6202,3.5317,0.0,3.0668,2.907,2.8811,2.6492,2.5556,2.5543,2.5543,2.5518,2.5518,2.5504,2.5317,2.5115,2.5115,2.4877,2.4599,2.4599,2.4599,2.4599,2.4599,2.4599,2.4599,2.4599,2.4599,2.4599,2.4599,2.4372,2.4115,2.387,2.3527,2.3233,2.296,2.3113,2.322,2.2947,2.3113,2.322,2.2947,2.2893,2.2893,2.2893,2.2605,2.2525,2.2853,2.2358,2.1977,2.201,2.1743,2.1582,2.1582,2.1269,2.1109,2.1109,2.1109,2.1109,2.1109,2.1109,2.1109,2.1109,2.1109,2.1109,2.1109,2.1109,2.1096,3.6991,3.7127,3.6315,3.2277,2.8435,2.5019,2.2732,2.0547,1.883,1.8127,1.8108,1.8322,1.8752,1.8693,1.9375,2.1698,2.209,2.2832,2.498,2.7129,2.9453,3.209,3.625,3.9236,3.992,4.0684,4.1211,4.1211,4.1211,4.0898,4.0137,3.9961,3.9746,3.9434,3.9414,3.9279,3.9008,3.9123,3.9082,3.8791,3.8652,3.8611,3.8611,3.8611,3.7728,3.622,3.543,3.4255,3.2672,2.9794,2.8626,2.8528,2.6606,2.585,2.5838,2.6039,2.6106,2.6079,2.5917,2.5797,2.565,2.5248,2.5024,2.4903,2.4666,2.4599,2.4599,2.4599,2.4599,2.4599,2.4599,2.4599,2.4599,2.4599,2.4422,2.4128,2.387,2.3736,2.3541,2.3233,2.342,2.3594,2.3536,2.3603,2.3527,2.322,2.318,2.318,2.318,2.2913,2.2846,2.3153,2.2819,2.2532,2.2298,2.1863,2.1582,2.1582,2.1301,2.1109,2.1109,2.1109,2.1109,2.1109,2.1109,2.1109,2.1109,2.1109,2.1109,2.1109,2.1109,2.1109,3.1526,3.2676,3.2479,2.8348,2.5554,2.3222,2.0977,1.9396,1.8264,1.7871,1.8027,1.8286,1.8559,1.8537,1.916,2.1191,2.1581,2.2324,2.4339,2.647,2.9043,3.2402,3.6894,3.9766,3.9941,4.0684,4.1211,4.1211,4.1211,4.0801,3.9941,3.9902,3.9609,3.8984,3.8965,3.8828,3.8611,3.8828,3.8828,3.8611,3.8611,3.8611,3.8611,3.8611,3.738,3.5243,3.4359,3.2703,0.0,2.8228,2.7434,2.7488,2.6284,2.5957,2.6185,2.6319,2.6319,2.6252,2.6185,2.5944,2.5623,2.5331,2.509,2.4877,2.4653,2.4599,2.4626,2.4733,2.4679,2.4626,2.477,2.4679,2.4599,2.4599,2.4466,2.4289,2.3995,2.3928,2.3848,2.3554,2.3728,2.3937,2.383,2.3897,2.3834,2.3541,2.3394,2.3332,2.3474,2.322,2.3113,2.3265,2.3153,2.2913,2.2605,2.2151,2.1917,2.1917,2.1603,2.139,2.1283,2.1269,2.1229,2.1109,2.1109,2.1109,2.1109,2.1109,2.1109,2.1109,2.1109,2.1109,0.0,2.8981,2.9691,2.6053,2.4217,2.2572,1.9754,1.8496,0.0,1.7477,1.7991,1.8539,1.8637,1.8965,1.9394,1.9981,2.0762,2.1913,2.3691,2.5977,2.8848,3.2578,3.5664,3.7617,3.793,3.9883,4.1172,4.1172,4.1172,4.0762,3.9883,3.9824,3.9414,3.8591,3.8532,3.8532,3.8571,3.8571,3.8571,3.8571,3.8591,3.8611,3.8574,3.8465,3.7027,0.0,3.2999,3.0751,2.8071,2.6295,2.5692,2.5944,2.5638,2.5879,2.636,2.6386,2.6238,2.6038,2.6305,2.5812,2.5157,2.5398,2.5104,2.4599,2.4599,2.4599,2.4666,2.4997,2.4863,2.4679,2.5024,2.4877,2.4599,2.4626,2.4613,2.4519,2.4262,2.4222,2.4155,2.3897,2.4035,2.4155,2.391,2.4062,2.4142,2.3884,2.3567,2.3487,2.3803,2.3541,2.3332,2.3345,2.3332,2.3233,2.296,2.2605,2.2385,2.2385,2.2151,2.189,2.1596,2.1582,2.1448,2.1122,2.1109,2.1109,2.1109,2.1109,2.1109,2.1109,2.1109,2.1109,2.2018,0.0,2.2725,2.0403,1.9087,1.8186,0.0,1.7155,1.7093,1.736,1.7539,1.7969,1.8965,1.8691,1.9102,2.1504,2.2049,2.2908,2.4957,2.9074,3.2723,3.5,3.7637,3.9062,3.8476,3.9785,4.0684,4.0684,4.0684,4.0293,3.9414,3.9062,3.8633,3.8086,3.7773,3.7754,3.8066,3.8086,3.8086,3.8086,3.8418,3.8611,3.8538,3.6959,3.5089,3.294,3.0968,2.8762,2.6534,2.6084,2.5758,2.5638,2.5824,2.5971,2.6131,2.6306,2.6238,2.6011,2.6078,2.5772,2.5384,2.5237,2.493,2.4599,2.4599,2.4599,2.4666,2.4997,2.4863,2.4719,2.5277,2.5024,2.4653,2.4917,2.4796,2.4519,2.4262,2.4382,2.4412,2.4155,2.4342,2.4479,2.4412,2.4452,2.4399,2.4142,2.4048,2.4022,2.4088,2.3848,2.3754,2.3968,2.3794,2.3541,2.3247,2.2692,2.2385,2.2385,2.2151,2.189,2.1596,2.1582,2.1448,2.1122,2.1109,2.1109,2.1109,2.1109,2.1109,2.1109,2.1109,2.1109,1.9235,2.014,2.0744,1.8768,1.791,1.7431,1.6841,1.6547,1.6543,1.6992,1.7246,1.7732,1.8771,1.8769,1.9258,2.1289,2.2306,2.3906,2.7051,3.0586,3.3711,3.6035,3.791,3.9043,3.916,3.9824,4.0234,4.0234,4.0234,3.9922,3.9238,3.8809,3.8379,3.7894,3.7324,3.7207,3.7637,3.7637,3.7637,3.7637,3.7871,3.7988,3.7952,3.685,3.5193,3.3186,3.1189,2.8995,2.6814,2.5927,2.5503,2.5344,2.5638,2.5877,2.6011,2.6172,2.6038,2.5758,2.5758,2.5558,2.5264,2.497,2.477,2.4599,2.4599,2.4693,2.4903,2.5197,2.5064,2.497,2.5558,2.5277,2.4917,2.5211,2.505,2.4796,2.4636,2.473,2.4756,2.4426,2.4492,2.4599,2.4599,2.4599,2.4546,2.4422,2.4289,2.4249,2.4382,2.4155,2.4035,2.4182,2.4062,2.3848,2.3554,2.31,2.2779,2.2632,2.2472,2.2291,2.1997,2.1984,2.1783,2.1355,2.1443,2.1376,2.1109,2.1243,2.1243,2.1109,2.1109,2.1109,1.7942,1.956,2.0866,1.8659,1.8217,1.8006,1.6876,1.6328,1.6226,1.6703,1.7168,1.7773,1.8732,1.9238,1.9843,2.0918,2.2658,2.5321,2.9422,3.1494,3.3567,3.6206,3.7383,3.8418,3.9414,3.9668,3.9785,3.9785,3.9726,3.9492,3.9043,3.8555,3.8125,3.7734,3.6973,3.6773,3.7109,3.7168,3.7207,3.7207,3.7266,3.7305,3.7305,3.6968,3.5704,3.3658,0.0,0.0,2.7407,2.5807,2.5144,2.517,2.5411,2.5665,2.5931,2.5931,2.5705,2.5438,2.5398,2.5224,2.497,2.4679,2.4599,2.4599,2.4599,2.4836,2.5144,2.5424,2.5331,2.5315,2.5904,2.5623,2.5224,2.5504,2.5358,2.513,2.5128,2.5115,2.501,2.4719,2.4666,2.4679,2.4733,2.4693,2.4666,2.4666,2.4462,2.4356,2.4572,2.4386,2.4262,2.4262,2.4262,2.4155,2.3897,2.3607,2.3327,2.3054,2.2947,2.276,2.2398,2.2378,2.2124,2.1662,2.189,2.1737,2.1243,2.1529,2.1515,2.1243,2.1203,2.1176,1.8587,1.9348,1.9339,1.6583,1.6454,1.6841,1.6316,1.6144,1.632,1.7125,1.7617,1.8398,1.9999,2.0351,2.1035,2.299,2.5395,2.8132,3.1358,3.3242,3.4629,3.5488,3.7305,3.8262,3.7754,3.8672,3.9316,3.9316,3.8984,3.8594,3.8108,3.7383,3.6968,3.691,3.6387,3.6152,3.6177,3.6582,3.6792,3.6812,3.7129,3.7305,3.7234,3.5472,3.3622,3.1713,0.0,2.7711,2.5857,2.5552,2.5451,2.5451,2.5491,2.5545,2.5585,2.5585,2.5398,2.5117,2.4863,2.4706,2.4653,2.4613,2.4599,2.4599,2.4599,2.4836,2.5144,2.5424,2.5478,2.5585,2.6172,2.5892,2.5518,2.585,2.5665,2.5384,2.513,2.5115,2.5064,2.5024,2.501,2.509,2.5331,2.517,2.501,2.501,2.4756,2.4546,2.4586,2.4559,2.4532,2.4532,2.4532,2.4412,2.4155,2.4088,2.3941,2.3683,2.3174,2.276,2.2398,2.2178,2.2004,2.1957,2.1964,2.1937,2.1844,2.1897,2.1897,2.1844,2.1636,2.1515,1.8045,1.8331,1.8145,1.6813,1.7464,1.8264,1.7598,1.7285,1.738,1.8259,1.8555,1.9256,2.0977,2.1857,2.3342,2.6431,2.8132,2.9844,3.2218,3.3184,3.418,3.5566,3.6601,3.7402,3.793,3.8301,3.8613,3.8848,3.8262,3.7891,3.7894,3.7129,3.6714,3.6714,3.625,3.5982,3.5982,3.6211,3.6328,3.6328,3.6523,3.6601,3.6567,3.5626,3.4134,3.2256,0.0,2.8328,2.6503,2.5436,2.4999,2.5013,2.5211,2.5277,2.5277,2.5277,2.509,2.4823,2.4653,2.4599,2.4599,2.4599,2.4599,2.4599,2.4599,2.4957,2.5344,2.5478,2.5625,2.5852,2.6279,2.6079,2.5864,2.6158,2.5998,2.5757,2.5623,2.5596,2.5543,2.5344,2.5317,2.5358,2.5491,2.5277,2.5115,2.5115,2.4823,2.4599,2.4599,2.4783,2.481,2.4613,2.4746,2.4756,2.4426,2.4289,2.4008,2.3554,2.3273,2.2979,2.2672,2.2559,2.2412,2.2218,2.2378,2.2331,2.1991,2.2151,2.2138,2.201,2.1877,2.1743,1.7698,1.7722,1.7516,1.7419,1.8437,1.9415,1.9241,1.881,1.8789,1.998,2.0293,2.0762,2.2111,2.3633,2.5786,2.907,3.0302,3.1367,3.3008,3.3418,3.4238,3.6094,3.6372,3.6973,3.8301,3.8125,3.8027,3.8298,3.7578,3.7285,3.7617,3.6914,3.6558,3.6558,3.6191,3.5942,3.5879,3.5879,3.5918,3.5982,3.5982,3.5982,3.5982,3.5553,3.4314,3.242,3.0487,2.8593,2.6721,2.5212,2.4599,2.4626,2.489,2.497,2.497,2.497,2.4836,2.4599,2.4599,2.4599,2.4599,2.4599,2.4599,2.4613,2.4679,2.5066,2.5531,2.5598,2.5864,2.6145,2.6333,2.6265,2.6158,2.6333,2.6265,2.6078,2.6011,2.5998,2.5931,2.5665,2.5611,2.5638,2.5705,2.5478,2.5329,2.5329,2.5037,2.4773,2.4719,2.4943,2.497,2.4639,2.4836,2.489,2.4613,2.4399,2.4088,2.3532,2.3372,2.3193,2.2907,2.2974,2.2832,2.2525,2.2786,2.2679,2.2224,2.2418,2.2405,2.2224,2.2124,2.1964,1.8422,1.8385,1.7871,1.7497,1.7773,1.8635,2.0566,2.0371,2.0371,2.2482,2.3225,2.3496,2.3633,2.5727,2.7897,2.9364,3.1269,3.3066,3.4375,3.5273,3.6152,3.709,3.7559,3.7796,3.7933,3.7913,3.7773,3.7422,3.6973,3.6773,3.6792,3.6328,3.604,3.604,3.6001,3.584,3.5449,3.543,3.5625,3.5982,3.5982,3.5982,3.5947,3.4211,3.2351,3.0416,2.8521,2.6612,2.4821,2.4673,2.4599,2.4599,2.4626,2.4639,2.4639,2.4639,2.4613,2.4599,2.4599,2.4599,2.4599,2.4599,2.4599,2.4653,2.497,2.5264,2.5571,2.5891,2.6172,2.636,2.6386,2.6373,2.636,2.6386,2.6373,2.6279,2.6051,2.5998,2.5984,2.5971,2.5957,2.6051,2.6279,2.6118,2.5931,2.5931,2.5638,2.5358,2.5077,2.5101,2.497,2.4639,2.4613,2.4626,2.4599,2.4586,2.4439,2.4155,2.3599,2.3193,2.2907,2.314,2.3153,2.2867,2.288,2.288,2.284,2.2853,2.2853,2.2827,2.2512,2.2378,1.7305,1.7707,1.801,1.8127,1.8887,1.9883,2.0957,2.1776,2.2793,2.4434,2.5312,2.5879,2.6177,2.7682,2.9383,3.0967,3.257,3.4043,3.5332,3.5767,3.625,3.6836,3.7051,3.7246,3.75,3.7305,3.7187,3.7285,3.666,3.6269,3.6269,3.5859,3.5508,3.5215,3.5195,3.5117,3.4961,3.4961,3.5039,3.5195,3.5195,3.4864,3.4227,3.3041,3.096,2.82,2.7307,2.5862,2.4102,2.4102,2.4209,2.4382,2.4532,2.4492,2.4382,2.4532,2.4599,2.4599,2.4599,2.4599,2.4599,2.4599,2.4599,2.4653,2.4997,2.5277,2.5571,2.5917,2.6198,2.6386,2.6386,2.6386,2.6386,2.6386,2.6386,2.636,2.6292,2.6265,2.6265,2.6265,2.6265,2.6305,2.6373,2.6185,2.5998,2.5998,2.5705,2.5411,2.5117,2.5436,2.5371,2.4666,2.4599,2.4599,2.4599,2.4439,2.4315,2.4209,2.3995,2.3741,2.3469,2.3576,2.3541,2.3469,2.3247,2.3153,2.3153,2.2987,2.2893,2.2893,2.2786,2.2592,1.6497,1.7042,1.7698,1.8127,1.9414,2.0918,2.2148,2.3457,2.4883,2.6576,2.7207,2.7598,2.8191,2.9012,3.0165,3.1925,3.3391,3.4687,3.5859,3.5982,3.6172,3.6656,3.6714,3.6812,3.707,3.6719,3.6523,3.668,3.6016,3.5605,3.5605,3.5332,3.5019,3.4707,3.4707,3.4629,3.4492,3.4492,3.4492,3.4492,3.4219,3.3671,3.2808,3.1673,2.9609,2.6838,2.6047,2.5003,2.3803,2.3803,2.3924,2.4102,2.4382,2.4382,2.4235,2.4492,2.4599,2.4599,2.4599,2.4599,2.4599,2.4599,2.4666,2.481,2.5024,2.5277,2.5558,2.5758,2.5959,2.6106,2.6106,2.6253,2.6386,2.6386,2.6386,2.6386,2.6386,2.6386,2.636,2.6266,2.6333,2.636,2.6305,2.6198,2.6131,2.6131,2.5919,2.5692,2.5436,2.5743,2.569,2.4863,2.4653,2.4639,2.4733,2.4502,2.4382,2.4476,2.4396,2.4168,2.3817,2.3897,2.3897,2.3803,2.3474,2.3292,2.3292,2.302,2.2893,2.2893,2.2893,2.2786,1.6385,1.6598,1.684,1.7285,1.904,2.1427,2.4441,2.543,2.6459,2.909,2.8933,2.8574,2.9461,2.9618,3.0185,3.1925,3.3625,3.5,3.5845,3.5982,3.6172,3.6636,3.6695,3.6695,3.6695,3.6269,3.584,3.541,3.4961,3.4707,3.4687,3.4687,3.4687,3.4687,3.4668,3.4473,3.4095,3.4095,3.4095,3.4075,3.3184,3.2549,3.2031,3.0072,2.8225,2.6454,2.4579,2.3803,2.3803,2.3803,2.3803,2.383,2.4088,2.4209,2.4235,2.4492,2.4599,2.4599,2.4599,2.4599,2.4599,2.4599,2.4836,2.5115,2.5115,2.5277,2.5504,2.5518,2.5518,2.5518,2.5518,2.5945,2.6386,2.6386,2.6386,2.6386,2.6386,2.6386,2.6306,2.6051,2.6225,2.6346,2.6051,2.6238,2.6386,2.6386,2.6386,2.6279,2.6038,2.5998,2.577,2.5144,2.4823,2.4756,2.505,2.481,2.4733,2.5064,2.4796,2.4382,2.3843,2.4062,2.4075,2.3817,2.3487,2.3305,2.3292,2.302,2.2893,2.2893,2.2893,2.2893,1.5994,1.666,1.7796,1.8535,2.082,2.342,2.5532,2.6328,2.7435,3.0351,3.0508,3.0195,3.0478,3.0742,3.1309,3.2422,3.3535,3.457,3.5449,3.5586,3.5508,3.5312,3.5293,3.5293,3.5293,3.5176,3.5039,3.4922,3.4766,3.457,3.431,3.3965,3.3672,3.3379,3.3066,3.2883,3.2765,3.2765,3.2765,3.2765,3.1294,3.0409,3.0004,2.861,2.6656,2.4247,2.3498,2.3161,2.3188,2.3367,2.3327,2.3241,2.3928,2.4075,2.3928,2.4222,2.4329,2.4329,2.4329,2.4329,2.4369,2.4532,2.4653,2.481,2.5024,2.5144,2.5251,2.5451,2.5518,2.5518,2.5518,2.5638,2.5772,2.5772,2.6092,2.6333,2.6172,2.6279,2.636,2.6319,2.6333,2.636,2.6319,2.6333,2.6386,2.6386,2.6386,2.6279,2.6038,2.5636,2.5315,2.5141,2.4997,2.4983,2.5077,2.5184,2.5197,2.5128,2.4997,2.4783,2.4396,2.4426,2.4426,2.4346,2.4088,2.3848,2.3634,2.334,2.3193,2.3193,2.3193,2.3193,1.6043,1.6937,1.8401,2.0137,2.2324,2.4629,2.6875,2.8125,2.9473,3.1767,3.168,3.125,3.1582,3.1582,3.1855,3.2871,3.3633,3.4349,3.5019,3.5117,3.5019,3.4726,3.4707,3.4707,3.4707,3.4394,3.4199,3.4199,3.3887,3.3625,3.3352,3.3066,3.2812,3.2559,3.2335,3.2198,3.2198,3.2198,3.2198,3.2168,3.0334,2.9091,2.8328,2.6954,2.5054,2.2792,2.2712,2.2786,2.2907,2.306,2.3067,2.296,2.3594,2.3754,2.3634,2.3928,2.4035,2.4035,2.4035,2.4102,2.4235,2.4372,2.4586,2.4823,2.489,2.4983,2.5128,2.5144,2.5133,2.5133,2.5133,2.5251,2.5398,2.5638,2.5959,2.6238,2.6185,2.6305,2.636,2.6239,2.6306,2.636,2.6279,2.6319,2.6386,2.6386,2.6386,2.6319,2.6185,2.5757,2.5422,2.5264,2.5251,2.5251,2.5251,2.5411,2.5438,2.5264,2.5144,2.4943,2.4613,2.4599,2.4599,2.4599,2.4356,2.4115,2.3977,2.3647,2.35,2.35,2.35,2.35,1.6449,1.7425,1.883,2.1854,2.3769,2.562,2.8469,3.0342,3.1806,3.2938,3.2333,3.1875,3.2656,3.2187,3.209,3.3281,3.3809,3.4231,3.459,3.4648,3.4629,3.459,3.4551,3.4531,3.4531,3.3789,3.3269,3.3269,3.2598,3.2198,3.2198,3.2159,3.214,3.214,3.2101,3.2081,3.2081,3.2081,3.2081,3.2051,2.9866,2.8197,2.6928,2.5306,2.3623,2.2004,2.2298,2.2565,2.2853,2.288,2.2893,2.2934,2.3207,2.3292,2.3332,2.3634,2.3763,2.3763,2.3763,2.3901,2.4128,2.4182,2.4569,2.4957,2.4679,2.4823,2.4983,2.4679,2.4599,2.4599,2.4599,2.4836,2.5184,2.5784,2.5957,2.6065,2.6253,2.6346,2.6306,2.6091,2.6252,2.6306,2.6078,2.6252,2.6386,2.6386,2.6386,2.6373,2.636,2.6158,2.5864,2.5504,2.5518,2.5545,2.5518,2.5558,2.5571,2.5518,2.5264,2.497,2.4613,2.4599,2.4599,2.4599,2.4382,2.4222,2.4209,2.3977,2.3843,2.3843,2.3843,2.3843,1.707,1.8123,1.9727,2.2754,2.6016,2.8906,3.0557,3.122,3.1504,3.1445,3.2012,3.2578,3.2754,3.291,3.3223,3.386,3.4036,3.4134,3.4231,3.4251,3.4082,3.373,3.3398,3.3203,3.3203,3.2734,3.2472,3.2472,3.2296,3.2198,3.2198,3.1836,3.166,3.166,3.1348,3.1201,3.1201,3.1201,3.1201,3.1142,2.8108,2.6499,2.6201,2.4779,2.3357,2.2004,2.2298,2.2458,2.2539,2.28,2.2893,2.2934,2.3207,2.3292,2.3305,2.3394,2.342,2.342,2.342,2.346,2.3559,2.4048,2.4289,2.4422,2.4546,2.4639,2.4679,2.4613,2.4599,2.4599,2.4599,2.4653,2.4823,2.5184,2.5663,2.5944,2.5745,2.6066,2.6373,2.6306,2.6346,2.6373,2.6306,2.6346,2.6386,2.6386,2.6386,2.6306,2.6118,2.6038,2.5797,2.5224,2.5623,2.581,2.5531,2.5932,2.5999,2.5545,2.5451,2.5184,2.4626,2.4599,2.4599,2.4599,2.4532,2.4399,2.4209,2.4142,2.4115,2.4115,2.4115,2.4115,1.7402,1.8787,2.0801,2.4434,2.7461,2.9833,3.0684,3.0879,3.0879,3.0898,3.1738,3.2559,3.2754,3.2969,3.3203,3.3449,3.3633,3.3691,3.3496,3.3489,3.3379,3.3144,3.2754,3.2531,3.2531,3.2109,3.1855,3.1855,3.171,3.1592,3.1592,3.1348,3.1211,3.1211,3.0996,3.0898,3.0898,3.0898,3.0499,2.9678,2.7194,2.5192,2.3621,2.2938,2.2318,2.1823,2.197,2.2084,2.2231,2.2525,2.2645,2.2686,2.2979,2.31,2.31,2.31,2.31,2.31,2.31,2.3207,2.3372,2.3848,2.4088,2.4262,2.4519,2.4599,2.4599,2.4599,2.4599,2.4599,2.4599,2.4599,2.4639,2.4836,2.5211,2.561,2.5692,2.5998,2.6265,2.636,2.6386,2.6386,2.6386,2.6386,2.6386,2.6386,2.6386,2.6333,2.6225,2.6198,2.6038,2.5583,2.5931,2.6078,2.5784,2.6038,2.6024,2.5545,2.5384,2.5104,2.4613,2.4599,2.4599,2.4599,2.4599,2.4519,2.4372,2.4372,2.4372,2.4372,2.4372,2.4372,1.7425,1.9489,2.2096,2.6006,2.8269,2.959,3.0017,3.0087,3.0195,3.0586,3.1406,3.2198,3.2519,3.2637,3.2695,3.2695,3.2988,3.3086,3.2734,3.2695,3.2695,3.2695,3.2335,3.2081,3.2081,3.166,3.1406,3.1406,3.1094,3.0898,3.0898,3.0898,3.0898,3.0898,3.0898,3.0859,3.0762,3.0762,3.0063,2.8582,2.6756,2.4193,2.1042,2.1082,2.1243,2.1515,2.1569,2.1729,2.1937,2.2218,2.2378,2.2445,2.2719,2.2853,2.2893,2.2893,2.2893,2.2893,2.2893,2.3067,2.33,2.3594,2.3888,2.4182,2.4439,2.4559,2.4599,2.4599,2.4599,2.4599,2.4599,2.4599,2.4599,2.4599,2.4823,2.5157,2.573,2.5877,2.6011,2.6305,2.636,2.6386,2.6386,2.6386,2.6386,2.6386,2.6386,2.6386,2.6386,2.6386,2.6319,2.6024,2.6252,2.6266,2.6024,2.6038,2.5917,2.5531,2.5291,2.4997,2.4613,2.4599,2.4599,2.4599,2.4599,2.4599,2.4599,2.4599,2.4599,2.4599,2.4599,2.4599,1.709,2.0365,2.3954,2.6369,2.8002,2.9116,2.9577,2.9698,2.9696,2.9755,3.0742,3.1621,3.165,3.1992,3.2276,3.2276,3.2335,3.2355,3.2296,3.2276,3.2276,3.2276,3.1875,3.1572,3.1572,3.123,3.0976,3.0976,3.0918,3.0898,3.0898,3.0898,3.0898,3.0898,3.0898,3.0703,3.0293,3.0293,3.0012,2.9417,2.6701,2.3748,2.0766,2.0989,2.1136,2.1189,2.1475,2.1609,2.1662,2.1924,2.2191,2.2385,2.2458,2.2632,2.2893,2.2893,2.2893,2.2893,2.2893,2.292,2.3014,2.3287,2.3581,2.3888,2.4168,2.4436,2.4599,2.4599,2.4599,2.4599,2.4599,2.4599,2.4599,2.4599,2.4626,2.4783,2.5117,2.5398,2.5665,2.5998,2.6252,2.6386,2.6386,2.6386,2.6386,2.6386,2.6386,2.6386,2.6386,2.6386,2.6319,2.6024,2.6252,2.6266,2.6024,2.6225,2.6092,2.5545,2.5478,2.5173,2.4626,2.4599,2.4599,2.4599,2.4599,2.4599,2.4599,2.4599,2.4599,2.4599,2.4599,2.4599,1.8501,2.0717,2.2983,2.5622,2.69,2.7721,2.8662,2.9047,2.9277,2.954,3.0048,3.0586,3.1074,3.1523,3.1797,3.1797,3.2042,3.212,3.1836,3.1797,3.1797,3.1797,3.1426,3.1172,3.1172,3.0762,3.0605,3.0879,3.0458,3.0282,3.0488,3.0273,3.0185,3.0185,3.0185,3.0087,2.9872,2.9872,2.8908,2.6932,2.3882,2.1726,2.0441,2.0735,2.0949,2.1122,2.1243,2.1309,2.1323,2.1649,2.185,2.1964,2.2298,2.2498,2.2632,2.284,2.2893,2.2893,2.2893,2.2893,2.2947,2.322,2.342,2.3581,2.3875,2.4168,2.4396,2.4396,2.4479,2.4599,2.4599,2.4599,2.4599,2.4599,2.4599,2.4679,2.5024,2.5304,2.5651,2.6145,2.6306,2.6386,2.6386,2.6386,2.6386,2.6386,2.6386,2.6386,2.6386,2.6386,2.6333,2.6252,2.6319,2.6333,2.6252,2.6012,2.5785,2.5531,2.5358,2.5157,2.489,2.4999,2.5013,2.489,2.4679,2.4599,2.4599,2.4599,2.4599,2.4599,2.4599,2.4599,1.884,2.0067,2.1185,2.3892,2.5157,2.6084,2.7341,2.797,2.8398,2.8855,2.9129,2.9481,3.0098,3.0762,3.1191,3.1191,3.1562,3.1768,3.1406,3.1367,3.1309,3.1162,3.0898,3.0664,3.0595,3.0234,3.0176,3.0527,2.997,2.9735,3.0019,2.9774,2.9598,2.9598,2.9598,2.954,2.9422,2.8964,2.7342,2.4602,2.1935,2.0468,2.0104,2.0428,2.0722,2.1002,2.1082,2.1109,2.1122,2.1381,2.1515,2.1622,2.2031,2.2285,2.2445,2.2672,2.2827,2.2893,2.2893,2.2893,2.2934,2.314,2.3225,2.3332,2.3594,2.3915,2.4209,2.4209,2.4372,2.4599,2.4599,2.4599,2.4599,2.4599,2.4599,2.4679,2.5024,2.5371,2.5758,2.6199,2.6333,2.6386,2.6386,2.6386,2.6386,2.6386,2.6386,2.6386,2.6386,2.6386,2.6386,2.6386,2.6386,2.6386,2.6386,2.5985,2.5705,2.5625,2.5424,2.5302,2.5197,2.5398,2.5371,2.5128,2.4863,2.4679,2.4599,2.4599,2.4599,2.4599,2.4599,2.4599,1.6617,1.7794,1.9181,2.0965,2.2707,2.4282,2.5545,2.6211,2.6641,2.707,2.7793,2.8379,2.8418,2.9434,3.0273,3.0273,3.0644,3.0957,3.0918,3.0918,3.0762,3.0312,3.0254,3.0078,2.9696,2.9637,2.9637,2.9676,2.9618,2.9618,2.9637,2.9618,2.9598,2.9598,2.9598,2.9403,2.8918,2.7158,2.5459,2.3832,2.2534,2.1159,1.9826,2.009,2.0414,2.0739,2.0989,2.1109,2.1109,2.1122,2.1296,2.1582,2.1622,2.1937,2.2385,2.2432,2.2619,2.2893,2.2893,2.2893,2.2893,2.292,2.3086,2.3292,2.3305,2.3754,2.4209,2.4209,2.4372,2.4599,2.4599,2.4599,2.4599,2.4599,2.4599,2.4679,2.5024,2.5569,2.5984,2.6011,2.6238,2.6386,2.6386,2.6386,2.6386,2.6386,2.6386,2.6386,2.6386,2.6386,2.6386,2.6386,2.6386,2.6386,2.6386,2.636,2.6226,2.5998,2.5957,2.5824,2.5504,2.5504,2.5371,2.5128,2.5064,2.4917,2.4599,2.4599,2.4599,2.4599,2.4599,2.4599,1.6828,1.7252,1.7929,2.0244,2.171,2.2849,2.3814,2.5036,2.5991,2.6147,2.666,2.7148,2.7422,2.875,2.9813,2.9813,3.0156,3.0351,3.0106,3.0302,3.0293,2.9872,2.9813,2.9755,2.9618,2.9316,2.9277,2.9579,2.909,2.8894,2.9141,2.8906,2.8777,2.8777,2.8777,2.8672,2.8516,2.5926,2.4367,2.3766,2.1434,2.006,1.9562,1.9826,2.0013,2.0134,2.0414,2.0731,2.1109,2.1109,2.1176,2.1283,2.1515,2.1716,2.1943,2.2285,2.2485,2.2605,2.2827,2.2893,2.2893,2.2893,2.2974,2.3033,2.3033,2.3447,2.3928,2.3928,2.4262,2.4599,2.4599,2.4599,2.4599,2.4599,2.4746,2.4997,2.5291,2.5518,2.5785,2.6159,2.6319,2.6386,2.6386,2.6386,2.6386,2.6386,2.6386,2.6386,2.6386,2.6386,2.6386,2.6386,2.6386,2.6386,2.6386,2.6265,2.6105,2.5998,2.5998,2.5864,2.5518,2.5879,2.5852,2.5371,2.5358,2.5117,2.4599,2.4599,2.4693,2.4917,2.4693,2.4799,1.6477,1.6617,1.7005,1.9189,2.0148,2.0918,2.2186,2.3493,2.4508,2.4758,2.5449,2.6099,2.6479,2.7637,2.8679,2.909,2.9609,2.9911,2.9637,2.9833,2.9824,2.9422,2.9383,2.9324,2.9188,2.8887,2.8828,2.9149,2.864,2.8418,2.8691,2.8437,2.8301,2.8301,2.8191,2.8112,2.8112,2.4973,2.3497,2.3557,2.0629,1.9294,1.9401,1.9559,1.9706,1.9813,1.997,2.0414,2.0962,2.0962,2.1029,2.1122,2.1355,2.1502,2.1636,2.1991,2.2191,2.2311,2.2605,2.2712,2.276,2.2867,2.2893,2.2893,2.2893,2.3255,2.3683,2.3777,2.4115,2.4479,2.4572,2.4599,2.4599,2.4599,2.4783,2.501,2.5304,2.5451,2.5692,2.6279,2.6306,2.6279,2.6373,2.6386,2.6386,2.6386,2.6386,2.6386,2.6386,2.6386,2.6386,2.6386,2.6386,2.6386,2.6386,2.6252,2.6145,2.6145,2.6145,2.6012,2.5812,2.6186,2.6159,2.5678,2.5665,2.5371,2.4783,2.4783,2.4836,2.493,2.4836,2.4906,0.0,0.0,0.0,1.7623,1.7952,1.8537,2.0625,2.1504,2.207,2.2908,2.4102,2.516,2.5581,2.6055,2.6758,2.8008,2.8992,2.9559,2.9559,2.9579,2.9422,2.8918,2.8859,2.8711,2.8301,2.8262,2.8262,2.8262,2.8262,2.8262,2.8262,2.8262,2.8262,2.8262,2.7878,2.7682,2.7682,2.4368,2.2877,2.3157,2.0299,1.9078,1.9401,1.9401,1.9548,1.9786,1.9786,2.012,2.0686,2.0686,2.0828,2.1096,2.1096,2.1283,2.1569,2.1614,2.1756,2.2017,2.2311,2.2385,2.2472,2.28,2.2893,2.2893,2.2893,2.3086,2.338,2.3674,2.3968,2.4275,2.4519,2.4599,2.4599,2.4599,2.4599,2.4679,2.5024,2.5291,2.5665,2.6266,2.6185,2.6091,2.6333,2.6386,2.6386,2.6386,2.6386,2.6386,2.6386,2.6386,2.6386,2.6386,2.6386,2.6386,2.6386,2.6386,2.6386,2.6386,2.6386,2.6386,2.6373,2.6386,2.6253,2.5998,2.5998,2.5717,2.5141,2.5128,2.493,2.4626,2.4957,2.4943,1.5396,0.0,0.0,0.0,0.0,0.0,1.8674,1.9688,2.0801,2.1992,2.2754,2.3535,2.4567,2.5137,2.5688,2.6303,2.7676,2.8652,2.8652,2.8906,2.8828,2.8132,2.8034,2.7851,2.7402,2.7363,2.7363,2.7363,2.7363,2.7363,2.7363,2.7363,2.7363,2.7363,2.7246,2.7187,2.7187,2.4219,2.2877,2.3157,2.0299,1.9078,1.9401,1.9401,1.9441,1.9522,1.9522,1.9722,2.0054,2.0267,2.0535,2.0802,2.0802,2.1007,2.1256,2.1502,2.1636,2.1783,2.2245,2.2385,2.2472,2.28,2.2893,2.2893,2.2893,2.3086,2.3305,2.342,2.3808,2.4275,2.4519,2.4599,2.4599,2.4599,2.4599,2.4679,2.5024,2.497,2.5117,2.5957,2.6051,2.6091,2.6333,2.6386,2.6386,2.6386,2.6386,2.6386,2.6386,2.6386,2.6386,2.6386,2.6386,2.6386,2.6386,2.6386,2.6386,2.6386,2.6386,2.6293,2.6131,2.6319,2.6253,2.5998,2.5998,2.5917,2.5757,2.5329,2.5037,2.497,2.5516,2.5558,0.0,0.0,1.5552,1.6191,0.0,0.0,1.7776,1.8576,1.9434,2.0586,2.129,2.1992,2.2908,2.3594,2.4199,2.4801,2.6211,2.7344,2.7715,2.7969,2.7949,2.7441,2.7428,2.7285,2.7031,2.6986,2.6986,2.6986,2.6986,2.6986,2.6986,2.6986,2.6986,2.6986,2.6836,2.6758,2.6758,2.3789,2.2458,2.2714,2.0013,1.8891,1.9185,1.9348,1.9401,1.9401,1.9401,1.9495,1.9669,1.98,2.0187,2.0712,2.0712,2.0855,2.1136,2.1309,2.1395,2.1462,2.1897,2.2058,2.2111,2.2439,2.2612,2.2672,2.2672,2.2886,2.3153,2.3252,2.3661,2.4088,2.4346,2.4412,2.4452,2.4572,2.4599,2.4653,2.4863,2.4756,2.4903,2.5824,2.5891,2.5905,2.6319,2.6386,2.6386,2.6386,2.6386,2.6386,2.6386,2.6386,2.6386,2.6386,2.6386,2.6386,2.6386,2.6386,2.6386,2.6386,2.6386,2.6319,2.6185,2.6346,2.6306,2.6185,2.6051,2.5931,2.5772,2.5424,2.5197,2.5128,2.5596,2.5545,0.0,0.0,0.0,1.6512,1.6219,0.0,1.7598,1.7991,1.8283,1.9139,1.9921,2.0586,2.1054,2.1796,2.2617,2.3379,2.4586,2.5776,2.6797,2.6928,2.6908,2.685,2.6836,2.6777,2.6713,2.6777,2.6797,2.6797,2.683,2.685,2.685,2.685,2.685,2.685,2.6504,2.6309,2.6309,2.3243,2.1841,2.2064,1.9655,1.8637,1.8903,1.9254,1.9401,1.9401,1.9401,1.9401,1.9401,1.9401,1.9896,2.0628,2.0628,2.0828,2.1109,2.1109,2.1109,2.1149,2.1475,2.1582,2.1636,2.193,2.2178,2.2385,2.2385,2.2619,2.296,2.3233,2.3514,2.383,2.4075,2.4182,2.4262,2.4492,2.4572,2.4599,2.4599,2.4599,2.4877,2.5743,2.5678,2.5705,2.6293,2.6386,2.6386,2.6386,2.6386,2.6386,2.6386,2.6386,2.6386,2.6386,2.6386,2.6386,2.6386,2.6386,2.6386,2.6386,2.6386,2.6386,2.6386,2.6386,2.6386,2.6386,2.6172,2.5838,2.5518,2.5478,2.5344,2.513,2.5358,2.5159,0.0,0.0,0.0,1.6746,1.733,0.0,1.7578,1.8027,1.8654,1.918,1.9432,1.9784,2.0566,2.1133,2.1523,2.1679,2.2791,2.4293,2.625,2.6504,2.6387,2.601,2.5664,2.5312,2.4937,2.5234,2.5473,2.5473,2.5781,2.5952,2.5952,2.5952,2.5952,2.5952,2.5874,2.5835,2.5835,2.3095,2.1841,2.2064,1.9655,1.8637,1.8903,1.9254,1.9401,1.9401,1.9401,1.9401,1.9401,1.9401,1.9746,2.029,2.029,2.0641,2.1109,2.1109,2.1109,2.1149,2.1475,2.1582,2.1636,2.193,2.2178,2.2385,2.2385,2.2619,2.296,2.3233,2.3332,2.3487,2.3781,2.4022,2.4222,2.4275,2.4426,2.4599,2.4599,2.4599,2.4719,2.5208,2.5398,2.5705,2.6293,2.6386,2.6386,2.6386,2.6386,2.6386,2.6386,2.6386,2.6386,2.6386,2.6386,2.6386,2.6386,2.6386,2.6386,2.6386,2.6386,2.6386,2.6386,2.6386,2.6386,2.6386,2.6333,2.6039,2.5518,2.5277,2.5251,2.5424,2.5251,2.5224,1.6765,1.6879,1.7051,1.7051,1.735,0.0,0.0,1.7871,1.8186,1.881,1.8789,1.8848,1.9492,1.9961,2.0313,2.0527,2.1444,2.2615,2.3987,2.4883,2.5332,2.5074,2.4883,2.4668,2.441,2.4609,2.4746,2.4746,2.5156,2.5312,2.5074,2.5464,2.562,2.541,2.5601,2.5693,2.5693,2.3043,2.1767,2.1863,1.9411,1.8316,1.8476,1.8945,1.9145,1.9158,1.9334,1.9401,1.9401,1.9401,1.9655,1.9997,2.0144,2.0508,2.0909,2.1056,2.1109,2.1136,2.1283,2.1368,2.1349,2.1496,2.1844,2.2205,2.2205,2.2546,2.2934,2.3046,2.31,2.3166,2.3474,2.3768,2.4022,2.4168,2.4386,2.4599,2.4599,2.4599,2.4693,2.5024,2.5317,2.5651,2.6131,2.6212,2.6265,2.6373,2.6305,2.6265,2.6373,2.6386,2.6386,2.6386,2.6386,2.6386,2.6386,2.6386,2.6386,2.6386,2.6386,2.6386,2.6386,2.6386,2.6319,2.6212,2.6319,2.6172,2.5732,2.5623,2.5518,2.5504,2.5371,2.5371,1.7308,1.7327,1.7483,1.7598,1.7601,1.7642,0.0,0.0,0.0,1.8401,1.8225,1.8088,1.8422,1.8849,1.9219,1.9394,2.0274,2.1035,2.123,2.2656,2.3769,2.4001,2.3884,2.3845,2.402,2.402,2.4137,2.4371,2.4691,2.473,2.4434,2.5074,2.5289,2.4984,2.5269,2.5358,2.5174,2.2788,2.1476,2.1278,1.9062,1.7995,1.8009,1.8569,1.881,1.8823,1.9158,1.9308,1.9321,1.9374,1.9535,1.9746,2.004,2.0361,2.0739,2.0935,2.1069,2.1109,2.1109,2.1109,2.1109,2.1109,2.151,2.1991,2.2044,2.2479,2.2893,2.2893,2.2893,2.296,2.318,2.35,2.387,2.4062,2.4382,2.4599,2.4599,2.4599,2.4666,2.4943,2.5277,2.5585,2.5864,2.5957,2.6078,2.6266,2.6145,2.6105,2.636,2.6386,2.6386,2.6386,2.6386,2.6386,2.6386,2.6386,2.6386,2.6386,2.6386,2.6386,2.6386,2.6386,2.6253,2.5998,2.6239,2.6279,2.5998,2.6051,2.5931,2.5598,2.5545,2.5518,1.9022,1.9569,1.9882,1.8752,1.9592,2.0216,1.8401,0.0,1.8887,1.8223,0.0,1.801,1.8049,0.0,0.0,1.7793,1.9023,1.9805,1.9083,2.0156,2.1446,2.2598,2.203,2.1874,2.2635,2.2734,2.3181,2.4336,2.4121,2.4082,2.4371,2.4489,2.4528,2.4469,2.4508,2.414,2.3305,2.183,2.0653,1.9808,1.8597,1.7995,1.8009,1.8384,1.8544,1.8557,1.8851,1.8943,1.8998,1.9294,1.9415,1.9481,1.9733,2.0187,2.0712,2.0739,2.0895,2.1109,2.1109,2.1109,2.1109,2.1109,2.151,2.2031,2.2298,2.2605,2.2893,2.2893,2.2893,2.2907,2.2934,2.3375,2.3817,2.3843,2.4235,2.4599,2.4599,2.4599,2.4613,2.4639,2.5093,2.5518,2.5558,2.5785,2.6011,2.6038,2.6011,2.6105,2.636,2.6386,2.6386,2.6386,2.6386,2.6386,2.6386,2.6386,2.6386,2.6386,2.6386,2.6386,2.6386,2.6386,2.6253,2.5998,2.6239,2.6279,2.5998,2.6252,2.6225,2.5944,2.5638,2.5518,1.9355,1.9745,2.0,1.9219,1.957,0.0,1.8615,0.0,1.8516,1.8381,0.0,0.0,0.0,0.0,0.0,0.0,1.8479,1.8752,1.8617,1.8869,1.9667,2.1211,2.1055,2.1094,2.1698,2.1992,2.2363,2.291,2.3242,2.3357,2.3298,2.3981,2.4274,2.4062,2.4297,2.3956,2.3015,2.1681,2.0521,1.9576,1.8364,1.7782,1.7782,1.8063,1.8209,1.8236,1.8689,1.889,1.8916,1.9267,1.9401,1.9401,1.9535,1.9829,2.0214,2.0579,2.0779,2.0882,2.1056,2.1109,2.1136,2.1341,2.1676,2.2044,2.2338,2.2619,2.2893,2.2893,2.2893,2.2893,2.2893,2.3348,2.3803,2.3803,2.4209,2.4599,2.4599,2.4599,2.4599,2.4599,2.497,2.5211,2.4999,2.5384,2.5797,2.5971,2.585,2.5865,2.6333,2.6386,2.6386,2.6386,2.6386,2.6386,2.6386,2.6386,2.6386,2.6386,2.6386,2.6386,2.6386,2.6386,2.6333,2.6252,2.6333,2.6333,2.6252,2.6333,2.6333,2.6199,2.5944,2.5865,1.9784,0.0,0.0,0.0,0.0,0.0,0.0,0.0,0.0,0.0,1.8381,0.0,0.0,0.0,1.8049,1.8244,0.0,1.8069,1.8244,1.8108,1.8555,2.0058,2.0332,2.0566,2.0976,2.1133,2.1387,2.1855,2.2227,2.244,2.2498,2.3398,2.3809,2.3613,2.3884,2.3613,2.2667,2.1351,2.0282,1.9416,1.81,1.7528,1.7622,1.7796,1.7889,1.7929,1.8516,1.8783,1.8838,1.9241,1.9401,1.9401,1.9401,1.9522,1.976,2.0334,2.0601,2.0753,2.1002,2.1109,2.1149,2.1395,2.1643,2.1951,2.2218,2.2518,2.2777,2.2859,2.2893,2.2893,2.2893,2.3348,2.3803,2.3803,2.4209,2.4599,2.4599,2.4666,2.4756,2.4756,2.4997,2.5104,2.4773,2.5117,2.5491,2.5824,2.5651,2.5718,2.6306,2.6386,2.6386,2.6386,2.6386,2.6386,2.6386,2.6386,2.6386,2.6386,2.6386,2.6386,2.6386,2.6386,2.6386,2.6386,2.6386,2.6386,2.6386,2.6386,2.6386,2.6386,2.6212,2.6225,0.0,0.0,0.0,1.9805,0.0,0.0,0.0,0.0,1.9023,0.0,0.0,0.0,0.0,0.0,0.0,0.0,0.0,0.0,0.0,1.7754,1.834,1.9219,1.9687,2.0117,2.0566,1.9862,2.0078,2.1778,2.1133,2.1211,2.242,2.2537,2.2732,2.3101,2.312,2.2735,2.1854,2.0566,1.963,1.8987,1.7795,1.7341,1.7608,1.7622,1.7622,1.7662,1.8237,1.8504,1.8544,1.916,1.9401,1.9401,1.9401,1.9401,1.9481,2.004,2.0428,2.0753,2.1002,2.1109,2.1109,2.1122,2.1344,2.1672,2.1937,2.221,2.2477,2.2812,2.2893,2.2893,2.2893,2.3348,2.3803,2.3803,2.4209,2.4599,2.4599,2.4863,2.5064,2.5064,2.5304,2.5411,2.5117,2.5115,2.5197,2.5491,2.5518,2.5718,2.6306,2.6386,2.6386,2.6386,2.6386,2.6386,2.6386,2.6386,2.6386,2.6386,2.6386,2.6386,2.6386,2.6386,2.6386,2.6386,2.6386,2.6386,2.6386,2.6386,2.6386,2.6386,2.6373,2.6386,0.0,0.0,2.2186,2.0879,0.0,0.0,0.0,0.0,0.0,0.0,0.0,0.0,0.0,0.0,0.0,0.0,0.0,0.0,0.0,1.791,1.8108,1.8398,1.8791,1.9103,1.9259,1.9297,1.955,2.0136,2.0429,2.0801,2.1211,2.2051,2.2557,2.2693,2.2945,2.2697,2.1818,2.0745,1.9811,1.8972,1.795,1.7515,1.7608,1.7608,1.7608,1.7635,1.8251,1.849,1.8558,1.916,1.9401,1.9401,1.9401,1.9401,1.9468,1.9983,2.0264,2.0454,2.0935,2.1109,2.1109,2.1109,2.1343,2.1659,2.1919,2.2171,2.2464,2.2812,2.2893,2.2893,2.2893,2.3166,2.3527,2.3763,2.4062,2.4359,2.4559,2.4679,2.4783,2.4783,2.4826,2.4866,2.4759,2.4783,2.4957,2.5438,2.5518,2.5718,2.6306,2.6386,2.6386,2.6386,2.6386,2.6386,2.6386,2.6386,2.6386,2.6386,2.6386,2.6386,2.6386,2.6386,2.6386,2.6386,2.6386,2.6386,2.6386,2.6386,2.6386,2.6386,2.6386,2.6386,2.1855,2.2305,0.0,2.1444,2.1327,0.0,1.9805,0.0,2.0001,0.0,0.0,0.0,0.0,0.0,0.0,0.0,0.0,0.0,0.0,1.7991,1.7991,1.7991,1.8225,1.8442,1.8578,1.8732,1.9041,1.9473,1.9902,2.0332,2.0801,2.1758,2.2363,2.25,2.2908,2.2821,2.2261,2.0799,1.9822,1.9309,1.7932,1.7354,1.7461,1.7568,1.7608,1.7635,1.8251,1.849,1.8558,1.916,1.9401,1.9401,1.9401,1.9401,1.9468,1.9983,2.033,2.057,2.0975,2.1109,2.1109,2.1109,2.1249,2.1492,2.1864,2.2116,2.2348,2.2777,2.2893,2.2893,2.2893,2.31,2.3372,2.3736,2.3995,2.4289,2.4532,2.4679,2.4796,2.4796,2.4796,2.4823,2.4893,2.4733,2.4799,2.5424,2.5518,2.5692,2.6172,2.6319,2.6346,2.6279,2.6333,2.6386,2.6386,2.6386,2.6386,2.6386,2.6386,2.6386,2.6386,2.6386,2.644,2.6547,2.644,2.644,2.6547,2.644,2.6386,2.6386,2.6386,2.6386]},{"header":{"parameterUnit":"m.s-1","parameterCategory":1,"la1":30.6,"la2":29.2853,"lo1":-89.7004,"lo2":-87.6739,"dy":0.0162,"dx":0.0183,"nx":112,"ny":82,"refTime":"2023-11-02T00:00:00:Z","depth":0,"parameterNumber":3,"parameterNumberName":"V-component_of_WINDS"},"data":[0.0,0.0,0.0,0.0,0.0,0.0,0.0,0.0,0.0,0.0,0.0,0.0,0.0,0.0,0.0,0.0,0.0,0.0,0.0,0.0,0.0,0.0,0.0,0.0,0.0,0.0,0.0,0.0,0.0,0.0,0.0,0.0,0.0,0.0,0.0,0.0,0.0,0.0,0.0,0.0,0.0,0.0,0.0,0.0,0.0,0.0,0.0,0.0,0.0,0.0,0.0,0.0,0.0,0.0,0.0,0.0,0.0,0.0,0.0,0.0,0.0,0.0,0.0,0.0,0.0,0.0,0.0,0.0,0.0,0.0,0.0,0.0,0.0,0.0,0.0,0.0,0.0,0.0,0.0,0.0,0.0,0.0,0.0,0.0,0.0,0.0,0.0,0.0,0.0,0.0,2.9029,3.2618,3.8134,4.207,4.3457,4.3254,4.0379,3.4123,0.0,0.0,0.0,0.0,0.0,0.0,0.0,0.0,0.0,0.0,0.0,0.0,0.0,0.0,0.0,0.0,0.0,0.0,0.0,0.0,0.0,0.0,0.0,0.0,0.0,0.0,0.0,0.0,0.0,0.0,0.0,0.0,0.0,0.0,0.0,0.0,0.0,0.0,0.0,0.0,0.0,0.0,0.0,0.0,0.0,0.0,0.0,0.0,0.0,0.0,0.0,0.0,0.0,0.0,0.0,0.0,0.0,0.0,0.0,0.0,0.0,0.0,0.0,0.0,0.0,0.0,0.0,0.0,0.0,0.0,0.0,0.0,0.0,0.0,0.0,0.0,0.0,0.0,0.0,0.0,0.0,0.0,0.0,0.0,0.0,0.0,0.0,0.0,0.0,0.0,0.0,0.0,0.0,0.0,0.0,0.0,0.0,0.0,0.0,0.0,0.0,0.0,0.0,0.0,3.1335,3.8087,4.1368,4.3436,4.433,4.2658,3.9737,3.5543,0.0,0.0,0.0,0.0,0.0,0.0,0.0,0.0,0.0,0.0,0.0,0.0,0.0,0.0,0.0,0.0,0.0,0.0,0.0,0.0,0.0,0.0,0.0,0.0,0.0,0.0,0.0,0.0,0.0,0.0,0.0,0.0,0.0,0.0,0.0,0.0,0.0,0.0,0.0,0.0,0.0,0.0,0.0,0.0,0.0,0.0,0.0,0.0,0.0,0.0,0.0,0.0,0.0,0.0,0.0,0.0,0.0,0.0,0.0,0.0,0.0,0.0,0.0,0.0,0.0,0.0,0.0,0.0,0.0,0.0,0.0,0.0,0.0,0.0,0.0,0.0,0.0,0.0,0.0,0.0,0.0,0.0,0.0,0.0,0.0,0.0,0.0,0.0,0.0,0.0,0.0,0.0,0.0,0.0,0.0,0.0,0.0,0.0,0.0,0.0,0.0,0.0,0.0,3.068,3.3941,4.0574,4.2557,4.3389,4.3349,4.2401,3.9851,3.5273,3.3626,0.0,0.0,0.0,0.0,0.0,0.0,0.0,0.0,0.0,0.0,0.0,0.0,0.0,0.0,0.0,0.0,0.0,0.0,0.0,0.0,0.0,0.0,0.0,0.0,0.0,0.0,0.0,0.0,0.0,0.0,0.0,0.0,0.0,0.0,0.0,0.0,0.0,0.0,0.0,0.0,0.0,0.0,0.0,0.0,0.0,0.0,0.0,0.0,0.0,0.0,0.0,0.0,0.0,0.0,0.0,0.0,0.0,0.0,0.0,0.0,0.0,0.0,0.0,0.0,0.0,0.0,0.0,0.0,0.0,0.0,0.0,0.0,0.0,0.0,0.0,0.0,0.0,0.0,0.0,0.0,0.0,0.0,0.0,0.0,0.0,0.0,0.0,0.0,0.0,0.0,0.0,0.0,0.0,0.0,0.0,0.0,0.0,0.0,0.0,0.0,0.0,0.0,3.432,3.6671,4.1758,4.2794,4.2997,4.2591,4.1745,3.9322,3.4787,3.2632,0.0,0.0,0.0,0.0,0.0,0.0,0.0,0.0,0.0,0.0,0.0,0.0,0.0,0.0,0.0,0.0,0.0,0.0,0.0,0.0,0.0,0.0,0.0,0.0,0.0,0.0,0.0,0.0,0.0,0.0,0.0,0.0,0.0,0.0,0.0,0.0,0.0,0.0,0.0,0.0,0.0,0.0,0.0,0.0,0.0,0.0,0.0,0.0,0.0,0.0,0.0,0.0,0.0,0.0,0.0,0.0,0.0,0.0,0.0,0.0,0.0,0.0,0.0,0.0,0.0,0.0,0.0,0.0,0.0,0.0,0.0,0.0,0.0,0.0,0.0,0.0,0.0,0.0,0.0,0.0,0.0,0.0,0.0,0.0,0.0,0.0,0.0,0.0,0.0,0.0,0.0,0.0,0.0,0.0,0.0,0.0,0.0,0.0,0.0,0.0,0.0,0.0,3.5633,3.9559,4.2029,4.2367,4.2625,4.3288,4.0176,3.7144,3.4652,3.121,0.0,0.0,0.0,0.0,0.0,0.0,0.0,0.0,0.0,0.0,0.0,0.0,0.0,0.0,0.0,0.0,0.0,0.0,0.0,0.0,0.0,0.0,0.0,0.0,0.0,0.0,0.0,0.0,0.0,0.0,0.0,0.0,0.0,0.0,0.0,0.0,0.0,0.0,0.0,0.0,0.0,0.0,0.0,0.0,0.0,0.0,0.0,0.0,0.0,0.0,0.0,0.0,0.0,0.0,0.0,0.0,0.0,0.0,0.0,0.0,0.0,0.0,0.0,0.0,0.0,0.0,0.0,0.0,0.0,0.0,0.0,0.0,0.0,0.0,0.0,0.0,0.0,0.0,0.0,0.0,0.0,0.0,0.0,0.0,0.0,0.0,0.0,0.0,0.0,0.0,0.0,0.0,0.0,0.0,0.0,0.0,0.0,0.0,0.0,0.0,0.0,0.0,3.6231,3.9512,4.2645,4.2983,4.2713,4.207,4.0324,3.7719,3.4066,0.0,0.0,0.0,0.0,0.0,0.0,0.0,0.0,0.0,0.0,0.0,0.0,0.0,0.0,0.0,0.0,0.0,0.0,0.0,0.0,0.0,0.0,0.0,0.0,0.0,0.0,0.0,0.0,0.0,0.0,0.0,0.0,0.0,0.0,0.0,0.0,0.0,0.0,0.0,0.0,0.0,0.0,0.0,0.0,0.0,0.0,0.0,0.0,0.0,0.0,0.0,0.0,0.0,0.0,0.0,0.0,0.0,0.0,0.0,0.0,0.0,0.0,0.0,0.0,0.0,0.0,0.0,0.0,0.0,0.0,0.0,0.0,0.0,0.0,0.0,0.0,0.0,0.0,0.0,0.0,0.0,0.0,0.0,0.0,0.0,0.0,0.0,0.0,0.0,0.0,0.0,0.0,0.0,0.0,0.0,0.0,0.0,0.0,0.0,0.0,0.0,0.0,3.366,3.6975,4.0007,4.2746,4.2848,4.2307,4.1305,3.9423,3.6919,3.3615,0.0,0.0,0.0,0.0,0.0,0.0,0.0,0.0,0.0,0.0,0.0,0.0,0.0,0.0,0.0,0.0,0.0,0.0,0.0,0.0,0.0,0.0,0.0,0.0,0.0,0.0,0.0,0.0,0.0,0.0,0.0,0.0,0.0,0.0,0.0,0.0,0.0,0.0,0.0,0.0,0.0,0.0,0.0,0.0,0.0,0.0,0.0,0.0,0.0,0.0,0.0,0.0,0.0,0.0,0.0,0.0,0.0,0.0,0.0,0.0,0.0,0.0,0.0,0.0,0.0,0.0,0.0,0.0,0.0,0.0,0.0,0.0,0.0,0.0,0.0,0.0,0.0,0.0,0.0,0.0,0.0,0.0,0.0,0.0,0.0,0.0,0.0,0.0,0.0,0.0,0.0,0.0,0.0,0.0,0.0,0.0,0.0,0.0,0.0,0.0,0.0,0.0,3.3311,3.799,4.1508,4.2232,4.1644,4.1204,4.1204,3.711,3.4201,0.0,0.0,0.0,0.0,0.0,0.0,0.0,0.0,0.0,0.0,0.0,0.0,0.0,0.0,0.0,0.0,0.0,0.0,0.0,0.0,0.0,0.0,0.0,0.0,0.0,0.0,0.0,0.0,0.0,0.0,0.0,0.0,0.0,0.0,0.0,0.0,0.0,0.0,0.0,0.0,0.0,0.0,0.0,0.0,0.0,0.0,0.0,0.0,0.0,0.0,0.0,0.0,0.0,0.0,0.0,0.0,0.0,0.0,0.0,0.0,0.0,0.0,0.0,0.0,0.0,0.0,0.0,0.0,0.0,0.0,0.0,0.0,0.0,0.0,0.0,0.0,0.0,0.0,0.0,0.0,0.0,0.0,0.0,0.0,0.0,0.0,0.0,0.0,0.0,0.0,0.0,0.0,0.0,0.0,0.0,0.0,0.0,0.0,0.0,0.0,0.0,0.0,0.0,3.3998,3.8734,4.2049,4.23,4.213,4.1779,4.1238,3.807,3.5566,3.4269,0.0,0.0,0.0,0.0,0.0,0.0,0.0,0.0,0.0,0.0,0.0,0.0,0.0,0.0,0.0,0.0,0.0,0.0,0.0,0.0,0.0,0.0,0.0,0.0,0.0,0.0,0.0,0.0,0.0,0.0,0.0,0.0,0.0,0.0,0.0,0.0,0.0,0.0,0.0,0.0,0.0,0.0,0.0,0.0,0.0,0.0,0.0,0.0,0.0,0.0,0.0,0.0,0.0,0.0,0.0,0.0,0.0,0.0,0.0,0.0,0.0,0.0,0.0,0.0,0.0,0.0,0.0,0.0,0.0,0.0,0.0,0.0,0.0,0.0,0.0,0.0,0.0,0.0,0.0,0.0,0.0,0.0,0.0,0.0,0.0,0.0,0.0,0.0,0.0,0.0,0.0,0.0,0.0,0.0,0.0,0.0,0.0,0.0,0.0,0.0,0.0,0.0,3.4742,3.9005,4.1982,4.2266,4.2049,4.1542,4.0832,3.8024,3.5791,3.4584,0.0,0.0,0.0,0.0,0.0,0.0,0.0,0.0,0.0,0.0,0.0,0.0,0.0,0.0,0.0,0.0,0.0,0.0,0.0,0.0,0.0,0.0,0.0,0.0,0.0,0.0,0.0,0.0,0.0,0.0,0.0,0.0,0.0,0.0,0.0,0.0,0.0,0.0,0.0,0.0,0.0,0.0,0.0,0.0,0.0,0.0,0.0,0.0,0.0,0.0,0.0,0.0,0.0,0.0,0.0,0.0,0.0,0.0,0.0,0.0,0.0,0.0,0.0,0.0,0.0,0.0,0.0,0.0,0.0,0.0,0.0,0.0,0.0,0.0,0.0,0.0,0.0,0.0,0.0,0.0,0.0,0.0,0.0,0.0,0.0,0.0,0.0,0.0,0.0,0.0,0.0,0.0,0.0,0.0,0.0,0.0,0.0,0.0,0.0,0.0,0.0,0.0,3.5306,3.879,4.1339,4.2029,4.1542,4.0899,4.018,3.7483,3.5475,3.4641,0.0,0.0,0.0,0.0,0.0,0.0,0.0,0.0,0.0,0.0,0.0,0.0,0.0,0.0,0.0,0.0,0.0,0.0,0.0,0.0,0.0,0.0,0.0,0.0,0.0,0.0,0.0,0.0,0.0,0.0,0.0,0.0,0.0,0.0,0.0,0.0,0.0,0.0,0.0,0.0,0.0,0.0,0.0,0.0,0.0,0.0,0.0,0.0,0.0,0.0,0.0,0.0,0.0,0.0,0.0,0.0,0.0,0.0,0.0,0.0,2.2393,0.0,0.0,0.0,0.0,0.0,0.0,0.0,0.0,0.0,0.0,0.0,0.0,0.0,0.0,0.0,0.0,0.0,0.0,0.0,0.0,0.0,0.0,0.0,0.0,0.0,0.0,0.0,0.0,0.0,0.0,0.0,0.0,0.0,0.0,0.0,0.0,0.0,0.0,0.0,0.0,0.0,3.4539,3.8012,4.0379,4.054,4.0933,4.0899,4.018,3.843,3.6828,3.5442,3.3683,0.0,0.0,0.0,0.0,0.0,0.0,0.0,0.0,0.0,0.0,0.0,0.0,0.0,0.0,0.0,0.0,0.0,0.0,0.0,0.0,0.0,0.0,0.0,0.0,0.0,0.0,0.0,0.0,0.0,0.0,0.0,0.0,0.0,0.0,0.0,0.0,0.0,0.0,0.0,0.0,0.0,0.0,0.0,0.0,0.0,0.0,0.0,0.0,0.0,0.0,0.0,0.0,0.0,0.0,0.0,0.0,0.0,0.0,0.0,0.0,2.3879,0.0,0.0,0.0,0.0,0.0,0.0,0.0,0.0,0.0,0.0,0.0,0.0,0.0,0.0,0.0,0.0,0.0,0.0,0.0,0.0,0.0,0.0,0.0,0.0,0.0,0.0,0.0,0.0,0.0,0.0,0.0,0.0,0.0,0.0,0.0,0.0,0.0,0.0,0.0,0.0,3.4878,3.799,4.0223,4.0595,4.0641,4.0506,4.0146,3.8734,3.7415,3.6265,3.4438,0.0,0.0,0.0,0.0,0.0,0.0,0.0,0.0,0.0,0.0,0.0,0.0,0.0,0.0,0.0,0.0,0.0,0.0,0.0,0.0,0.0,0.0,0.0,0.0,0.0,0.0,0.0,0.0,0.0,0.0,0.0,0.0,0.0,0.0,0.0,0.0,0.0,0.0,0.0,0.0,0.0,0.0,0.0,0.0,0.0,0.0,0.0,0.0,0.0,0.0,0.0,0.0,0.0,3.2886,3.3408,3.4074,3.4074,3.4431,3.4788,3.0939,2.8355,2.6739,2.583,0.0,0.0,0.0,0.0,0.0,0.0,0.0,0.0,0.0,0.0,0.0,0.0,0.0,0.0,0.0,0.0,0.0,0.0,0.0,0.0,0.0,0.0,0.0,0.0,3.628,3.6513,3.2669,0.0,0.0,0.0,0.0,0.0,0.0,0.0,0.0,0.0,0.0,0.0,3.5498,3.8125,4.0202,4.0933,4.0472,4.0113,4.0113,3.8983,3.7922,3.7054,3.5216,3.3728,0.0,0.0,0.0,0.0,0.0,0.0,0.0,0.0,0.0,0.0,0.0,0.0,0.0,0.0,0.0,0.0,0.0,0.0,0.0,0.0,0.0,0.0,0.0,0.0,0.0,0.0,0.0,0.0,0.0,0.0,0.0,0.0,2.5974,2.5405,0.0,0.0,0.0,0.0,0.0,0.0,0.0,0.0,0.0,0.0,0.0,0.0,0.0,3.1734,3.3575,3.5429,3.6477,3.664,3.8392,3.8234,3.6341,3.6341,3.6597,3.7121,3.9109,0.0,3.1465,2.9654,0.0,0.0,0.0,0.0,0.0,0.0,0.0,0.0,0.0,0.0,0.0,0.0,0.0,0.0,0.0,0.0,0.0,0.0,0.0,0.0,0.0,0.0,3.9893,3.9391,3.9969,4.029,0.0,3.6299,3.384,3.2983,3.1935,0.0,0.0,0.0,0.0,0.0,0.0,0.0,3.543,3.7686,3.9423,4.0168,4.018,4.0113,4.0113,3.991,3.922,3.7855,3.7471,3.6366,3.4313,3.3423,0.0,0.0,0.0,0.0,0.0,0.0,0.0,0.0,0.0,0.0,0.0,0.0,0.0,0.0,0.0,0.0,0.0,0.0,0.0,0.0,0.0,0.0,0.0,0.0,0.0,0.0,0.0,0.0,0.0,2.6452,2.732,2.6273,2.7692,2.7902,0.0,0.0,0.0,0.0,0.0,0.0,0.0,0.0,0.0,3.4307,3.5383,3.6729,3.835,3.8962,3.9778,4.0778,4.0881,4.1163,4.1582,4.1582,4.1656,4.1913,4.3527,4.2932,4.0444,3.5515,3.2242,3.0223,0.0,0.0,0.0,0.0,2.979,3.0478,3.2108,3.2429,3.2066,3.1963,0.0,0.0,0.0,0.0,0.0,0.0,0.0,0.0,0.0,0.0,4.2577,4.3118,4.3795,4.4147,4.3423,4.1258,3.8667,0.0,3.4787,3.3941,3.2645,0.0,0.0,0.0,0.0,3.534,3.7268,3.9106,4.0527,4.1251,4.098,4.0709,4.0709,4.0337,3.966,3.8599,3.8113,3.728,3.5836,3.4652,3.3694,0.0,0.0,0.0,0.0,0.0,0.0,0.0,0.0,0.0,0.0,0.0,0.0,0.0,0.0,0.0,0.0,0.0,0.0,0.0,0.0,0.0,0.0,0.0,0.0,0.0,0.0,0.0,0.0,2.8158,2.9175,2.732,2.9638,3.0117,0.0,0.0,0.0,0.0,0.0,0.0,3.4127,3.507,3.6716,3.9349,4.0055,4.1307,4.321,4.2682,4.3257,4.4889,4.3905,4.4443,4.63,4.63,4.6499,4.6808,4.6818,4.7026,4.6792,4.0395,3.6387,3.4127,3.2781,3.2093,3.2047,3.3608,3.4152,3.4561,3.7447,3.7977,3.7289,3.693,3.6239,3.5156,3.2954,0.0,0.0,0.0,0.0,3.8949,4.1014,4.3166,4.5215,4.6737,4.753,4.7665,4.6752,4.5486,4.3254,0.0,3.763,3.6682,3.4641,0.0,0.0,0.0,3.5509,3.7133,3.9051,4.0561,4.1677,4.2232,4.1644,4.1204,4.1204,4.0506,3.9876,3.9322,3.8768,3.8058,3.7122,3.5802,3.4889,3.4516,0.0,0.0,0.0,0.0,0.0,0.0,0.0,0.0,0.0,0.0,0.0,0.0,0.0,0.0,0.0,0.0,0.0,0.0,0.0,0.0,0.0,0.0,0.0,0.0,0.0,0.0,0.0,0.0,0.0,2.8876,3.3051,0.0,0.0,0.0,0.0,3.4099,3.5878,3.7567,3.8973,4.0277,4.2211,4.4825,4.3742,4.4769,4.8188,4.7388,4.7635,4.9016,4.891,4.8961,4.909,4.909,4.974,5.0834,4.9659,4.8424,4.6964,4.2844,4.0307,3.8913,3.7584,3.7434,3.8022,3.8501,3.9836,4.1369,4.1308,4.1666,4.2249,4.2783,4.1898,4.0489,3.9797,3.9133,0.0,0.0,4.136,4.3423,4.5026,4.7056,4.907,5.0558,5.0964,5.0592,4.9138,4.8225,4.6365,0.0,3.9851,3.8408,3.6885,0.0,3.6592,3.6626,3.7867,3.9119,3.9943,4.1318,4.2266,4.23,4.1644,4.1204,4.1204,4.0506,4.0079,4.0045,4.0011,3.9356,3.791,3.7088,3.6005,3.455,3.3728,0.0,0.0,0.0,0.0,0.0,0.0,0.0,0.0,0.0,0.0,0.0,0.0,0.0,0.0,0.0,0.0,0.0,0.0,0.0,0.0,0.0,0.0,0.0,0.0,0.0,0.0,0.0,0.0,3.5593,3.8703,0.0,3.6836,3.7375,3.8409,3.9505,4.1403,4.3449,4.5654,4.701,4.8745,5.096,4.9855,5.0123,5.1999,5.056,5.0495,5.1834,5.2702,5.3098,5.3127,5.3806,5.3859,5.3394,5.3492,5.2913,5.1701,4.9512,4.7536,4.5719,4.4001,4.3209,4.3103,4.3583,4.4209,4.4927,4.5674,4.5875,4.5683,4.5065,4.4167,4.3283,4.3057,4.3157,4.347,4.4215,4.5655,4.7259,4.8274,4.9458,5.0558,5.1066,5.1201,5.1066,5.0525,4.983,4.8714,4.6616,4.3829,4.136,3.9884,3.922,3.8916,3.8937,3.9365,4.0312,4.2016,4.2679,4.32,4.3721,4.2672,4.1914,4.1914,4.0811,3.991,3.9423,3.9389,3.8937,3.7944,3.719,3.6558,3.5972,3.4753,3.41,0.0,0.0,0.0,0.0,0.0,0.0,0.0,0.0,0.0,0.0,0.0,0.0,0.0,0.0,0.0,0.0,0.0,0.0,0.0,0.0,0.0,0.0,0.0,0.0,0.0,3.6819,3.99,4.0348,4.3698,4.4925,4.2312,4.3269,4.4407,4.5295,4.7421,4.9426,5.1193,5.2306,5.3394,5.4515,5.3822,5.371,5.4329,5.477,5.5418,5.6315,5.637,5.641,5.638,5.713,5.692,5.5999,5.6232,5.6328,5.6234,5.5295,5.407,5.2543,4.9714,4.8339,4.8071,4.8724,4.8846,4.8751,4.9767,4.9698,4.9026,4.7922,4.7056,4.6462,4.6462,4.68,4.7327,4.8071,4.9187,5.0236,5.071,5.142,5.1979,5.1979,5.1979,5.1911,5.1641,5.098,5.0236,4.9492,4.6974,4.4437,4.2949,4.232,4.1894,4.1677,4.161,4.2151,4.3606,4.3809,4.4012,4.4533,4.3213,4.23,4.23,4.0709,3.9525,3.9039,3.8768,3.8294,3.755,3.7054,3.6682,3.6411,3.5667,3.5396,3.5656,0.0,0.0,0.0,0.0,0.0,0.0,0.0,0.0,0.0,0.0,0.0,0.0,0.0,0.0,0.0,0.0,0.0,0.0,0.0,0.0,0.0,0.0,0.0,3.5878,4.0797,4.4057,4.2921,4.7886,4.9912,4.6052,4.9164,5.1415,5.1415,5.3912,5.5405,5.5405,5.6055,5.6158,5.5487,5.5448,5.5439,5.5481,6.0079,6.2405,6.2336,5.9974,5.8787,5.8687,5.8731,5.8755,5.868,5.7721,5.8391,6.007,5.9578,5.9376,5.8939,5.4463,5.2709,5.2828,5.3765,5.3643,5.3045,5.338,5.2976,5.2232,5.1505,5.0777,5.0218,5.0218,5.0218,5.0338,5.1066,5.1776,5.2334,5.2334,5.2909,5.3518,5.3518,5.3518,5.3281,5.2503,5.1758,5.0998,5.027,4.8951,4.7481,4.6027,4.5771,4.5534,4.477,4.4649,0.0,4.4635,4.4601,4.4615,4.4615,4.3247,4.2333,4.23,4.029,3.9051,3.9017,3.8328,3.7584,3.6863,3.6829,3.6479,3.5701,3.6445,3.719,3.791,0.0,0.0,0.0,0.0,0.0,0.0,0.0,0.0,0.0,0.0,0.0,0.0,0.0,0.0,0.0,0.0,0.0,0.0,0.0,0.0,0.0,3.9062,4.1545,4.1844,4.5762,4.9351,5.1439,5.3922,5.5239,5.4645,5.5543,5.6201,5.6201,5.874,6.0275,6.0275,6.134,6.1838,6.1669,6.0524,6.0527,6.179,6.2197,6.2172,6.1724,6.0332,5.9335,5.8796,5.9675,5.9809,5.9303,5.991,6.0155,6.0064,5.9391,5.91,5.8893,5.6556,5.5632,5.5569,5.4734,5.3983,5.3379,5.3467,5.3382,5.3145,5.2926,5.2739,5.257,5.257,5.257,5.2604,5.279,5.301,5.3179,5.3179,5.3348,5.3518,5.3518,5.3518,5.345,5.3213,5.2114,5.1133,5.093,4.9713,4.8394,4.7447,4.7312,4.7041,4.6327,4.5751,0.0,4.5399,4.4939,4.4615,4.4615,4.3707,4.2895,4.2367,4.1238,4.0121,3.9085,3.8802,3.8362,3.7618,3.7584,3.7471,3.7268,3.7483,3.7686,0.0,0.0,0.0,0.0,0.0,0.0,0.0,0.0,0.0,0.0,0.0,0.0,0.0,0.0,0.0,0.0,0.0,0.0,0.0,0.0,0.0,0.0,4.4027,4.7437,4.974,5.1594,5.3743,5.6496,5.8231,5.9249,5.9341,6.0361,6.092,6.0643,6.2908,6.4155,6.3897,6.46,6.4927,6.4776,6.3499,6.3622,6.5334,6.4187,6.3441,6.3089,6.2002,6.1227,6.0758,6.1202,6.1124,6.0765,6.145,6.1501,6.0994,6.0283,5.9757,0.0,0.0,0.0,0.0,0.0,5.5006,5.4769,5.3822,5.3687,5.3923,5.3585,5.3518,5.3518,5.3518,5.3518,5.3518,5.3518,5.3518,5.3518,5.3518,5.3518,5.3518,5.3518,5.3518,5.3518,5.3518,5.252,5.1573,5.1269,5.027,0.0,4.8496,4.836,4.809,4.7361,4.6921,4.65,4.621,4.55,4.5074,4.5074,4.4065,4.3085,4.2367,4.1352,0.0,0.0,0.0,3.8362,3.791,3.791,0.0,0.0,0.0,3.8497,3.8802,0.0,0.0,0.0,3.799,3.7686,0.0,0.0,0.0,0.0,0.0,0.0,0.0,0.0,0.0,0.0,0.0,0.0,0.0,0.0,0.0,0.0,4.9254,5.3389,5.7816,5.7671,5.7663,5.9246,6.1183,6.2196,6.1625,6.3862,6.5075,6.4506,6.6298,6.7162,6.657,6.6599,0.0,0.0,0.0,6.5519,6.6923,6.5972,6.5425,6.5352,6.418,6.3612,6.3579,6.2956,6.2584,6.2516,6.2516,6.2502,6.2347,6.1603,6.0791,5.9844,5.8423,5.79,5.7712,5.6341,5.6139,5.6258,5.4296,0.0,0.0,5.3721,5.3518,5.3518,5.3518,5.3518,5.3518,5.3518,5.3518,5.3518,5.3518,5.3518,5.3518,5.3518,5.3518,5.3518,5.3518,5.2875,5.2097,5.1438,5.0744,4.9999,4.9255,4.9052,4.8781,4.8124,4.7954,4.765,4.6989,4.6278,4.5805,4.5703,0.0,0.0,4.2489,4.1149,4.0032,3.9276,3.8565,3.8147,3.8147,3.8147,3.8464,3.9119,3.9119,3.9457,4.0113,4.0113,4.0113,4.0079,3.8768,3.8147,0.0,0.0,0.0,0.0,0.0,0.0,0.0,0.0,0.0,0.0,0.0,0.0,0.0,0.0,0.0,4.8574,5.3054,5.7034,6.0089,6.1724,6.2296,6.1603,6.328,6.4457,6.4334,6.5811,6.6745,6.6612,6.7985,6.8756,6.8625,6.9138,6.9411,6.9333,6.8595,6.8021,6.7692,6.6876,6.6203,6.5602,0.0,0.0,6.4377,6.4241,6.3869,6.3294,6.3294,6.2956,6.2347,6.1603,6.0486,5.9133,5.822,5.79,5.7798,5.69,5.5919,5.4938,5.4532,5.4093,5.3687,5.3551,5.3518,5.3518,5.3518,5.3518,0.0,5.3518,5.3518,5.3518,5.3518,5.3518,5.3518,5.3518,5.3518,5.3518,5.3518,5.2875,5.2266,5.2131,5.1472,5.0728,4.9999,4.939,4.8951,4.88,4.8293,4.7853,4.7718,4.7056,4.6346,4.5771,4.5418,4.4674,4.3321,4.2388,4.1542,4.0832,4.01,3.966,3.966,3.966,3.974,3.9876,3.991,3.9977,4.0113,4.0113,4.0113,4.0079,3.9808,3.966,0.0,0.0,0.0,0.0,0.0,0.0,0.0,0.0,0.0,0.0,0.0,3.9667,4.1972,0.0,4.9942,5.3569,5.7505,6.0799,6.2817,6.4555,6.5147,6.3745,6.5083,6.6154,6.6154,6.7394,6.8206,6.8206,6.949,7.0263,7.0263,7.0568,7.0737,7.0737,7.0026,6.9282,6.8504,6.776,6.6981,6.6237,6.5493,6.5155,6.5121,6.4783,6.441,6.4038,6.3646,6.3274,6.2854,6.1772,6.1061,6.0588,5.9438,5.8543,5.7832,5.707,5.6562,5.614,5.5412,5.5141,5.5108,5.4718,5.4583,5.4583,5.4583,5.4583,5.4515,5.416,5.4059,5.3957,5.3585,5.3518,5.3518,5.3518,5.3518,5.3518,5.3518,5.3179,5.2773,5.2367,5.1995,5.1522,5.0777,5.068,5.0306,4.9182,4.8698,4.8462,4.8462,4.78,4.7339,4.7315,4.6354,4.5385,4.4569,4.317,4.213,4.1779,4.142,4.1048,4.0675,4.0641,4.0472,4.0113,4.0113,4.0113,4.0113,4.0113,4.0113,4.0113,4.0472,4.0438,0.0,0.0,0.0,0.0,0.0,0.0,0.0,3.525,3.7152,3.9787,4.2451,4.5325,4.8648,5.1941,5.519,5.8362,6.1484,6.3973,6.5334,6.6699,6.7164,6.6048,6.6881,6.7572,6.7572,6.8797,6.9609,6.9609,7.0643,7.1289,7.1289,7.1289,7.1289,7.1289,7.0737,6.9992,6.9113,6.847,6.7692,6.6791,6.6203,6.5899,6.5899,6.529,6.4952,6.4749,6.3883,6.3511,6.3376,6.1907,6.1637,6.2062,6.0655,5.9268,5.8051,5.7442,5.7509,5.7712,5.6393,5.6206,5.6494,5.5902,5.5699,5.5699,5.5699,5.5699,5.5564,5.4972,5.4702,5.4465,5.3856,5.3619,5.3518,5.3518,5.3518,5.3518,5.3518,5.3618,5.3497,5.2867,5.2861,5.2734,5.1983,5.2412,5.2037,4.9759,4.9536,4.9573,4.9421,4.8875,4.8678,4.9069,4.7562,4.6316,4.5806,4.4143,4.294,4.2524,4.2477,4.2174,4.1441,4.1407,4.1136,4.0553,4.0519,4.0519,4.0519,4.0519,4.0519,4.0553,4.1136,4.1001,3.0492,3.0283,3.1061,3.338,3.4114,3.5775,0.0,4.304,4.3958,4.6621,4.9284,5.1409,5.245,5.5329,5.8475,6.1272,6.3508,6.5384,6.6777,6.8132,6.8919,6.8773,6.887,6.8967,6.8967,7.024,7.1075,7.1075,7.1222,7.1289,7.1289,7.1289,7.1289,7.1289,7.1222,7.0534,6.9113,6.9011,6.8233,6.6791,6.6724,6.6677,6.6656,6.6588,6.6203,6.5514,6.4106,6.3511,6.3376,6.1907,6.1366,6.1332,6.0452,5.9607,5.8878,5.8776,5.8389,5.778,5.6968,5.6308,5.58,5.5733,5.5699,5.5699,5.5699,5.5699,5.5665,5.5597,5.5108,5.4583,5.4516,5.3991,5.3518,5.3518,5.3518,5.3518,5.3518,5.3993,5.4447,5.4378,5.489,5.5093,5.436,5.4289,5.3563,5.13,5.1508,5.1652,5.0969,5.0792,5.0514,4.9947,4.9671,4.8683,4.6578,4.6177,4.522,4.3299,4.318,4.2871,4.2178,4.2198,4.213,4.2063,4.2063,4.2063,4.2063,4.2063,4.2063,4.2063,4.213,4.1779,3.4023,3.4262,3.507,3.7345,3.9649,4.2282,4.5813,4.7818,4.9553,5.1828,5.4102,5.6077,5.7543,5.9883,6.212,6.3663,6.5894,6.7698,6.8306,6.9197,6.9298,6.7971,6.8606,6.9465,7.0335,7.0961,7.1289,7.1289,7.1289,7.1289,7.1289,7.1289,7.1289,7.1289,7.1289,7.0804,6.9755,6.9722,6.8977,6.7455,6.7929,6.7692,6.6791,6.7252,6.6812,6.5683,6.5053,6.4309,6.3443,6.2835,6.2347,6.1907,6.1569,6.0994,6.0231,5.9317,5.8524,5.7866,5.7543,5.7239,5.6968,5.6968,5.6968,5.6968,5.6968,5.6968,5.69,5.6443,5.5818,5.5141,5.4702,5.4378,5.4155,5.4155,5.4485,5.4791,5.4791,5.5029,5.5232,5.5232,5.5495,5.5617,5.5277,5.565,5.5468,5.4042,5.295,5.2174,5.1856,5.1382,5.0816,5.0062,5.0364,4.9841,4.8068,4.789,4.7498,4.663,4.6548,4.6214,4.5486,4.4983,4.453,4.4089,4.3647,4.3426,4.3426,4.3426,4.3426,4.3414,4.3831,4.3866,3.5835,3.7045,3.8751,4.0935,4.4596,4.8095,4.9793,5.2067,5.4525,5.6884,5.8343,5.9943,6.236,6.3653,6.476,6.6033,6.7899,6.9271,6.9462,6.9535,6.8808,6.6745,6.7117,6.8064,6.935,7.0398,7.1075,7.1289,7.1289,7.1289,7.1289,7.1289,7.1289,7.1289,7.1289,7.0939,7.0217,7.0217,6.9519,6.8233,6.8808,6.8538,6.7455,6.776,6.7218,6.6,6.5764,6.4986,6.3781,6.3579,6.3057,6.24,6.24,6.1941,6.1163,6.0047,5.9032,5.8186,5.8186,5.8051,5.79,5.79,5.79,5.79,5.79,5.79,5.7764,5.7002,5.6434,5.5826,5.5094,5.4895,5.4909,5.4909,5.5306,5.5709,5.5709,5.5879,5.6018,5.6018,5.6196,5.6331,5.6331,5.6825,5.701,5.6429,5.4743,5.347,5.3256,5.2491,5.1811,5.1262,5.1462,5.1095,4.9876,4.9769,4.9591,4.9162,4.915,4.8793,4.8068,4.7465,4.6897,4.6364,4.5773,4.5407,4.5171,4.5171,4.503,4.483,4.535,4.5586,3.4563,3.7375,4.0935,4.3519,4.7646,5.1744,5.4371,5.6526,5.887,6.2188,6.24,6.2991,6.6378,6.5963,6.5936,6.865,6.9169,6.9415,7.0097,6.8888,6.7421,6.5899,6.4512,6.3951,6.4749,6.8098,7.0534,7.1255,7.1289,7.1289,7.1289,7.1289,7.1289,7.1289,7.1289,7.0939,7.0217,7.0217,6.9823,6.9079,6.9079,6.9079,6.9011,6.8233,6.7489,6.6745,6.6,6.5256,6.4512,6.3781,6.3057,6.24,6.24,6.1941,6.1298,6.1264,6.0264,5.8979,5.8979,5.849,5.79,5.79,5.79,5.79,5.79,5.79,5.7764,5.7002,5.6765,5.6605,5.5878,5.5664,5.5681,5.5681,5.5695,5.5709,5.5709,5.6313,5.6874,5.6874,5.7437,5.7939,5.7939,5.7962,5.7973,5.7937,5.7217,5.6362,5.5603,5.4796,5.4272,5.4283,5.3586,5.2789,5.1982,5.1899,5.1323,4.9859,4.9789,4.9503,4.8885,4.8825,4.8825,4.8789,4.8754,4.8387,4.7594,4.7594,4.7157,4.6318,4.6354,4.6354,3.8499,4.2301,4.6471,4.9979,5.3683,5.7034,5.9249,6.1304,6.291,6.3582,6.2659,6.196,6.2624,6.2692,6.3274,6.521,6.7554,6.939,7.0117,6.9316,6.7218,6.326,6.3632,6.3362,6.1076,6.4275,6.7421,6.9688,6.9857,7.0263,7.1255,7.1289,7.1289,7.1289,7.1289,7.1176,7.0939,7.0939,7.0567,6.9823,6.9316,6.9113,6.9079,6.8267,6.7489,6.6791,6.6542,6.573,6.458,6.4343,6.3497,6.24,6.24,6.1941,6.1366,6.1839,6.0757,5.9081,5.9554,5.893,5.8001,5.8457,5.8287,5.8009,5.8529,5.8686,5.8772,5.9099,5.8857,5.8268,5.7515,5.7697,5.7963,5.7411,5.8057,5.8669,5.8148,5.825,5.8251,5.7716,5.7821,5.7997,5.7997,5.7997,5.7997,5.7997,5.7336,5.6528,5.5695,5.5365,5.5218,5.5218,5.4961,5.4473,5.3665,5.3592,5.315,5.2126,5.2079,5.1956,5.1743,5.1235,5.0944,5.0944,5.0424,5.0014,4.976,4.976,4.9604,4.9302,4.8758,4.8514,4.278,4.6882,5.0953,5.467,5.8237,6.1237,6.2514,6.3977,6.479,6.4064,6.1812,5.989,5.962,5.9041,5.9374,6.1658,6.3965,6.6136,6.7929,6.6846,6.485,6.2042,6.2245,6.1772,5.9607,6.1839,6.4783,6.803,6.8808,6.962,7.0838,7.1176,7.1289,7.1289,7.1289,7.1289,7.1289,7.1289,7.1075,7.0567,6.9857,6.935,6.9079,6.8267,6.7489,6.6791,6.6791,6.6136,6.4952,6.4715,6.3903,6.2753,6.2482,6.211,6.1738,6.2231,6.1298,5.9859,6.0047,5.9133,5.8022,5.8771,5.8726,5.8459,5.9311,5.9574,5.9617,5.994,5.9843,5.9494,5.8745,5.9087,5.9556,5.9034,5.9675,6.0272,5.9747,5.9636,5.949,5.8951,5.8841,5.8767,5.8474,5.818,5.7997,5.7997,5.7556,5.7042,5.6539,5.6209,5.6014,5.6014,5.5768,5.5401,5.4876,5.484,5.462,5.4106,5.4069,5.3922,5.3654,5.3115,5.2711,5.2417,5.194,5.1536,5.1242,5.1242,5.1096,5.0802,5.0261,4.9858,4.716,5.1043,5.4336,5.7592,6.131,6.4142,6.416,6.4498,6.4545,6.3609,5.9907,5.697,5.7323,5.5229,5.4665,5.8287,5.9115,6.0603,6.4377,6.2415,6.1095,6.2415,6.0689,5.9622,6.0148,6.1028,6.299,6.6487,6.8132,6.935,7.0217,7.0939,7.1289,7.1289,7.1289,7.1289,7.1289,7.1289,7.1289,7.1222,7.0534,6.9789,6.9011,6.8233,6.7489,6.6791,6.6791,6.6373,6.5581,6.4884,6.414,6.3376,6.2651,6.24,6.24,6.24,6.1941,6.1197,6.0442,5.9241,5.8219,5.903,5.9266,5.9448,6.0266,6.0549,6.0438,5.9748,6.0082,6.0454,5.9677,6.0049,6.0566,6.0493,6.0493,6.0529,6.0456,6.0456,6.0456,6.0419,6.0419,6.015,5.9343,5.8572,5.8033,5.7997,5.7997,5.7997,5.7997,5.7336,5.6847,5.6847,5.6161,5.5695,5.5658,5.5658,5.5658,5.5585,5.5585,5.5254,5.4436,5.4399,5.4032,5.3214,5.3214,5.2821,5.206,5.206,5.1693,5.0902,5.0875,5.0435,5.1528,5.5448,5.9035,6.186,6.3722,6.4795,6.4727,6.4328,6.3156,6.0137,5.636,5.2963,5.0834,5.1193,5.3042,5.6779,6.0622,6.4478,6.8233,6.8098,6.6935,6.5074,6.485,6.4038,6.2009,6.3497,6.4952,6.5899,6.6846,6.847,7.0906,7.121,7.1289,7.1289,7.1289,7.1289,7.1289,7.1289,7.1041,7.0466,7.0297,6.9485,6.8199,6.7996,6.7489,6.6791,6.6791,6.6068,6.4884,6.4681,6.3835,6.2651,6.2448,6.24,6.24,6.24,6.1941,6.1293,6.1117,6.0873,6.0703,6.1449,6.1773,6.1895,6.2144,6.2594,6.3048,6.2935,6.3444,6.3722,6.226,6.2533,6.2842,6.1594,6.1741,6.2022,6.141,6.13,6.1117,6.0529,6.0419,6.015,5.9343,5.9049,5.8682,5.8107,5.7997,5.7997,5.7997,5.7813,5.7703,5.7703,5.7519,5.7152,5.6565,5.6492,5.6235,5.5658,5.5585,5.5254,5.4436,5.4399,5.4032,5.3214,5.3214,5.3104,5.2884,5.2884,5.2774,5.2553,5.1977,5.1583,5.5867,5.9039,6.1915,6.4015,6.4519,6.4246,6.3146,6.1721,5.9252,5.4173,5.0643,4.753,4.4553,4.579,4.8511,5.2283,5.7002,6.1873,6.6576,6.7252,6.7117,6.6711,6.6745,6.6149,6.4478,6.573,6.6812,6.7151,6.759,6.8707,7.0703,7.112,7.1289,7.1289,7.1289,7.1289,7.1289,7.1289,7.0939,7.0217,6.9857,6.9079,6.7895,6.7557,6.7184,6.6791,0.0,6.617,6.5053,6.4715,6.3937,6.2854,6.2516,6.24,6.24,6.24,6.2367,6.2345,6.2396,6.2943,6.3505,6.2502,6.2675,6.3313,6.3365,6.3912,6.4576,6.461,6.4971,6.4995,6.3723,6.3723,6.3772,6.2438,6.2462,6.2683,6.2218,6.2144,6.1998,6.1545,6.119,6.0786,6.0334,5.9673,5.9049,5.8572,5.8217,5.7997,5.7997,5.7997,5.7997,5.7997,5.7997,5.7813,5.7373,5.7336,5.7116,5.6686,5.665,5.6282,5.55,5.5097,5.4546,5.3728,5.3398,5.3214,5.3214,5.3214,5.3214,5.3177,5.2747,5.2344,5.9695,6.1701,6.3449,6.4881,6.4358,6.2924,6.065,5.794,5.4059,4.753,4.4418,4.1935,3.9073,4.0595,4.3639,4.7684,5.1961,5.6968,6.3342,6.4153,6.5134,6.7996,6.7793,6.7366,6.7265,6.7929,6.8605,6.9214,6.935,6.9654,7.0297,7.0973,7.1289,7.1289,7.1289,7.1289,7.1289,7.1188,7.077,7.0026,6.9282,6.8538,6.7726,6.7096,6.6791,6.6791,6.6791,6.6339,6.5514,6.485,6.4106,6.3274,6.2651,6.24,6.24,6.24,6.2935,6.3684,6.3706,6.4897,6.5935,6.312,6.3255,6.448,6.4435,6.4971,6.5582,6.5472,6.5545,6.5448,6.4653,6.436,6.4053,6.316,6.2866,6.2793,6.2793,6.2793,6.2793,6.2793,6.2254,6.1741,6.163,6.0456,5.949,5.938,5.8682,5.8143,5.8143,5.807,5.7997,5.7997,5.7997,5.7997,5.7997,5.7997,5.7997,5.7997,5.7997,5.7629,5.6811,5.6124,5.539,5.4583,5.3885,5.3508,5.3508,5.3398,5.3361,5.3361,5.3251,5.2821,6.1164,6.2391,6.3555,6.546,6.3939,6.1515,5.9651,5.5103,4.971,4.4228,4.1305,3.9039,3.6625,3.9546,4.4113,4.9713,5.3365,5.8438,6.6948,6.7557,6.803,7.041,7.0579,7.0297,6.9654,7.0297,7.0534,7.0026,7.0567,7.0973,7.1109,7.1222,7.1289,7.1289,7.1289,7.1289,7.1289,7.0703,7.0026,6.9282,6.8504,6.7726,6.7015,6.6859,6.6791,6.6791,6.6791,0.0,6.4783,6.4647,6.3802,6.2584,6.2468,6.24,6.24,6.24,6.2935,6.3705,6.3758,6.4924,6.6295,6.5754,6.6242,6.6915,6.6303,6.6659,6.7136,6.6476,6.6769,6.7113,6.6292,6.5595,6.4897,6.4053,6.3319,6.2793,6.2793,6.2793,6.2793,6.2793,6.2683,6.2389,6.1704,6.1374,6.097,6.0309,5.949,5.8976,5.8976,5.84,5.7997,5.7997,5.7997,5.7997,5.7997,5.7997,5.7997,5.7997,5.7997,5.7629,5.6811,5.6675,5.6198,5.5401,5.5254,5.5181,5.5181,5.4509,5.4179,5.4179,5.3508,5.3141,6.2361,6.362,6.478,6.5332,6.2601,5.8937,5.566,5.0033,4.3978,3.8734,3.6806,3.5757,3.4664,3.8113,4.2476,4.65,5.0338,5.5513,6.3328,6.4783,6.644,7.0263,7.1075,7.1176,7.0804,7.1086,7.1154,7.0804,7.1109,7.1289,7.1289,7.1289,7.1289,7.1289,7.1289,7.1289,7.1289,7.0567,6.9823,6.9079,6.8267,6.7523,6.6791,6.6791,6.6791,6.6757,6.6406,6.5831,6.5121,6.4749,6.3971,6.2956,6.2956,6.2753,6.2459,6.2912,6.3628,6.4442,6.4967,6.5998,6.7089,6.7089,6.7378,6.7554,6.6733,6.7063,6.7627,6.7223,6.7407,6.7517,6.6696,6.6219,6.5705,6.4934,6.409,6.3356,6.2903,6.2793,6.2793,6.2793,6.2793,6.2683,6.2291,6.1887,6.1484,6.108,6.0346,5.9673,5.9269,5.8866,5.8474,5.8033,5.7997,5.7997,5.7997,5.7997,5.7997,5.7997,5.7997,5.7813,5.7446,5.7042,5.6638,5.6235,5.5805,5.5585,5.5585,5.4803,5.4399,5.4399,5.3995,5.3581,6.3078,6.4343,6.5444,6.4615,6.0867,5.6165,5.153,4.5317,3.9094,3.4167,3.3152,3.322,3.3379,3.6558,4.0062,4.2949,4.6515,5.1436,5.8626,6.1095,6.4059,6.9134,7.0669,7.1289,7.1289,7.1289,7.1289,7.1289,7.1289,7.1289,7.1289,7.1289,7.1289,7.1289,7.1289,7.1289,7.1289,7.0398,6.9654,6.9079,6.8132,6.7354,6.6791,6.6791,6.6791,6.6757,6.6203,6.5852,6.567,6.5284,6.4616,6.38,6.4001,6.3619,6.3049,6.3737,6.4547,6.541,6.6156,6.6967,6.77,6.77,6.77,6.759,6.6953,6.7187,6.77,6.77,6.77,6.7554,6.6916,6.6623,6.6292,6.5472,6.4677,6.3919,6.3246,6.2939,6.2793,6.2793,6.2793,6.2793,6.2793,6.2291,6.1851,6.1851,6.119,6.0419,5.9783,5.9416,5.9013,5.8547,5.8217,5.7997,5.7997,5.7997,5.7997,5.7997,5.7997,5.7997,5.7997,5.7409,5.7068,5.7068,5.6418,5.6099,5.6099,5.5317,5.4913,5.4913,5.473,5.4326,6.2928,6.3645,6.3991,6.3119,5.8915,5.3804,4.9227,4.3017,3.711,3.3197,3.2395,3.2598,3.3288,3.4833,3.7628,4.2611,4.435,4.8154,5.6885,6.0013,6.3057,6.759,6.9992,7.1289,7.1289,7.1289,7.1289,7.1289,7.1289,7.1289,7.1289,7.1289,7.1289,7.1289,7.1289,7.1289,7.1289,6.9891,6.918,6.9079,6.7624,6.6859,6.6791,6.6791,6.6791,6.6791,6.6745,6.6305,0.0,6.6559,6.6013,6.4754,6.5636,6.5471,6.4766,6.485,6.5474,6.6262,6.6374,6.6967,6.77,6.77,6.77,6.77,6.7627,6.7627,6.77,6.77,6.77,6.7664,6.7627,6.704,6.6292,6.5472,6.4677,6.4066,6.3992,6.3356,6.2793,6.2793,6.2793,6.2793,6.2793,6.2756,6.2683,6.2683,6.1998,6.1459,6.1374,6.0114,5.9453,6.0126,5.8877,5.7997,5.7997,5.7997,5.7997,5.7997,5.7997,5.7997,5.7997,5.7923,5.7886,5.7886,5.7813,5.7776,5.7776,5.6969,5.659,5.6554,5.5831,5.5438,6.2174,6.4182,6.4831,6.3018,5.8244,5.2684,4.7713,4.1001,3.5182,3.2801,3.1955,3.2012,3.3176,3.3886,3.5543,3.9466,3.9999,4.2536,5.015,5.2384,5.6072,6.3666,6.617,6.8335,7.1019,7.1289,7.1289,7.1289,7.1289,7.1109,7.0669,7.0635,7.0635,7.0635,7.0635,7.0432,6.9992,6.9383,6.8876,6.8368,6.732,6.6791,6.6791,6.6791,6.6791,6.6757,6.5844,6.5831,0.0,6.64,6.6337,6.6273,6.7253,6.7139,6.6498,6.7095,6.7528,6.7867,6.7891,6.8137,6.8348,6.7847,6.77,6.77,6.77,6.77,6.77,6.77,6.77,6.77,6.77,6.748,6.704,6.6219,6.5411,6.4677,6.4213,6.3429,6.2793,6.2793,6.2793,6.2793,6.2793,6.2793,6.2793,6.2793,6.2536,6.2144,6.1667,6.1043,6.0566,6.0407,5.8951,5.8217,5.8682,5.829,5.7997,5.7997,5.7997,5.7997,5.7997,5.7997,5.7997,5.7997,5.7997,5.7997,5.7997,5.7189,5.6811,5.6774,5.6455,5.6051,5.9725,6.2751,6.4023,6.1763,5.6968,5.137,4.594,3.9411,3.4009,3.2317,3.1752,3.1911,3.3186,3.3582,3.4573,3.7144,3.7494,3.9491,4.5345,4.7545,5.1436,5.9186,6.1772,6.4613,6.8888,7.0511,7.1289,7.1289,7.1289,7.0973,7.0229,6.9992,6.9857,6.9857,6.9857,6.9676,6.9292,6.8931,6.8504,6.8018,6.7184,6.6791,6.6791,6.6791,6.6677,6.6461,6.5909,6.6153,0.0,6.7074,6.7462,6.7991,6.8734,6.8721,6.8299,6.8934,6.9168,6.9185,6.9231,6.9119,6.8825,6.8238,6.7884,6.77,6.77,6.77,6.77,6.77,6.77,6.77,6.77,6.77,6.7554,6.7003,6.6256,6.5448,6.464,6.3796,6.3086,6.2866,6.3013,6.3086,6.2829,6.3013,6.3086,6.2829,6.2793,6.2609,6.2034,6.1741,6.1484,6.1141,5.9685,5.8951,5.9526,5.8829,5.8364,5.8364,5.8143,5.7997,5.7997,5.7997,5.7997,5.7997,5.7997,5.7997,5.7997,5.7446,5.7141,5.7141,5.7141,5.6859,5.52,5.8459,6.0482,5.8608,5.4649,4.9645,4.3673,3.8273,3.3874,3.1674,3.1775,3.252,3.3254,3.3998,3.499,3.6558,3.8036,4.0303,4.4093,4.7782,5.1233,5.4313,5.7273,6.0535,6.4309,6.8707,7.1289,7.1289,7.1289,7.0973,7.0229,6.9519,6.9113,6.9113,6.9113,6.9347,6.9795,6.8535,6.8039,6.8285,6.7273,6.6791,6.6791,6.6791,6.6406,6.5812,6.7463,6.7754,0.0,6.9085,6.9857,6.9879,7.004,7.0096,7.0059,7.0059,7.011,7.011,7.0073,6.9559,6.8885,6.8885,6.8348,6.77,6.77,6.77,6.77,6.77,6.77,6.77,6.77,6.77,6.77,6.77,6.7076,6.6256,6.5472,6.464,6.3833,6.2976,6.3503,6.3796,6.2939,6.3503,6.3796,6.2939,6.2793,6.2793,6.2793,6.2108,6.1887,6.2683,6.1325,6.0382,6.037,5.9636,5.9196,5.9196,5.8437,5.7997,5.7997,5.7997,5.7997,5.7997,5.7997,5.7997,5.7997,5.7997,5.7997,5.7997,5.7997,5.796,4.8426,5.1101,5.2348,5.03,4.7033,4.3335,3.9423,3.5678,3.2655,3.1437,3.1403,3.1775,3.252,3.2418,3.3558,3.763,3.8261,3.9546,4.3267,4.6989,5.1014,5.5581,6.2787,6.7873,6.9057,7.0466,7.1289,7.1289,7.1289,7.0748,6.9519,6.9214,6.8842,6.8301,6.8267,6.8119,6.7734,6.7849,6.7692,6.7273,6.6948,6.6791,6.6791,6.6791,6.7025,6.7409,6.743,6.7685,6.8116,6.8828,6.911,6.9193,7.0456,7.0903,7.0991,7.1541,7.1725,7.1651,7.1087,7.0756,7.0353,6.9252,6.8752,6.8421,6.7884,6.77,6.77,6.77,6.77,6.77,6.77,6.77,6.77,6.77,6.71,6.6292,6.5472,6.5105,6.4677,6.3833,6.4347,6.4824,6.4554,6.4738,6.464,6.3796,6.3686,6.3686,6.3686,6.2952,6.2768,6.3613,6.2695,6.1802,6.1263,5.9967,5.9196,5.9196,5.8425,5.7997,5.7997,5.7997,5.7997,5.7997,5.7997,5.7997,5.7997,5.7997,5.7997,5.7997,5.7997,5.7997,4.1931,4.4871,4.6117,4.4605,4.2111,3.9228,3.6197,3.3637,3.1674,3.0954,3.1224,3.1752,3.2226,3.2148,3.3186,3.675,3.7427,3.8667,4.2104,4.579,5.0304,5.6122,6.3903,6.8876,6.918,7.0466,7.1289,7.1289,7.1289,7.0669,6.918,6.9113,6.8605,6.7523,6.7489,6.7252,6.6791,6.7252,6.7252,6.6791,6.6791,6.6791,6.6791,6.6791,6.7175,6.7792,6.7982,6.8275,0.0,6.9105,6.9424,6.9781,7.0535,7.1197,7.1821,7.2312,7.2312,7.2004,7.1821,7.116,7.0279,6.9596,6.8935,6.8348,6.7847,6.77,6.7774,6.8068,6.7921,6.7774,6.8054,6.7921,6.77,6.77,6.7333,6.6733,6.5925,6.5742,6.5521,6.4714,6.5191,6.5655,6.5362,6.5545,6.5485,6.4677,6.4273,6.4213,6.4494,6.3796,6.3503,6.4029,6.3613,6.2952,6.2108,6.086,6.0114,6.0114,5.9355,5.8767,5.8474,5.8437,5.8327,5.7997,5.7997,5.7997,5.7997,5.7997,5.7997,5.7997,5.7997,5.7997,0.0,3.9345,4.1149,4.0602,3.8944,3.67,3.3745,3.2036,0.0,3.0234,3.12,3.2192,3.2361,3.2848,3.3592,3.4652,3.6005,3.8002,4.1035,4.4993,4.9965,5.6427,6.1772,6.5155,6.5696,6.9079,7.1222,7.1222,7.1222,7.0601,6.9079,6.8977,6.8267,6.6757,6.6656,6.6656,6.6724,6.6724,6.6724,6.6724,6.6757,6.6791,6.6812,6.6875,6.7058,0.0,6.9086,6.9475,6.9043,6.9864,7.0587,7.116,7.044,7.1101,7.2422,7.2496,7.1967,7.1417,7.2151,7.0917,6.9119,6.9779,6.8972,6.77,6.77,6.77,6.7884,6.8678,6.8311,6.7921,6.8752,6.8348,6.77,6.7774,6.7737,6.748,6.6659,6.6549,6.6366,6.5545,6.6035,6.6366,6.5582,6.6109,6.6329,6.5508,6.4751,6.453,6.5288,6.4677,6.4213,6.4249,6.4213,6.3833,6.2976,6.2108,6.1606,6.1606,6.086,6.004,5.9233,5.9196,5.8829,5.8033,5.7997,5.7997,5.7997,5.7997,5.7997,5.7997,5.7997,5.7997,2.8501,0.0,3.2155,3.1417,3.1185,3.0951,0.0,2.9788,2.9644,3.0031,3.0378,3.1123,3.2848,3.2374,3.3085,3.7246,3.8239,3.9728,4.3281,5.0421,5.6749,6.0622,6.5189,6.7658,6.6643,6.891,7.0466,7.0466,7.0466,6.9789,6.8267,6.7658,6.6914,6.5967,6.5425,6.5392,6.5933,6.5967,6.5967,6.5967,6.6542,6.6791,6.6833,6.7541,6.8312,6.9157,7.0276,7.0744,7.0734,7.0942,7.077,7.044,7.083,7.1233,7.1674,7.2275,7.1967,7.1344,7.1527,7.0807,6.9743,6.9339,6.8495,6.77,6.77,6.77,6.7884,6.8678,6.8311,6.8031,6.9449,6.8752,6.7847,6.8458,6.8128,6.748,6.6659,6.699,6.7187,6.6366,6.688,6.737,6.7187,6.7297,6.715,6.6329,6.6072,6.5999,6.6182,6.5521,6.5264,6.5852,6.5375,6.4677,6.387,6.245,6.1606,6.1606,6.086,6.004,5.9233,5.9196,5.8829,5.8033,5.7997,5.7997,5.7997,5.7997,5.7997,5.7997,5.7997,5.7997,2.5613,2.7374,2.8915,2.866,2.8836,2.9082,2.9022,2.8696,2.8653,2.9431,2.9871,3.0673,3.2554,3.251,3.3355,3.6874,3.8587,4.1407,4.6853,5.2976,5.8389,6.2415,6.5662,6.7624,6.7827,6.8977,6.9688,6.9688,6.9688,6.9147,6.7963,6.7218,6.6474,6.5717,6.4647,6.4444,6.5189,6.5189,6.5189,6.5189,6.5595,6.5797,6.5818,6.6308,6.7069,6.8041,6.8937,6.9465,6.9624,7.0043,6.9949,6.9633,7.044,7.0977,7.1344,7.1784,7.1417,7.077,7.077,7.022,6.9412,6.8605,6.8054,6.77,6.77,6.7958,6.8421,6.9229,6.8862,6.8605,7.022,6.9449,6.8458,6.9265,6.8825,6.8128,6.7687,6.7944,6.8017,6.7223,6.7407,6.77,6.77,6.77,6.7554,6.71,6.6733,6.6623,6.699,6.6366,6.6035,6.6439,6.6109,6.5521,6.4714,6.3466,6.2585,6.2181,6.1741,6.1141,6.0334,6.0297,5.9747,5.8572,5.8914,5.8731,5.7997,5.8364,5.8364,5.7997,5.7997,5.7997,2.5299,2.7264,2.9019,2.887,2.9013,2.9098,2.8866,2.8281,2.8069,2.8967,2.9736,3.0784,3.2486,3.3322,3.4326,3.614,3.9196,4.3747,5.0897,5.4481,5.8066,6.2632,6.4749,6.6542,6.8267,6.8707,6.891,6.891,6.8808,6.8402,6.7624,6.6779,6.6034,6.5358,6.4038,6.3612,6.4275,6.4377,6.4444,6.4444,6.4546,6.4613,6.4613,6.4762,6.5333,6.6236,0.0,0.0,6.8047,6.8795,6.9082,6.9155,6.9816,7.0513,7.1123,7.1123,7.0624,6.9889,6.9779,6.9302,6.8605,6.7921,6.77,6.77,6.77,6.8238,6.9082,6.9853,6.9596,6.9435,7.105,7.0279,6.9302,7.0073,6.9669,6.9045,6.8921,6.8885,6.8715,6.8031,6.7884,6.7921,6.8068,6.7958,6.7884,6.7884,6.721,6.6916,6.7627,6.7113,6.6659,6.6659,6.6659,6.6366,6.5545,6.4861,6.409,6.3233,6.2939,6.2426,6.1643,6.1484,6.0786,5.9416,6.004,5.9722,5.8364,5.9049,5.9013,5.8364,5.8253,5.818,2.6422,2.9025,3.0429,2.7769,2.8073,2.8842,2.8153,2.7891,2.8196,2.9625,3.0514,3.1867,3.4596,3.5205,3.6389,3.977,4.393,4.8665,5.4245,5.7577,5.9979,6.1467,6.4613,6.6271,6.5392,6.6981,6.8098,6.8098,6.7523,6.6846,6.6089,6.4749,6.3951,6.3849,6.3024,6.2618,6.2739,6.3362,6.3646,6.368,6.4309,6.4613,6.4654,6.5416,6.6254,6.7145,0.0,6.902,6.9736,6.9848,6.9926,6.9926,7.0036,7.0183,7.0293,7.0293,6.9779,6.9009,6.8311,6.7994,6.7847,6.7737,6.77,6.77,6.77,6.8238,6.9082,6.9853,7.0,7.0293,7.1908,7.1138,7.011,7.0903,7.0513,6.9743,6.9045,6.8885,6.8862,6.8752,6.8715,6.8935,6.9596,6.9155,6.8715,6.8715,6.8017,6.7554,6.7664,6.759,6.7517,6.7517,6.7517,6.7187,6.6366,6.6182,6.5778,6.4958,6.3563,6.2426,6.1643,6.0933,6.0456,6.0224,6.0346,6.0272,6.0015,6.0162,6.0162,6.0015,5.9343,5.9013,2.58,2.8431,3.0385,2.8903,3.0287,3.1674,3.048,2.9939,3.0065,3.1586,3.2138,3.3311,3.6287,3.7809,4.0379,4.5722,4.8665,5.1691,5.5733,5.7476,5.9201,6.1603,6.3396,6.4783,6.5696,6.6339,6.688,6.7286,6.6271,6.5628,6.5717,6.4309,6.3511,6.3511,6.2787,6.24,6.24,6.2719,6.2922,6.2922,6.326,6.3396,6.3416,6.3859,6.4537,6.5408,0.0,6.7245,6.8153,6.86,6.8802,6.8839,6.9265,6.9449,6.9449,6.9449,6.8935,6.8201,6.7847,6.77,6.77,6.77,6.77,6.77,6.77,6.8568,6.9633,7.0,7.0403,7.1027,7.2202,7.1651,7.094,7.1747,7.1307,7.0646,7.0279,7.0206,7.0059,6.9633,6.9559,6.9669,7.0036,6.9449,6.8885,6.8885,6.8201,6.77,6.77,6.8091,6.8164,6.7737,6.8104,6.8017,6.7223,6.6733,6.5962,6.4714,6.3943,6.3135,6.2291,6.1875,6.1471,6.1043,6.1484,6.1251,6.0419,6.086,6.0823,6.037,6.0003,5.9636,2.5423,2.7986,3.0301,3.0132,3.1935,3.367,3.341,3.2621,3.2544,3.4562,3.5103,3.5915,3.8249,4.0933,4.4606,5.0288,5.2418,5.4329,5.7171,5.7881,5.9302,6.2516,6.3077,6.4038,6.6339,6.6034,6.5865,6.625,6.5087,6.458,6.5155,6.3937,6.324,6.324,6.2685,6.2333,6.2144,6.2144,6.2212,6.24,6.24,6.24,6.24,6.2601,6.3199,6.406,6.4916,6.5857,6.6765,6.7433,6.77,6.7774,6.8385,6.8605,6.8605,6.8605,6.8238,6.77,6.77,6.77,6.77,6.77,6.77,6.7737,6.7921,6.8985,7.0146,7.033,7.094,7.1711,7.2349,7.2041,7.1747,7.2349,7.2041,7.1527,7.1344,7.1307,7.1123,7.0513,7.0367,7.044,7.0624,7.0,6.9472,6.9472,6.8788,6.8178,6.8031,6.8531,6.8605,6.7811,6.8238,6.8385,6.7737,6.715,6.6182,6.4763,6.4323,6.3723,6.2829,6.3013,6.2732,6.1887,6.2499,6.2205,6.0958,6.1594,6.1557,6.0958,6.0786,6.0346,2.668,2.9138,3.0954,3.0267,3.0784,3.2317,3.5712,3.5329,3.5284,3.8891,4.0176,4.0696,4.0933,4.4505,4.8259,5.0795,5.416,5.7273,5.9539,6.1095,6.2618,6.4241,6.5053,6.5547,6.5784,6.5751,6.5425,6.4816,6.4038,6.3612,6.3646,6.2922,6.2502,6.2502,6.2434,6.2076,6.14,6.1366,6.1704,6.24,6.24,6.24,6.242,6.3255,6.4095,6.4949,6.5889,6.6809,6.762,6.7674,6.77,6.77,6.7774,6.7811,6.7811,6.7811,6.7737,6.77,6.77,6.77,6.77,6.77,6.77,6.7847,6.8605,6.9412,7.0257,7.1013,7.1784,7.2422,7.2496,7.2459,7.2422,7.2496,7.2459,7.2202,7.1454,7.1307,7.127,7.1233,7.1197,7.1454,7.2202,7.1637,7.1123,7.1123,7.044,6.9669,6.8898,6.8848,6.8605,6.7811,6.7737,6.7774,6.77,6.7664,6.726,6.6366,6.4947,6.3723,6.2829,6.3576,6.3613,6.2719,6.2756,6.2756,6.2646,6.2683,6.2683,6.2609,6.1851,6.1484,2.6115,2.8824,3.1234,3.1437,3.2713,3.4438,3.6344,3.7765,3.9478,4.232,4.3842,4.4823,4.5283,4.7887,5.0829,5.3568,5.6341,5.8964,6.1197,6.2028,6.2787,6.3802,6.4174,6.4512,6.4952,6.4613,6.441,6.458,6.3497,6.2821,6.2821,6.211,6.1501,6.0994,6.096,6.0825,6.0554,6.0554,6.0689,6.096,6.096,6.1779,6.3202,6.2552,6.3303,6.5049,6.492,6.5341,6.6219,6.6219,6.6512,6.699,6.7517,6.7407,6.699,6.7517,6.77,6.77,6.77,6.77,6.77,6.77,6.77,6.7847,6.8678,6.9449,7.0257,7.1087,7.1857,7.2496,7.2496,7.2496,7.2496,7.2496,7.2496,7.2422,7.2114,7.2041,7.2041,7.2041,7.2041,7.2151,7.2459,7.1821,7.1307,7.1307,7.0624,6.9816,6.9009,6.9765,6.9706,6.7884,6.77,6.77,6.77,6.726,6.6806,6.6512,6.5925,6.5228,6.4371,6.4664,6.4677,6.4371,6.387,6.3613,6.3613,6.305,6.2793,6.2793,6.2499,6.2071,2.5709,2.8223,3.0693,3.1437,3.3626,3.6186,3.8362,4.0629,4.3098,4.609,4.7124,4.78,4.8766,5.0186,5.2182,5.5225,5.7762,6.008,6.211,6.24,6.2651,6.3409,6.3511,6.368,6.4208,6.3599,6.326,6.3531,6.2381,6.167,6.167,6.1197,6.0655,6.0114,6.0114,5.9979,5.9742,5.9742,5.9742,5.9742,5.9268,6.0432,6.2939,6.2161,6.2869,6.4693,6.4468,6.4713,6.5288,6.5288,6.5618,6.6219,6.699,6.699,6.6586,6.7407,6.77,6.77,6.77,6.77,6.77,6.77,6.7884,6.8164,6.8752,6.9449,7.022,7.077,7.1321,7.1725,7.1725,7.2129,7.2496,7.2496,7.2496,7.2496,7.2496,7.2496,7.2422,7.2165,7.2349,7.2422,7.2151,7.1857,7.1674,7.1674,7.1211,7.0587,6.9765,7.061,7.0463,6.8311,6.7847,6.7811,6.8068,6.732,6.699,6.7247,6.7026,6.6402,6.5325,6.5545,6.5545,6.5288,6.4494,6.4103,6.4103,6.3246,6.2793,6.2793,6.2793,6.2499,2.5781,2.7487,2.9204,2.9939,3.2895,3.7019,4.2226,4.4045,4.5887,5.0322,5.0051,4.9492,5.0964,5.1235,5.2216,5.5225,5.8168,6.0622,6.2164,6.24,6.2651,6.3376,6.3477,6.3477,6.3477,6.2821,6.2076,6.1332,6.0554,6.0114,6.008,6.008,6.008,6.008,6.0047,5.9708,5.8979,5.8979,5.8979,5.8945,5.7476,5.8419,6.1449,6.2258,6.3117,6.3964,6.4875,6.5288,6.5288,6.5288,6.5288,6.5362,6.6182,6.6512,6.6586,6.7407,6.77,6.77,6.77,6.77,6.77,6.77,6.8238,6.8885,6.8885,6.9449,7.0073,7.011,7.011,7.011,7.011,7.1284,7.2496,7.2496,7.2496,7.2496,7.2496,7.2496,7.2275,7.1454,7.1931,7.2261,7.1454,7.1967,7.2496,7.2496,7.2496,7.2202,7.1417,7.1307,7.0683,6.9082,6.8201,6.8017,6.8825,6.8164,6.8068,6.8862,6.8128,6.699,6.5398,6.6109,6.6145,6.5325,6.453,6.4139,6.4103,6.3246,6.2793,6.2793,6.2793,6.2793,2.6619,2.8495,3.0862,3.2104,3.6017,4.0514,4.4167,4.5602,4.7579,5.257,5.2841,5.23,5.2723,5.3247,5.4228,5.6156,5.8084,5.9877,6.14,6.1637,6.1501,6.1163,6.1129,6.1129,6.1129,6.0926,6.0689,6.0486,6.0216,5.9877,5.9351,5.8829,5.8321,5.7814,5.7273,5.6883,5.668,5.668,5.668,5.668,5.6748,5.8727,6.2291,6.0921,6.1673,6.3998,6.3694,6.3527,6.36,6.42,6.409,6.3747,6.5742,6.6145,6.5742,6.6549,6.6843,6.6843,6.6843,6.6843,6.6953,6.7517,6.7847,6.8164,6.8752,6.9082,6.9376,6.9926,7.011,7.011,7.011,7.044,7.0807,7.0807,7.1688,7.2349,7.1784,7.2078,7.2422,7.2188,7.2349,7.2422,7.2188,7.2349,7.2496,7.2496,7.2496,7.2202,7.1417,7.0316,6.9435,6.8958,6.8678,6.8641,6.8898,6.9192,6.9229,6.8921,6.8678,6.8091,6.7026,6.7223,6.7223,6.7003,6.6182,6.5521,6.4934,6.4127,6.3723,6.3723,6.3723,6.3723,2.7543,2.9373,3.1911,3.4878,3.8667,4.2658,4.6549,4.8714,5.1048,5.5091,5.4871,5.4126,5.4702,5.4702,5.5175,5.6934,5.8254,5.9419,6.0655,6.0825,6.0655,6.0148,6.0114,6.0114,6.0114,5.9573,5.9235,5.9235,5.8693,5.8168,5.7694,5.7273,5.6833,5.6393,5.5936,5.5699,5.5699,5.5699,5.5699,5.5716,5.6159,5.7952,6.0837,5.9748,6.0485,6.2622,6.2401,6.2499,6.2829,6.3356,6.327,6.2976,6.4824,6.5264,6.4934,6.5742,6.6035,6.6035,6.6035,6.6219,6.6586,6.7076,6.7664,6.8201,6.8385,6.8641,6.8921,6.9082,6.9169,6.9169,6.9169,6.9376,6.9779,7.044,7.1321,7.1967,7.1821,7.2151,7.2422,7.2092,7.2275,7.2422,7.2078,7.2312,7.2496,7.2496,7.2496,7.2312,7.1821,7.0646,6.9729,6.9412,6.9376,6.9376,6.9376,6.9816,6.9889,6.9412,6.9082,6.8531,6.7737,6.77,6.77,6.77,6.6916,6.6256,6.5765,6.4971,6.4567,6.4567,6.4567,6.4567,2.8527,3.0219,3.2655,3.79,4.117,4.4432,4.9372,5.2621,5.5159,5.7121,5.6072,5.5209,5.6562,5.575,5.5581,5.7645,5.8558,5.9216,5.9911,6.0013,5.9979,5.9911,5.9844,5.981,5.981,5.8524,5.7697,5.7697,5.6461,5.5699,5.5699,5.5631,5.5597,5.5597,5.553,5.5496,5.5496,5.5496,5.5496,5.5513,5.5657,5.6477,5.7913,5.8725,5.959,6.0456,6.1263,6.1998,6.2683,6.2756,6.2793,6.2903,6.3759,6.4103,6.4213,6.4934,6.5178,6.5178,6.5178,6.5668,6.6292,6.6439,6.7504,6.8568,6.7921,6.8201,6.8641,6.7921,6.77,6.77,6.77,6.8238,6.9192,7.072,7.1197,7.149,7.2129,7.2386,7.2275,7.1564,7.2004,7.2275,7.1527,7.2004,7.2496,7.2496,7.2496,7.2459,7.2422,7.1747,7.094,7.0073,7.011,7.0183,7.011,7.022,7.0257,7.011,6.9412,6.8605,6.7737,6.77,6.77,6.77,6.699,6.6549,6.6512,6.5765,6.5398,6.5398,6.5398,6.5398,2.9567,3.135,3.4167,3.9411,4.506,5.0067,5.2993,5.4143,5.4566,5.4465,5.5446,5.6427,5.6731,5.7002,5.7543,5.8573,5.8878,5.9047,5.9216,5.925,5.9032,5.8423,5.7848,5.7509,5.7509,5.6697,5.6172,5.6172,5.5868,5.5699,5.5699,5.5141,5.4837,5.4837,5.4296,5.3974,5.3974,5.3974,5.3974,5.4008,5.5166,5.587,5.6269,5.7676,5.9107,6.0456,6.1263,6.1704,6.1924,6.2536,6.2793,6.2903,6.3759,6.4103,6.4139,6.4273,6.4347,6.4347,6.4347,6.4457,6.4837,6.6072,6.6733,6.71,6.7554,6.7811,6.7921,6.7737,6.77,6.77,6.77,6.7847,6.8201,6.9192,7.0389,7.116,7.0734,7.1615,7.2459,7.2275,7.2386,7.2459,7.2275,7.2386,7.2496,7.2496,7.2496,7.2275,7.1637,7.1417,7.0756,6.9302,7.0279,7.0793,7.0146,7.1248,7.1431,7.0183,6.9926,6.9192,6.7774,6.77,6.77,6.77,6.7517,6.715,6.6512,6.6329,6.6256,6.6256,6.6256,6.6256,3.0142,3.2499,3.5983,4.232,4.7564,5.1607,5.3145,5.3484,5.3484,5.3518,5.4972,5.6393,5.6731,5.7103,5.7509,5.7863,5.8254,5.8355,5.8017,5.7931,5.7814,5.7408,5.6731,5.6274,5.6274,5.5615,5.5175,5.5175,5.4853,5.4651,5.4651,5.4296,5.4059,5.4059,5.3687,5.3518,5.3518,5.3518,5.3701,5.4026,5.5144,5.6087,5.685,5.7676,5.8714,5.9857,6.026,6.0676,6.108,6.1887,6.2218,6.2328,6.3135,6.3466,6.3466,6.3466,6.3466,6.3466,6.3466,6.3759,6.4323,6.5521,6.6182,6.6659,6.748,6.77,6.77,6.77,6.77,6.77,6.77,6.77,6.7811,6.8238,6.9265,7.0243,7.0587,7.1307,7.2041,7.2422,7.2496,7.2496,7.2496,7.2496,7.2496,7.2496,7.2496,7.2349,7.1931,7.1857,7.1417,7.0169,7.1123,7.1527,7.072,7.1417,7.138,7.0183,6.9743,6.8972,6.7737,6.77,6.77,6.77,6.77,6.748,6.7076,6.7076,6.7076,6.7076,6.7076,6.7076,3.0219,3.3628,3.8031,4.493,4.8901,5.1251,5.1861,5.2046,5.23,5.2976,5.4397,5.5699,5.6325,5.6528,5.663,5.663,5.7137,5.7306,5.6697,5.663,5.663,5.663,5.5936,5.5496,5.5496,5.4837,5.4397,5.4397,5.3856,5.3518,5.3518,5.3518,5.3518,5.3518,5.3518,5.345,5.3281,5.3281,5.3544,5.4039,5.501,5.6312,5.7813,5.7923,5.8364,5.9013,5.9159,5.96,6.0272,6.1043,6.1484,6.1667,6.2316,6.2683,6.2793,6.2793,6.2793,6.2793,6.2793,6.327,6.4016,6.4824,6.5632,6.6439,6.726,6.759,6.77,6.77,6.77,6.77,6.77,6.77,6.77,6.77,6.8201,6.9119,7.0573,7.0977,7.1344,7.2151,7.2422,7.2496,7.2496,7.2496,7.2496,7.2496,7.2496,7.2496,7.2496,7.2496,7.2188,7.138,7.2004,7.2165,7.138,7.1417,7.1087,7.0146,6.9486,6.8678,6.7737,6.77,6.77,6.77,6.77,6.77,6.77,6.77,6.77,6.77,6.77,6.77,2.96,3.479,4.0565,4.499,4.8379,5.0622,5.0716,5.1053,5.137,5.1472,5.3247,5.4769,5.4888,5.5412,5.5834,5.5834,5.5936,5.5969,5.5868,5.5834,5.5834,5.5834,5.5209,5.4753,5.4753,5.4093,5.3653,5.3653,5.3551,5.3518,5.3518,5.3518,5.3518,5.3518,5.3518,5.3179,5.2469,5.2469,5.218,5.1665,5.3775,5.5525,5.6957,5.7666,5.807,5.8217,5.8902,5.9269,5.9416,6.0236,6.097,6.1606,6.1704,6.2181,6.2793,6.2793,6.2793,6.2793,6.2793,6.2866,6.3123,6.398,6.4787,6.5632,6.6402,6.7136,6.77,6.77,6.77,6.77,6.77,6.77,6.77,6.77,6.7774,6.8091,6.9009,6.9779,7.0513,7.1307,7.2004,7.2496,7.2496,7.2496,7.2496,7.2496,7.2496,7.2496,7.2496,7.2496,7.2188,7.138,7.2004,7.2165,7.138,7.1931,7.1688,7.0183,7.0,6.9279,6.7774,6.77,6.77,6.77,6.77,6.77,6.77,6.77,6.77,6.77,6.77,6.77,2.8971,3.3438,3.8824,4.3934,4.6534,4.8135,4.9396,5.0121,5.071,5.11,5.1979,5.2976,5.3822,5.46,5.5074,5.5074,5.5428,5.5564,5.5141,5.5074,5.5074,5.5074,5.4431,5.3991,5.3991,5.3281,5.301,5.3484,5.2689,5.2385,5.2807,5.2435,5.2216,5.2216,5.2216,5.2046,5.1674,5.1674,5.1952,5.2433,5.4275,5.5509,5.6161,5.6969,5.7556,5.8033,5.8364,5.8547,5.8584,5.938,5.993,6.0346,6.1263,6.1814,6.2181,6.2646,6.2793,6.2793,6.2793,6.2793,6.2939,6.3796,6.4347,6.4787,6.5595,6.6402,6.7026,6.7026,6.737,6.77,6.77,6.77,6.77,6.77,6.77,6.7921,6.8752,6.9522,7.0477,7.1711,7.2275,7.2496,7.2496,7.2496,7.2496,7.2496,7.2496,7.2496,7.2496,7.2496,7.2349,7.2004,7.2312,7.2349,7.2004,7.1468,7.0844,7.0146,6.9669,6.9119,6.8385,6.8802,6.8839,6.8385,6.7921,6.77,6.77,6.77,6.77,6.77,6.77,6.77,2.8096,3.1123,3.5258,4.0918,4.33,4.484,4.7001,4.8262,4.9187,4.9916,5.0389,5.0998,5.2131,5.3281,5.4025,5.4025,5.4668,5.4955,5.4397,5.4329,5.4228,5.4042,5.3518,5.3112,5.2926,5.2367,5.2266,5.2875,5.1844,5.1438,5.1995,5.1505,5.1201,5.1201,5.1201,5.11,5.0897,5.0934,5.1558,5.2834,5.4291,5.5111,5.5328,5.6124,5.6932,5.7703,5.7923,5.7997,5.8033,5.8646,5.9013,5.9306,6.0529,6.1227,6.1667,6.2291,6.2609,6.2793,6.2793,6.2793,6.2903,6.3576,6.3919,6.4213,6.4824,6.5705,6.6512,6.6512,6.7076,6.77,6.77,6.77,6.77,6.77,6.77,6.7921,6.8752,6.9706,7.077,7.1982,7.2349,7.2496,7.2496,7.2496,7.2496,7.2496,7.2496,7.2496,7.2496,7.2496,7.2496,7.2496,7.2496,7.2496,7.2496,7.1394,7.0624,7.0403,6.9853,6.9398,6.9229,6.9779,6.9706,6.8921,6.8311,6.7921,6.77,6.77,6.77,6.77,6.77,6.77,2.6788,2.8032,3.0437,3.4934,3.8262,4.0915,4.2937,4.4721,4.6143,4.6887,4.8139,4.9154,4.9221,5.098,5.2435,5.2435,5.3078,5.3619,5.3551,5.3551,5.3281,5.2503,5.2401,5.2097,5.137,5.1269,5.1269,5.1336,5.1235,5.1235,5.1269,5.1235,5.1201,5.1201,5.1201,5.0863,5.015,5.015,5.0509,5.1254,5.2688,5.3801,5.4473,5.5291,5.6088,5.6884,5.7666,5.7997,5.7997,5.8033,5.851,5.9196,5.9306,6.0272,6.1606,6.163,6.2144,6.2793,6.2793,6.2793,6.2793,6.2866,6.3429,6.4103,6.4139,6.5264,6.6512,6.6512,6.7076,6.77,6.77,6.77,6.77,6.77,6.77,6.7921,6.8752,7.0132,7.127,7.1344,7.1967,7.2496,7.2496,7.2496,7.2496,7.2496,7.2496,7.2496,7.2496,7.2496,7.2496,7.2496,7.2496,7.2496,7.2496,7.2422,7.2055,7.1307,7.1197,7.083,7.0073,7.0073,6.9706,6.8921,6.8862,6.8458,6.77,6.77,6.77,6.77,6.77,6.77,2.6702,2.8049,3.0286,3.3818,3.6718,3.913,4.0783,4.3145,4.5074,4.5345,4.6177,4.7022,4.7496,4.9796,5.1573,5.1573,5.2232,5.257,5.208,5.2418,5.2469,5.1674,5.1573,5.1472,5.1235,5.0777,5.071,5.1167,5.0322,4.9984,5.0473,5.0067,4.9781,4.9781,4.9781,4.9661,4.939,5.0271,5.0872,5.1112,5.2555,5.3387,5.3654,5.4473,5.4987,5.5317,5.6088,5.7053,5.7997,5.7997,5.818,5.8474,5.9013,5.9563,6.0187,6.1227,6.1777,6.2108,6.2609,6.2793,6.2793,6.2793,6.3013,6.3282,6.3282,6.442,6.5742,6.5742,6.6659,6.77,6.77,6.77,6.77,6.77,6.8104,6.8678,6.9486,7.011,7.0844,7.1872,7.2312,7.2496,7.2496,7.2496,7.2496,7.2496,7.2496,7.2496,7.2496,7.2496,7.2496,7.2496,7.2496,7.2496,7.2496,7.2041,7.16,7.1307,7.1307,7.094,7.011,7.1101,7.1027,6.9706,6.9669,6.9009,6.77,6.77,6.7958,6.8458,6.7958,6.8251,2.6691,2.7931,2.9829,3.2536,3.4419,3.6231,3.8476,4.0743,4.2503,4.299,4.4079,4.5148,4.592,4.7868,4.9612,5.0322,5.1285,5.1742,5.1269,5.1607,5.1657,5.0897,5.0829,5.0728,5.0491,5.0033,4.9932,5.0423,4.9544,4.9221,4.9695,4.9255,4.9018,4.9018,4.8766,4.8631,4.8631,4.9748,5.0461,5.0735,5.212,5.292,5.3214,5.3739,5.4142,5.4436,5.4961,5.6088,5.7593,5.7593,5.7776,5.8033,5.8572,5.8976,5.9343,6.0419,6.097,6.13,6.2108,6.2401,6.2426,6.2719,6.2793,6.2793,6.2793,6.3783,6.4958,6.5215,6.6256,6.737,6.7627,6.77,6.77,6.77,6.8091,6.8715,6.9522,6.9926,7.0587,7.2202,7.2275,7.2202,7.2459,7.2496,7.2496,7.2496,7.2496,7.2496,7.2496,7.2496,7.2496,7.2496,7.2496,7.2496,7.2496,7.2004,7.1711,7.1711,7.1711,7.1468,7.0917,7.1945,7.1872,7.055,7.0513,6.9706,6.8091,6.8091,6.8238,6.8495,6.8238,6.8545,0.0,0.0,0.0,3.0601,3.1133,3.2148,3.5814,3.7246,3.8227,3.9728,4.1745,4.3524,4.4364,4.5128,4.6346,4.8511,5.0153,5.1133,5.1133,5.1167,5.0897,5.015,5.0049,4.9729,4.9018,4.8951,4.8951,4.8951,4.8951,4.8951,4.8951,4.8951,4.8951,4.8951,4.8225,4.7887,4.7887,4.8478,4.9199,5.0016,5.1369,5.2417,5.3214,5.3214,5.3618,5.4363,5.4363,5.528,5.6737,5.6737,5.7226,5.796,5.796,5.8474,5.9159,5.9184,5.9673,6.0493,6.13,6.1606,6.1741,6.2536,6.2793,6.2793,6.2793,6.3429,6.4237,6.5044,6.5852,6.6696,6.748,6.77,6.77,6.77,6.77,6.7921,6.8752,6.9486,7.0513,7.2165,7.1821,7.1564,7.2349,7.2496,7.2496,7.2496,7.2496,7.2496,7.2496,7.2496,7.2496,7.2496,7.2496,7.2496,7.2496,7.2496,7.2496,7.2496,7.2496,7.2496,7.2459,7.2496,7.2129,7.1307,7.1307,7.0536,6.8958,6.8921,6.8495,6.7774,6.8568,6.8531,2.67,0.0,0.0,0.0,0.0,0.0,3.2385,3.4144,3.6028,3.8091,3.9411,4.0764,4.2604,4.3538,4.4437,4.5616,4.7936,4.9627,4.9627,5.0067,4.9932,4.8665,4.8496,4.824,4.7462,4.7394,4.7394,4.7394,4.7394,4.7394,4.7394,4.7394,4.7394,4.7394,4.7192,4.709,4.709,4.8246,4.9199,5.0016,5.1369,5.2417,5.3214,5.3214,5.3324,5.3544,5.3544,5.4095,5.5097,5.5684,5.6418,5.7152,5.7152,5.7618,5.84,5.8976,5.9343,5.9747,6.1117,6.1606,6.1741,6.2536,6.2793,6.2793,6.2793,6.3429,6.4139,6.4347,6.5411,6.6696,6.748,6.77,6.77,6.77,6.77,6.7921,6.8752,6.8605,6.9009,7.1197,7.1454,7.1564,7.2349,7.2496,7.2496,7.2496,7.2496,7.2496,7.2496,7.2496,7.2496,7.2496,7.2496,7.2496,7.2496,7.2496,7.2496,7.2496,7.2496,7.2239,7.1674,7.2188,7.2129,7.1307,7.1307,7.1087,7.0646,6.9472,6.8788,6.8605,6.9986,7.022,0.0,0.0,2.697,2.8044,0.0,0.0,3.0828,3.2215,3.366,3.5611,3.6828,3.8091,3.9728,4.0865,4.1914,4.301,4.5399,4.7361,4.8003,4.8443,4.8409,4.753,4.7447,4.7259,4.6819,4.68,4.68,4.68,4.68,4.68,4.68,4.68,4.68,4.68,4.6481,4.6346,4.6346,4.7326,4.8231,4.9059,5.0726,5.1903,5.2711,5.3067,5.3214,5.3214,5.3214,5.3471,5.3948,5.4399,5.5464,5.6811,5.6811,5.7299,5.807,5.8547,5.8682,5.8866,6.0162,6.0603,6.075,6.1545,6.2022,6.2291,6.2291,6.2879,6.3613,6.3992,6.5007,6.6182,6.7003,6.7187,6.7297,6.7627,6.77,6.7847,6.8311,6.8017,6.8421,7.083,7.1013,7.1174,7.2312,7.2496,7.2496,7.2496,7.2496,7.2496,7.2496,7.2496,7.2496,7.2496,7.2496,7.2496,7.2496,7.2496,7.2496,7.2496,7.2496,7.2312,7.1821,7.2261,7.2275,7.1821,7.1454,7.1123,7.0807,6.9853,6.9229,6.8921,7.0206,7.0183,0.0,0.0,0.0,2.8671,2.8163,0.0,3.048,3.12,3.1708,3.3108,3.4461,3.5611,3.6513,3.7799,3.9174,4.0493,4.2638,4.4702,4.6413,4.6699,4.6665,4.6563,4.6481,4.638,4.6327,4.638,4.6413,4.6413,4.653,4.6563,4.6563,4.6563,4.6563,4.6563,4.5906,4.5568,4.5568,4.6114,4.6838,4.7724,4.9817,5.1206,5.2024,5.281,5.3214,5.3214,5.3214,5.3214,5.3214,5.3214,5.4572,5.6675,5.6675,5.7226,5.7997,5.7997,5.7997,5.8107,5.8902,5.9196,5.9343,6.015,6.0933,6.1606,6.1606,6.2144,6.2976,6.3833,6.4604,6.5362,6.6145,6.6439,6.6659,6.7407,6.7627,6.77,6.77,6.77,6.8348,7.061,7.055,7.0624,7.2239,7.2496,7.2496,7.2496,7.2496,7.2496,7.2496,7.2496,7.2496,7.2496,7.2496,7.2496,7.2496,7.2496,7.2496,7.2496,7.2496,7.2496,7.2496,7.2496,7.2496,7.2496,7.1784,7.0991,7.011,7.0,6.9633,6.9045,6.9669,6.9242,0.0,0.0,0.0,2.9077,3.0093,0.0,3.0446,3.1224,3.2351,3.322,3.3615,3.4224,3.5577,3.6603,3.7325,3.7596,3.9525,4.213,4.5466,4.5906,4.5703,4.5108,4.4451,4.3842,4.3247,4.3707,4.4065,4.4065,4.4654,4.5007,4.5007,4.5007,4.5007,4.5007,4.4871,4.4804,4.4804,4.5882,4.6838,4.7724,4.9817,5.1206,5.2024,5.281,5.3214,5.3214,5.3214,5.3214,5.3214,5.3214,5.4252,5.5842,5.5842,5.6712,5.7997,5.7997,5.7997,5.8107,5.8902,5.9196,5.9343,6.015,6.0933,6.1606,6.1606,6.2144,6.2976,6.3833,6.4213,6.453,6.5338,6.5999,6.6549,6.6696,6.7223,6.77,6.77,6.77,6.8031,6.9142,6.9779,7.0624,7.2239,7.2496,7.2496,7.2496,7.2496,7.2496,7.2496,7.2496,7.2496,7.2496,7.2496,7.2496,7.2496,7.2496,7.2496,7.2496,7.2496,7.2496,7.2496,7.2496,7.2496,7.2496,7.2349,7.1541,7.011,6.9449,6.9376,6.9853,6.9376,6.9302,2.9111,2.9271,2.9533,2.9533,3.0127,0.0,0.0,3.0954,3.1539,3.2621,3.2544,3.2645,3.3761,3.4573,3.5227,3.5599,3.7235,3.922,4.1495,4.3098,4.3876,4.3484,4.3098,4.2726,4.2333,4.2625,4.2861,4.2861,4.3572,4.3842,4.3484,4.4161,4.4432,4.4012,4.4398,4.4615,4.4615,4.5778,4.6613,4.7086,4.92,5.0408,5.0849,5.205,5.2601,5.2637,5.3031,5.3214,5.3214,5.3214,5.3911,5.5034,5.5438,5.6345,5.7446,5.785,5.7997,5.807,5.8474,5.8609,5.8657,5.9061,6.0015,6.1006,6.1006,6.1838,6.2903,6.3319,6.3466,6.3649,6.4494,6.5301,6.5999,6.6402,6.7113,6.77,6.77,6.77,6.7958,6.8752,6.9559,7.0477,7.1674,7.1894,7.2041,7.2459,7.2151,7.2041,7.2459,7.2496,7.2496,7.2496,7.2496,7.2496,7.2496,7.2496,7.2496,7.2496,7.2496,7.2496,7.2496,7.2496,7.2312,7.1894,7.2312,7.1908,7.0697,7.0279,7.011,7.0073,6.9706,6.9706,3.0016,3.005,3.032,3.048,3.0523,3.0635,0.0,0.0,0.0,3.1911,3.1606,3.1369,3.1989,3.2689,3.3288,3.3592,3.5159,3.6479,3.6772,3.9242,4.117,4.1623,4.142,4.1352,4.1657,4.1657,4.186,4.2266,4.2713,4.278,4.232,4.3484,4.3856,4.322,4.3822,4.4312,4.4551,4.5643,4.6318,4.6624,4.8624,4.961,4.9647,5.1106,5.1767,5.1803,5.2637,5.2957,5.2994,5.3141,5.3581,5.4252,5.506,5.5941,5.6884,5.7519,5.7886,5.7997,5.7997,5.7997,5.7997,5.7997,5.9098,6.0419,6.0566,6.1655,6.2793,6.2793,6.2793,6.2976,6.3686,6.4567,6.5472,6.6109,6.699,6.77,6.77,6.77,6.7884,6.8531,6.9449,7.0293,7.094,7.1197,7.1527,7.2165,7.1711,7.16,7.2422,7.2496,7.2496,7.2496,7.2496,7.2496,7.2496,7.2496,7.2496,7.2496,7.2496,7.2496,7.2496,7.2496,7.2129,7.1307,7.2092,7.2078,7.1307,7.1454,7.1123,7.033,7.0183,7.011,3.2905,3.3852,3.4393,3.252,3.402,3.5103,3.1911,0.0,3.2713,3.1562,0.0,3.1234,3.1302,0.0,0.0,3.0818,3.2949,3.4347,3.3095,3.4912,3.7099,3.914,3.8205,3.7934,3.9254,3.9377,4.0202,4.2151,4.1779,4.1711,4.2266,4.2469,4.2536,4.2435,4.2503,4.3161,4.4413,4.507,4.6049,4.731,4.8845,4.961,4.9647,5.0508,5.0949,5.0986,5.1793,5.2134,5.2197,5.292,5.3251,5.3434,5.4216,5.5464,5.6811,5.6884,5.7409,5.7997,5.7997,5.7997,5.7997,5.7997,5.9098,6.0529,6.1263,6.2108,6.2793,6.2793,6.2793,6.2829,6.2903,6.4114,6.5325,6.5398,6.6586,6.77,6.77,6.77,6.7737,6.7811,6.9059,7.011,7.022,7.0844,7.1344,7.1417,7.1344,7.16,7.2422,7.2496,7.2496,7.2496,7.2496,7.2496,7.2496,7.2496,7.2496,7.2496,7.2496,7.2496,7.2496,7.2496,7.2129,7.1307,7.2092,7.2078,7.1307,7.2004,7.1931,7.116,7.044,7.011,3.3525,3.4157,3.4641,3.3288,3.3897,0.0,3.2283,0.0,3.207,3.1877,0.0,0.0,0.0,0.0,0.0,0.0,3.2046,3.252,3.2327,3.2723,3.4021,3.6693,3.6468,3.6535,3.763,3.8091,3.8734,3.9681,4.0257,4.0506,4.0405,4.1589,4.2097,4.1677,4.2083,4.2995,4.4388,4.5011,4.6023,4.7406,4.839,4.8857,4.8857,4.9711,5.0115,5.0188,5.1436,5.1987,5.206,5.2847,5.3214,5.3214,5.3581,5.4388,5.5537,5.6444,5.6994,5.7373,5.785,5.7997,5.807,5.8535,5.9453,6.0566,6.1374,6.2144,6.2793,6.2793,6.2793,6.2793,6.2793,6.404,6.5288,6.5288,6.6512,6.77,6.77,6.77,6.77,6.77,6.8605,6.9265,6.8802,6.9743,7.0756,7.1233,7.0903,7.1064,7.2349,7.2496,7.2496,7.2496,7.2496,7.2496,7.2496,7.2496,7.2496,7.2496,7.2496,7.2496,7.2496,7.2496,7.2349,7.2004,7.2349,7.2349,7.2004,7.2349,7.2349,7.1982,7.116,7.1064,3.4224,0.0,0.0,0.0,0.0,0.0,0.0,0.0,0.0,0.0,3.1877,0.0,0.0,0.0,3.1302,3.164,0.0,3.1336,3.164,3.1403,3.2138,3.4698,3.5171,3.5622,3.6378,3.6603,3.6997,3.7855,3.8497,3.8916,3.9017,4.0527,4.1238,4.0899,4.142,4.2381,4.3776,4.439,4.5488,4.7092,4.7697,4.8076,4.8333,4.8976,4.9233,4.9344,5.0959,5.1693,5.1756,5.2774,5.3214,5.3214,5.3214,5.3544,5.4289,5.5868,5.6602,5.6921,5.7703,5.7997,5.8107,5.8682,5.9465,6.0309,6.1043,6.1973,6.2793,6.2805,6.2793,6.2793,6.2793,6.404,6.5288,6.5288,6.6512,6.77,6.77,6.7884,6.8017,6.8017,6.8678,6.8972,6.8178,6.9009,7.0036,7.083,7.0477,7.066,7.2275,7.2496,7.2496,7.2496,7.2496,7.2496,7.2496,7.2496,7.2496,7.2496,7.2496,7.2496,7.2496,7.2496,7.2496,7.2496,7.2496,7.2496,7.2496,7.2496,7.2496,7.2496,7.1894,7.1931,0.0,0.0,0.0,3.4303,0.0,0.0,0.0,0.0,3.2949,0.0,0.0,0.0,0.0,0.0,0.0,0.0,0.0,0.0,0.0,3.0751,3.1765,3.3288,3.41,3.4844,3.5577,3.4359,3.4776,3.7674,3.6558,3.6693,3.8882,3.9085,3.9423,4.0113,4.0146,4.0858,4.2262,4.2817,4.4153,4.6339,4.6893,4.7562,4.8296,4.8333,4.8333,4.8443,5.0105,5.0839,5.0949,5.2553,5.3214,5.3214,5.3214,5.3214,5.3434,5.506,5.6124,5.6921,5.7703,5.7997,5.7997,5.8033,5.8742,5.9745,6.0272,6.1544,6.2818,6.2781,6.2793,6.2793,6.2793,6.404,6.5288,6.5288,6.6512,6.77,6.77,6.8311,6.8862,6.8862,6.9522,6.9816,6.9009,6.8885,6.9229,7.0036,7.011,7.066,7.2275,7.2496,7.2496,7.2496,7.2496,7.2496,7.2496,7.2496,7.2496,7.2496,7.2496,7.2496,7.2496,7.2496,7.2496,7.2496,7.2496,7.2496,7.2496,7.2496,7.2496,7.2496,7.2459,7.2496,0.0,0.0,3.8476,3.6208,0.0,0.0,0.0,0.0,0.0,0.0,0.0,0.0,0.0,0.0,0.0,0.0,0.0,0.0,0.0,3.1021,3.1403,3.1867,3.2588,3.3129,3.34,3.3423,3.3818,3.4833,3.534,3.5938,3.6693,3.8193,3.9119,3.9356,3.9842,4.079,4.2193,4.3251,4.4628,4.6303,4.7378,4.8039,4.8296,4.8296,4.8296,4.837,5.0058,5.0802,5.0902,5.2553,5.3214,5.3214,5.3214,5.3214,5.3398,5.4997,5.5768,5.6198,5.7519,5.7997,5.7997,5.7997,5.8244,5.871,5.9614,6.1226,6.2782,6.2781,6.2793,6.2793,6.2793,6.3649,6.464,6.5178,6.6109,6.704,6.759,6.7921,6.8091,6.8091,6.8325,6.8435,6.8141,6.8091,6.8568,6.9889,7.011,7.066,7.2275,7.2496,7.2496,7.2496,7.2496,7.2496,7.2496,7.2496,7.2496,7.2496,7.2496,7.2496,7.2496,7.2496,7.2496,7.2496,7.2496,7.2496,7.2496,7.2496,7.2496,7.2496,7.2496,7.2496,3.7855,3.8633,0.0,3.7235,3.6987,0.0,3.4303,0.0,3.4686,0.0,0.0,0.0,0.0,0.0,0.0,0.0,0.0,0.0,0.0,3.12,3.12,3.12,3.1606,3.2022,3.2259,3.2486,3.2939,3.3728,3.4427,3.5171,3.5983,3.7686,3.8734,3.8971,3.9728,4.0542,4.1429,4.2704,4.3939,4.5146,4.6715,4.7599,4.7893,4.8186,4.8296,4.837,5.0058,5.0802,5.0902,5.2553,5.3214,5.3214,5.3214,5.3214,5.3398,5.4997,5.5952,5.6613,5.7629,5.7997,5.7997,5.7997,5.7987,5.8355,6.0174,6.1703,6.2782,6.2793,6.2793,6.2793,6.2793,6.3466,6.4323,6.5105,6.5925,6.6733,6.7517,6.7921,6.8128,6.8128,6.8128,6.8201,6.8508,6.8068,6.8251,6.9853,7.011,7.0587,7.1908,7.2312,7.2386,7.2078,7.2349,7.2496,7.2496,7.2496,7.2496,7.2496,7.2496,7.2496,7.2496,7.2496,7.2642,7.2936,7.2642,7.2642,7.2936,7.2642,7.2496,7.2496,7.2496,7.2496]}]]